<?xml version="1.0" encoding="UTF-8" standalone="no" ?>
<gpx xmlns="http://www.topografix.com/GPX/1/1" xmlns:xsi="http://www.w3.org/2001/XMLSchema-instance" xsi:schemaLocation="http://www.topografix.com/GPX/1/1 http://www.topografix.com/GPX/1/1/gpx.xsd" version="1.1" creator="VisuGPX - https://www.visugpx.com">
  <metadata>
    <name>Cabrieres / Les crozes</name>
    <desc><![CDATA[Une sortie typée AM avec 3 descentes ludiques, dont la dernière comporte des sauts aménagés que l'ont peut prendre au taquet. ]]></desc>
  </metadata>
  <trk>
    <name><![CDATA[Cabrieres / Les crozes_1]]></name>
    <trkseg>
      <trkpt lat="43.57258" lon="3.36359">
        <ele>165.4</ele>
        <time>2016-07-31T05:51:43Z</time>
      </trkpt>
      <trkpt lat="43.57258" lon="3.36359">
        <ele>165.4</ele>
        <time>2016-07-31T05:51:58Z</time>
      </trkpt>
      <trkpt lat="43.57253" lon="3.36344">
        <ele>155.5</ele>
        <time>2016-07-31T05:57:22Z</time>
      </trkpt>
      <trkpt lat="43.57251" lon="3.36343">
        <ele>155.9</ele>
        <time>2016-07-31T05:57:37Z</time>
      </trkpt>
      <trkpt lat="43.57251" lon="3.36349">
        <ele>156.8</ele>
        <time>2016-07-31T05:58:15Z</time>
      </trkpt>
      <trkpt lat="43.57248" lon="3.36351">
        <ele>155.8</ele>
        <time>2016-07-31T05:59:11Z</time>
      </trkpt>
      <trkpt lat="43.57249" lon="3.36354">
        <ele>156.1</ele>
        <time>2016-07-31T05:59:28Z</time>
      </trkpt>
      <trkpt lat="43.57251" lon="3.36359">
        <ele>156</ele>
        <time>2016-07-31T05:59:35Z</time>
      </trkpt>
      <trkpt lat="43.57254" lon="3.3636">
        <ele>155.1</ele>
        <time>2016-07-31T05:59:49Z</time>
      </trkpt>
      <trkpt lat="43.57253" lon="3.36356">
        <ele>154.2</ele>
        <time>2016-07-31T06:00:10Z</time>
      </trkpt>
      <trkpt lat="43.57252" lon="3.36352">
        <ele>154.2</ele>
        <time>2016-07-31T06:00:17Z</time>
      </trkpt>
      <trkpt lat="43.57251" lon="3.36349">
        <ele>154.5</ele>
        <time>2016-07-31T06:00:31Z</time>
      </trkpt>
      <trkpt lat="43.5725" lon="3.36348">
        <ele>154.7</ele>
        <time>2016-07-31T06:00:38Z</time>
      </trkpt>
      <trkpt lat="43.57248" lon="3.36349">
        <ele>155.1</ele>
        <time>2016-07-31T06:00:23Z</time>
      </trkpt>
      <trkpt lat="43.57245" lon="3.36349">
        <ele>155.3</ele>
        <time>2016-07-31T06:01:51Z</time>
      </trkpt>
      <trkpt lat="43.57248" lon="3.36348">
        <ele>156.1</ele>
        <time>2016-07-31T06:02:10Z</time>
      </trkpt>
      <trkpt lat="43.57248" lon="3.36343">
        <ele>156.2</ele>
        <time>2016-07-31T06:02:20Z</time>
      </trkpt>
      <trkpt lat="43.57252" lon="3.36351">
        <ele>156.4</ele>
        <time>2016-07-31T06:02:34Z</time>
      </trkpt>
      <trkpt lat="43.57247" lon="3.36349">
        <ele>155.8</ele>
        <time>2016-07-31T06:03:39Z</time>
      </trkpt>
      <trkpt lat="43.5725" lon="3.36349">
        <ele>155.8</ele>
        <time>2016-07-31T06:03:46Z</time>
      </trkpt>
      <trkpt lat="43.5725" lon="3.36344">
        <ele>156.7</ele>
        <time>2016-07-31T06:04:00Z</time>
      </trkpt>
      <trkpt lat="43.57252" lon="3.36349">
        <ele>156.7</ele>
        <time>2016-07-31T06:04:07Z</time>
      </trkpt>
      <trkpt lat="43.57253" lon="3.36345">
        <ele>156.7</ele>
        <time>2016-07-31T06:04:14Z</time>
      </trkpt>
      <trkpt lat="43.57257" lon="3.36338">
        <ele>156.7</ele>
        <time>2016-07-31T06:04:21Z</time>
      </trkpt>
      <trkpt lat="43.57259" lon="3.3634">
        <ele>156.7</ele>
        <time>2016-07-31T06:04:28Z</time>
      </trkpt>
      <trkpt lat="43.57255" lon="3.3635">
        <ele>156.7</ele>
        <time>2016-07-31T06:04:33Z</time>
      </trkpt>
      <trkpt lat="43.57251" lon="3.36354">
        <ele>156.8</ele>
        <time>2016-07-31T06:04:40Z</time>
      </trkpt>
      <trkpt lat="43.5725" lon="3.36352">
        <ele>156.8</ele>
        <time>2016-07-31T06:05:30Z</time>
      </trkpt>
      <trkpt lat="43.57251" lon="3.36355">
        <ele>156.8</ele>
        <time>2016-07-31T06:06:03Z</time>
      </trkpt>
      <trkpt lat="43.57251" lon="3.36352">
        <ele>157.1</ele>
        <time>2016-07-31T06:05:35Z</time>
      </trkpt>
      <trkpt lat="43.57252" lon="3.3635">
        <ele>157.2</ele>
        <time>2016-07-31T06:07:08Z</time>
      </trkpt>
      <trkpt lat="43.5725" lon="3.36356">
        <ele>157.3</ele>
        <time>2016-07-31T06:06:36Z</time>
      </trkpt>
      <trkpt lat="43.57252" lon="3.36354">
        <ele>157.8</ele>
        <time>2016-07-31T06:06:05Z</time>
      </trkpt>
      <trkpt lat="43.57254" lon="3.36352">
        <ele>158.4</ele>
        <time>2016-07-31T06:06:13Z</time>
      </trkpt>
      <trkpt lat="43.5725" lon="3.36344">
        <ele>158.9</ele>
        <time>2016-07-31T06:06:18Z</time>
      </trkpt>
      <trkpt lat="43.57242" lon="3.36338">
        <ele>158.9</ele>
        <time>2016-07-31T06:08:33Z</time>
      </trkpt>
      <trkpt lat="43.57233" lon="3.36335">
        <ele>158.7</ele>
        <time>2016-07-31T06:08:37Z</time>
      </trkpt>
      <trkpt lat="43.57225" lon="3.36332">
        <ele>158.5</ele>
        <time>2016-07-31T06:08:41Z</time>
      </trkpt>
      <trkpt lat="43.57215" lon="3.3633">
        <ele>158.2</ele>
        <time>2016-07-31T06:08:45Z</time>
      </trkpt>
      <trkpt lat="43.57206" lon="3.36328">
        <ele>158</ele>
        <time>2016-07-31T06:08:48Z</time>
      </trkpt>
      <trkpt lat="43.57198" lon="3.36326">
        <ele>157.8</ele>
        <time>2016-07-31T06:08:51Z</time>
      </trkpt>
      <trkpt lat="43.57189" lon="3.36324">
        <ele>157.7</ele>
        <time>2016-07-31T06:08:54Z</time>
      </trkpt>
      <trkpt lat="43.57179" lon="3.36322">
        <ele>157.7</ele>
        <time>2016-07-31T06:08:57Z</time>
      </trkpt>
      <trkpt lat="43.5717" lon="3.36321">
        <ele>157.6</ele>
        <time>2016-07-31T06:09:00Z</time>
      </trkpt>
      <trkpt lat="43.5716" lon="3.36319">
        <ele>157.6</ele>
        <time>2016-07-31T06:09:03Z</time>
      </trkpt>
      <trkpt lat="43.57151" lon="3.36317">
        <ele>157.7</ele>
        <time>2016-07-31T06:09:06Z</time>
      </trkpt>
      <trkpt lat="43.57141" lon="3.36313">
        <ele>157.7</ele>
        <time>2016-07-31T06:09:09Z</time>
      </trkpt>
      <trkpt lat="43.57132" lon="3.36308">
        <ele>157.8</ele>
        <time>2016-07-31T06:09:12Z</time>
      </trkpt>
      <trkpt lat="43.57126" lon="3.36302">
        <ele>157.9</ele>
        <time>2016-07-31T06:09:14Z</time>
      </trkpt>
      <trkpt lat="43.57117" lon="3.36295">
        <ele>158.1</ele>
        <time>2016-07-31T06:09:17Z</time>
      </trkpt>
      <trkpt lat="43.57109" lon="3.36289">
        <ele>158.2</ele>
        <time>2016-07-31T06:09:20Z</time>
      </trkpt>
      <trkpt lat="43.57099" lon="3.36283">
        <ele>158.2</ele>
        <time>2016-07-31T06:09:23Z</time>
      </trkpt>
      <trkpt lat="43.57089" lon="3.3628">
        <ele>158.2</ele>
        <time>2016-07-31T06:09:26Z</time>
      </trkpt>
      <trkpt lat="43.5708" lon="3.36276">
        <ele>158.2</ele>
        <time>2016-07-31T06:09:29Z</time>
      </trkpt>
      <trkpt lat="43.57071" lon="3.36274">
        <ele>158.1</ele>
        <time>2016-07-31T06:09:32Z</time>
      </trkpt>
      <trkpt lat="43.57064" lon="3.36271">
        <ele>158.1</ele>
        <time>2016-07-31T06:09:34Z</time>
      </trkpt>
      <trkpt lat="43.57056" lon="3.36269">
        <ele>158.2</ele>
        <time>2016-07-31T06:09:36Z</time>
      </trkpt>
      <trkpt lat="43.57048" lon="3.36267">
        <ele>158.1</ele>
        <time>2016-07-31T06:09:38Z</time>
      </trkpt>
      <trkpt lat="43.57039" lon="3.36265">
        <ele>157.6</ele>
        <time>2016-07-31T06:09:40Z</time>
      </trkpt>
      <trkpt lat="43.57029" lon="3.36264">
        <ele>157.8</ele>
        <time>2016-07-31T06:09:42Z</time>
      </trkpt>
      <trkpt lat="43.57018" lon="3.36263">
        <ele>158</ele>
        <time>2016-07-31T06:09:44Z</time>
      </trkpt>
      <trkpt lat="43.57007" lon="3.36261">
        <ele>158.6</ele>
        <time>2016-07-31T06:09:46Z</time>
      </trkpt>
      <trkpt lat="43.56997" lon="3.36259">
        <ele>159.2</ele>
        <time>2016-07-31T06:09:48Z</time>
      </trkpt>
      <trkpt lat="43.56987" lon="3.36257">
        <ele>159.5</ele>
        <time>2016-07-31T06:09:50Z</time>
      </trkpt>
      <trkpt lat="43.56976" lon="3.36256">
        <ele>159.5</ele>
        <time>2016-07-31T06:09:52Z</time>
      </trkpt>
      <trkpt lat="43.56965" lon="3.36257">
        <ele>159.7</ele>
        <time>2016-07-31T06:09:54Z</time>
      </trkpt>
      <trkpt lat="43.56955" lon="3.36261">
        <ele>160.5</ele>
        <time>2016-07-31T06:09:56Z</time>
      </trkpt>
      <trkpt lat="43.56947" lon="3.36265">
        <ele>160.3</ele>
        <time>2016-07-31T06:09:58Z</time>
      </trkpt>
      <trkpt lat="43.56938" lon="3.3627">
        <ele>159.7</ele>
        <time>2016-07-31T06:10:00Z</time>
      </trkpt>
      <trkpt lat="43.56931" lon="3.36275">
        <ele>158.6</ele>
        <time>2016-07-31T06:10:02Z</time>
      </trkpt>
      <trkpt lat="43.56924" lon="3.36278">
        <ele>159.2</ele>
        <time>2016-07-31T06:10:04Z</time>
      </trkpt>
      <trkpt lat="43.56915" lon="3.36281">
        <ele>159.3</ele>
        <time>2016-07-31T06:10:06Z</time>
      </trkpt>
      <trkpt lat="43.56908" lon="3.36281">
        <ele>160.1</ele>
        <time>2016-07-31T06:10:08Z</time>
      </trkpt>
      <trkpt lat="43.56901" lon="3.3628">
        <ele>161.2</ele>
        <time>2016-07-31T06:10:10Z</time>
      </trkpt>
      <trkpt lat="43.56893" lon="3.36277">
        <ele>161.9</ele>
        <time>2016-07-31T06:10:12Z</time>
      </trkpt>
      <trkpt lat="43.56886" lon="3.36271">
        <ele>162</ele>
        <time>2016-07-31T06:10:14Z</time>
      </trkpt>
      <trkpt lat="43.5688" lon="3.36266">
        <ele>162.1</ele>
        <time>2016-07-31T06:10:16Z</time>
      </trkpt>
      <trkpt lat="43.56871" lon="3.36258">
        <ele>162.2</ele>
        <time>2016-07-31T06:10:19Z</time>
      </trkpt>
      <trkpt lat="43.56862" lon="3.3625">
        <ele>162.3</ele>
        <time>2016-07-31T06:10:22Z</time>
      </trkpt>
      <trkpt lat="43.56855" lon="3.36245">
        <ele>162.9</ele>
        <time>2016-07-31T06:10:24Z</time>
      </trkpt>
      <trkpt lat="43.56848" lon="3.36241">
        <ele>163.4</ele>
        <time>2016-07-31T06:10:26Z</time>
      </trkpt>
      <trkpt lat="43.56841" lon="3.36237">
        <ele>163.9</ele>
        <time>2016-07-31T06:10:28Z</time>
      </trkpt>
      <trkpt lat="43.56834" lon="3.36231">
        <ele>164.5</ele>
        <time>2016-07-31T06:10:30Z</time>
      </trkpt>
      <trkpt lat="43.56827" lon="3.36224">
        <ele>165</ele>
        <time>2016-07-31T06:10:32Z</time>
      </trkpt>
      <trkpt lat="43.56821" lon="3.36217">
        <ele>165.5</ele>
        <time>2016-07-31T06:10:34Z</time>
      </trkpt>
      <trkpt lat="43.56814" lon="3.36205">
        <ele>165.8</ele>
        <time>2016-07-31T06:10:37Z</time>
      </trkpt>
      <trkpt lat="43.56808" lon="3.36194">
        <ele>165.8</ele>
        <time>2016-07-31T06:10:40Z</time>
      </trkpt>
      <trkpt lat="43.56803" lon="3.36184">
        <ele>165.9</ele>
        <time>2016-07-31T06:10:43Z</time>
      </trkpt>
      <trkpt lat="43.56796" lon="3.36172">
        <ele>165.8</ele>
        <time>2016-07-31T06:10:46Z</time>
      </trkpt>
      <trkpt lat="43.56791" lon="3.36163">
        <ele>165.5</ele>
        <time>2016-07-31T06:10:48Z</time>
      </trkpt>
      <trkpt lat="43.56785" lon="3.36152">
        <ele>165.2</ele>
        <time>2016-07-31T06:10:50Z</time>
      </trkpt>
      <trkpt lat="43.56779" lon="3.3614">
        <ele>164.9</ele>
        <time>2016-07-31T06:10:52Z</time>
      </trkpt>
      <trkpt lat="43.56775" lon="3.36125">
        <ele>164.4</ele>
        <time>2016-07-31T06:10:54Z</time>
      </trkpt>
      <trkpt lat="43.56773" lon="3.3611">
        <ele>164.2</ele>
        <time>2016-07-31T06:10:56Z</time>
      </trkpt>
      <trkpt lat="43.56772" lon="3.36095">
        <ele>164.1</ele>
        <time>2016-07-31T06:10:58Z</time>
      </trkpt>
      <trkpt lat="43.56771" lon="3.36079">
        <ele>163.8</ele>
        <time>2016-07-31T06:11:00Z</time>
      </trkpt>
      <trkpt lat="43.56769" lon="3.36063">
        <ele>163.5</ele>
        <time>2016-07-31T06:11:02Z</time>
      </trkpt>
      <trkpt lat="43.56767" lon="3.36049">
        <ele>163.7</ele>
        <time>2016-07-31T06:11:04Z</time>
      </trkpt>
      <trkpt lat="43.56765" lon="3.36036">
        <ele>164.5</ele>
        <time>2016-07-31T06:11:06Z</time>
      </trkpt>
      <trkpt lat="43.56763" lon="3.36024">
        <ele>165.2</ele>
        <time>2016-07-31T06:11:08Z</time>
      </trkpt>
      <trkpt lat="43.5676" lon="3.36013">
        <ele>165.5</ele>
        <time>2016-07-31T06:11:10Z</time>
      </trkpt>
      <trkpt lat="43.56757" lon="3.36001">
        <ele>166.3</ele>
        <time>2016-07-31T06:11:12Z</time>
      </trkpt>
      <trkpt lat="43.56754" lon="3.35992">
        <ele>166.8</ele>
        <time>2016-07-31T06:11:14Z</time>
      </trkpt>
      <trkpt lat="43.56753" lon="3.35982">
        <ele>166.9</ele>
        <time>2016-07-31T06:11:16Z</time>
      </trkpt>
      <trkpt lat="43.56751" lon="3.35972">
        <ele>167</ele>
        <time>2016-07-31T06:11:18Z</time>
      </trkpt>
      <trkpt lat="43.56749" lon="3.35962">
        <ele>167.3</ele>
        <time>2016-07-31T06:11:20Z</time>
      </trkpt>
      <trkpt lat="43.56746" lon="3.35951">
        <ele>167.4</ele>
        <time>2016-07-31T06:11:22Z</time>
      </trkpt>
      <trkpt lat="43.56744" lon="3.35941">
        <ele>168.6</ele>
        <time>2016-07-31T06:11:24Z</time>
      </trkpt>
      <trkpt lat="43.56741" lon="3.35927">
        <ele>169.7</ele>
        <time>2016-07-31T06:11:27Z</time>
      </trkpt>
      <trkpt lat="43.56738" lon="3.35916">
        <ele>169.7</ele>
        <time>2016-07-31T06:11:29Z</time>
      </trkpt>
      <trkpt lat="43.56736" lon="3.35906">
        <ele>170</ele>
        <time>2016-07-31T06:11:31Z</time>
      </trkpt>
      <trkpt lat="43.56733" lon="3.35896">
        <ele>169.8</ele>
        <time>2016-07-31T06:11:33Z</time>
      </trkpt>
      <trkpt lat="43.56732" lon="3.35885">
        <ele>169.8</ele>
        <time>2016-07-31T06:11:35Z</time>
      </trkpt>
      <trkpt lat="43.56729" lon="3.35872">
        <ele>170.4</ele>
        <time>2016-07-31T06:11:37Z</time>
      </trkpt>
      <trkpt lat="43.56727" lon="3.35861">
        <ele>170.8</ele>
        <time>2016-07-31T06:11:39Z</time>
      </trkpt>
      <trkpt lat="43.56724" lon="3.35852">
        <ele>170.9</ele>
        <time>2016-07-31T06:11:41Z</time>
      </trkpt>
      <trkpt lat="43.56721" lon="3.35842">
        <ele>170.1</ele>
        <time>2016-07-31T06:11:43Z</time>
      </trkpt>
      <trkpt lat="43.56718" lon="3.3583">
        <ele>169.1</ele>
        <time>2016-07-31T06:11:45Z</time>
      </trkpt>
      <trkpt lat="43.56716" lon="3.35818">
        <ele>168.5</ele>
        <time>2016-07-31T06:11:47Z</time>
      </trkpt>
      <trkpt lat="43.56714" lon="3.35807">
        <ele>168.7</ele>
        <time>2016-07-31T06:11:49Z</time>
      </trkpt>
      <trkpt lat="43.56712" lon="3.35795">
        <ele>168.8</ele>
        <time>2016-07-31T06:11:51Z</time>
      </trkpt>
      <trkpt lat="43.5671" lon="3.35783">
        <ele>168.4</ele>
        <time>2016-07-31T06:11:53Z</time>
      </trkpt>
      <trkpt lat="43.56708" lon="3.35772">
        <ele>168.3</ele>
        <time>2016-07-31T06:11:55Z</time>
      </trkpt>
      <trkpt lat="43.56707" lon="3.3576">
        <ele>168.3</ele>
        <time>2016-07-31T06:11:57Z</time>
      </trkpt>
      <trkpt lat="43.56705" lon="3.35748">
        <ele>167.5</ele>
        <time>2016-07-31T06:11:59Z</time>
      </trkpt>
      <trkpt lat="43.56703" lon="3.35737">
        <ele>167.5</ele>
        <time>2016-07-31T06:12:01Z</time>
      </trkpt>
      <trkpt lat="43.56702" lon="3.35724">
        <ele>168</ele>
        <time>2016-07-31T06:12:03Z</time>
      </trkpt>
      <trkpt lat="43.56701" lon="3.35713">
        <ele>168.5</ele>
        <time>2016-07-31T06:12:05Z</time>
      </trkpt>
      <trkpt lat="43.56701" lon="3.35701">
        <ele>169.1</ele>
        <time>2016-07-31T06:12:07Z</time>
      </trkpt>
      <trkpt lat="43.56701" lon="3.3569">
        <ele>170</ele>
        <time>2016-07-31T06:12:09Z</time>
      </trkpt>
      <trkpt lat="43.56702" lon="3.35679">
        <ele>170.5</ele>
        <time>2016-07-31T06:12:11Z</time>
      </trkpt>
      <trkpt lat="43.56704" lon="3.35668">
        <ele>170.9</ele>
        <time>2016-07-31T06:12:13Z</time>
      </trkpt>
      <trkpt lat="43.56705" lon="3.35658">
        <ele>171</ele>
        <time>2016-07-31T06:12:15Z</time>
      </trkpt>
      <trkpt lat="43.56706" lon="3.35643">
        <ele>170.8</ele>
        <time>2016-07-31T06:12:18Z</time>
      </trkpt>
      <trkpt lat="43.56706" lon="3.35632">
        <ele>170</ele>
        <time>2016-07-31T06:12:20Z</time>
      </trkpt>
      <trkpt lat="43.56701" lon="3.35618">
        <ele>169.9</ele>
        <time>2016-07-31T06:12:23Z</time>
      </trkpt>
      <trkpt lat="43.56699" lon="3.35606">
        <ele>170.4</ele>
        <time>2016-07-31T06:12:25Z</time>
      </trkpt>
      <trkpt lat="43.56699" lon="3.35595">
        <ele>170.4</ele>
        <time>2016-07-31T06:12:27Z</time>
      </trkpt>
      <trkpt lat="43.56699" lon="3.35585">
        <ele>170.7</ele>
        <time>2016-07-31T06:12:29Z</time>
      </trkpt>
      <trkpt lat="43.56699" lon="3.3557">
        <ele>170.8</ele>
        <time>2016-07-31T06:12:32Z</time>
      </trkpt>
      <trkpt lat="43.56699" lon="3.35556">
        <ele>171.1</ele>
        <time>2016-07-31T06:12:35Z</time>
      </trkpt>
      <trkpt lat="43.56699" lon="3.35546">
        <ele>171.3</ele>
        <time>2016-07-31T06:12:37Z</time>
      </trkpt>
      <trkpt lat="43.56699" lon="3.35533">
        <ele>171.6</ele>
        <time>2016-07-31T06:12:40Z</time>
      </trkpt>
      <trkpt lat="43.567" lon="3.35522">
        <ele>171.8</ele>
        <time>2016-07-31T06:12:42Z</time>
      </trkpt>
      <trkpt lat="43.567" lon="3.35507">
        <ele>172</ele>
        <time>2016-07-31T06:12:45Z</time>
      </trkpt>
      <trkpt lat="43.567" lon="3.35494">
        <ele>172.3</ele>
        <time>2016-07-31T06:12:48Z</time>
      </trkpt>
      <trkpt lat="43.567" lon="3.35484">
        <ele>172.5</ele>
        <time>2016-07-31T06:12:50Z</time>
      </trkpt>
      <trkpt lat="43.56699" lon="3.35471">
        <ele>172.7</ele>
        <time>2016-07-31T06:12:53Z</time>
      </trkpt>
      <trkpt lat="43.56698" lon="3.35458">
        <ele>173</ele>
        <time>2016-07-31T06:12:56Z</time>
      </trkpt>
      <trkpt lat="43.56698" lon="3.35445">
        <ele>173.3</ele>
        <time>2016-07-31T06:12:59Z</time>
      </trkpt>
      <trkpt lat="43.567" lon="3.35434">
        <ele>173.7</ele>
        <time>2016-07-31T06:13:02Z</time>
      </trkpt>
      <trkpt lat="43.56701" lon="3.35423">
        <ele>174.1</ele>
        <time>2016-07-31T06:13:05Z</time>
      </trkpt>
      <trkpt lat="43.56702" lon="3.3541">
        <ele>174.4</ele>
        <time>2016-07-31T06:13:08Z</time>
      </trkpt>
      <trkpt lat="43.56702" lon="3.35399">
        <ele>174.8</ele>
        <time>2016-07-31T06:13:11Z</time>
      </trkpt>
      <trkpt lat="43.567" lon="3.35388">
        <ele>175.5</ele>
        <time>2016-07-31T06:13:15Z</time>
      </trkpt>
      <trkpt lat="43.56699" lon="3.35377">
        <ele>176.1</ele>
        <time>2016-07-31T06:13:18Z</time>
      </trkpt>
      <trkpt lat="43.56698" lon="3.35364">
        <ele>176.7</ele>
        <time>2016-07-31T06:13:21Z</time>
      </trkpt>
      <trkpt lat="43.56695" lon="3.3535">
        <ele>178.8</ele>
        <time>2016-07-31T06:13:24Z</time>
      </trkpt>
      <trkpt lat="43.56694" lon="3.3534">
        <ele>181.3</ele>
        <time>2016-07-31T06:13:26Z</time>
      </trkpt>
      <trkpt lat="43.56691" lon="3.35328">
        <ele>182.6</ele>
        <time>2016-07-31T06:13:28Z</time>
      </trkpt>
      <trkpt lat="43.56685" lon="3.35318">
        <ele>182.8</ele>
        <time>2016-07-31T06:13:30Z</time>
      </trkpt>
      <trkpt lat="43.5668" lon="3.35309">
        <ele>183</ele>
        <time>2016-07-31T06:13:32Z</time>
      </trkpt>
      <trkpt lat="43.56676" lon="3.35301">
        <ele>183.1</ele>
        <time>2016-07-31T06:13:34Z</time>
      </trkpt>
      <trkpt lat="43.56672" lon="3.35292">
        <ele>183.1</ele>
        <time>2016-07-31T06:13:36Z</time>
      </trkpt>
      <trkpt lat="43.56667" lon="3.35281">
        <ele>183.2</ele>
        <time>2016-07-31T06:13:39Z</time>
      </trkpt>
      <trkpt lat="43.56663" lon="3.3527">
        <ele>183.4</ele>
        <time>2016-07-31T06:13:42Z</time>
      </trkpt>
      <trkpt lat="43.56658" lon="3.35258">
        <ele>183.7</ele>
        <time>2016-07-31T06:13:45Z</time>
      </trkpt>
      <trkpt lat="43.56653" lon="3.35246">
        <ele>183.9</ele>
        <time>2016-07-31T06:13:48Z</time>
      </trkpt>
      <trkpt lat="43.56647" lon="3.35234">
        <ele>184</ele>
        <time>2016-07-31T06:13:51Z</time>
      </trkpt>
      <trkpt lat="43.56642" lon="3.35225">
        <ele>184.3</ele>
        <time>2016-07-31T06:13:54Z</time>
      </trkpt>
      <trkpt lat="43.56633" lon="3.35218">
        <ele>184.4</ele>
        <time>2016-07-31T06:13:57Z</time>
      </trkpt>
      <trkpt lat="43.56626" lon="3.35215">
        <ele>184.7</ele>
        <time>2016-07-31T06:13:59Z</time>
      </trkpt>
      <trkpt lat="43.56616" lon="3.35213">
        <ele>184.3</ele>
        <time>2016-07-31T06:14:01Z</time>
      </trkpt>
      <trkpt lat="43.56604" lon="3.35209">
        <ele>183.4</ele>
        <time>2016-07-31T06:14:03Z</time>
      </trkpt>
      <trkpt lat="43.56591" lon="3.35207">
        <ele>182.5</ele>
        <time>2016-07-31T06:14:05Z</time>
      </trkpt>
      <trkpt lat="43.56578" lon="3.35206">
        <ele>182.1</ele>
        <time>2016-07-31T06:14:07Z</time>
      </trkpt>
      <trkpt lat="43.56565" lon="3.35204">
        <ele>181.9</ele>
        <time>2016-07-31T06:14:09Z</time>
      </trkpt>
      <trkpt lat="43.56554" lon="3.35213">
        <ele>181.3</ele>
        <time>2016-07-31T06:14:11Z</time>
      </trkpt>
      <trkpt lat="43.56546" lon="3.35223">
        <ele>180.8</ele>
        <time>2016-07-31T06:14:13Z</time>
      </trkpt>
      <trkpt lat="43.56537" lon="3.35225">
        <ele>180.6</ele>
        <time>2016-07-31T06:14:15Z</time>
      </trkpt>
      <trkpt lat="43.5653" lon="3.35222">
        <ele>180.5</ele>
        <time>2016-07-31T06:14:17Z</time>
      </trkpt>
      <trkpt lat="43.5652" lon="3.35225">
        <ele>180.4</ele>
        <time>2016-07-31T06:14:20Z</time>
      </trkpt>
      <trkpt lat="43.56512" lon="3.35234">
        <ele>179.4</ele>
        <time>2016-07-31T06:14:23Z</time>
      </trkpt>
      <trkpt lat="43.56506" lon="3.35245">
        <ele>179.3</ele>
        <time>2016-07-31T06:14:25Z</time>
      </trkpt>
      <trkpt lat="43.56498" lon="3.35255">
        <ele>178.3</ele>
        <time>2016-07-31T06:14:27Z</time>
      </trkpt>
      <trkpt lat="43.56489" lon="3.35265">
        <ele>178.4</ele>
        <time>2016-07-31T06:14:29Z</time>
      </trkpt>
      <trkpt lat="43.56485" lon="3.35276">
        <ele>178</ele>
        <time>2016-07-31T06:14:31Z</time>
      </trkpt>
      <trkpt lat="43.56483" lon="3.3529">
        <ele>177.6</ele>
        <time>2016-07-31T06:14:33Z</time>
      </trkpt>
      <trkpt lat="43.5648" lon="3.35304">
        <ele>176.8</ele>
        <time>2016-07-31T06:14:35Z</time>
      </trkpt>
      <trkpt lat="43.56478" lon="3.35315">
        <ele>176.7</ele>
        <time>2016-07-31T06:14:37Z</time>
      </trkpt>
      <trkpt lat="43.56472" lon="3.35304">
        <ele>175.7</ele>
        <time>2016-07-31T06:14:44Z</time>
      </trkpt>
      <trkpt lat="43.56469" lon="3.35295">
        <ele>174.1</ele>
        <time>2016-07-31T06:14:46Z</time>
      </trkpt>
      <trkpt lat="43.56466" lon="3.35282">
        <ele>172.6</ele>
        <time>2016-07-31T06:14:48Z</time>
      </trkpt>
      <trkpt lat="43.56461" lon="3.35269">
        <ele>171.4</ele>
        <time>2016-07-31T06:14:50Z</time>
      </trkpt>
      <trkpt lat="43.56456" lon="3.3526">
        <ele>171.3</ele>
        <time>2016-07-31T06:14:52Z</time>
      </trkpt>
      <trkpt lat="43.5645" lon="3.35248">
        <ele>170.2</ele>
        <time>2016-07-31T06:14:55Z</time>
      </trkpt>
      <trkpt lat="43.56445" lon="3.35236">
        <ele>170.1</ele>
        <time>2016-07-31T06:14:58Z</time>
      </trkpt>
      <trkpt lat="43.56439" lon="3.35225">
        <ele>170</ele>
        <time>2016-07-31T06:15:01Z</time>
      </trkpt>
      <trkpt lat="43.56434" lon="3.35212">
        <ele>169.8</ele>
        <time>2016-07-31T06:15:04Z</time>
      </trkpt>
      <trkpt lat="43.56431" lon="3.35198">
        <ele>169.8</ele>
        <time>2016-07-31T06:15:07Z</time>
      </trkpt>
      <trkpt lat="43.56429" lon="3.35185">
        <ele>169.7</ele>
        <time>2016-07-31T06:15:10Z</time>
      </trkpt>
      <trkpt lat="43.56426" lon="3.35172">
        <ele>169.7</ele>
        <time>2016-07-31T06:15:13Z</time>
      </trkpt>
      <trkpt lat="43.56423" lon="3.35159">
        <ele>169.7</ele>
        <time>2016-07-31T06:15:16Z</time>
      </trkpt>
      <trkpt lat="43.56419" lon="3.35147">
        <ele>169.7</ele>
        <time>2016-07-31T06:15:19Z</time>
      </trkpt>
      <trkpt lat="43.56417" lon="3.35136">
        <ele>169.8</ele>
        <time>2016-07-31T06:15:22Z</time>
      </trkpt>
      <trkpt lat="43.56412" lon="3.35124">
        <ele>169.9</ele>
        <time>2016-07-31T06:15:25Z</time>
      </trkpt>
      <trkpt lat="43.56409" lon="3.35112">
        <ele>169.8</ele>
        <time>2016-07-31T06:15:28Z</time>
      </trkpt>
      <trkpt lat="43.56405" lon="3.351">
        <ele>169.8</ele>
        <time>2016-07-31T06:15:31Z</time>
      </trkpt>
      <trkpt lat="43.564" lon="3.35088">
        <ele>169.7</ele>
        <time>2016-07-31T06:15:34Z</time>
      </trkpt>
      <trkpt lat="43.56395" lon="3.35075">
        <ele>169.7</ele>
        <time>2016-07-31T06:15:37Z</time>
      </trkpt>
      <trkpt lat="43.56391" lon="3.35063">
        <ele>169.8</ele>
        <time>2016-07-31T06:15:40Z</time>
      </trkpt>
      <trkpt lat="43.56388" lon="3.35051">
        <ele>169.9</ele>
        <time>2016-07-31T06:15:43Z</time>
      </trkpt>
      <trkpt lat="43.56387" lon="3.35039">
        <ele>170</ele>
        <time>2016-07-31T06:15:46Z</time>
      </trkpt>
      <trkpt lat="43.56391" lon="3.35029">
        <ele>170.3</ele>
        <time>2016-07-31T06:15:49Z</time>
      </trkpt>
      <trkpt lat="43.56398" lon="3.3502">
        <ele>170.6</ele>
        <time>2016-07-31T06:15:52Z</time>
      </trkpt>
      <trkpt lat="43.56407" lon="3.35012">
        <ele>170.8</ele>
        <time>2016-07-31T06:15:55Z</time>
      </trkpt>
      <trkpt lat="43.56415" lon="3.35005">
        <ele>170.9</ele>
        <time>2016-07-31T06:15:58Z</time>
      </trkpt>
      <trkpt lat="43.56417" lon="3.34992">
        <ele>171.1</ele>
        <time>2016-07-31T06:16:01Z</time>
      </trkpt>
      <trkpt lat="43.56412" lon="3.34978">
        <ele>171.4</ele>
        <time>2016-07-31T06:16:04Z</time>
      </trkpt>
      <trkpt lat="43.56407" lon="3.34968">
        <ele>172.8</ele>
        <time>2016-07-31T06:16:06Z</time>
      </trkpt>
      <trkpt lat="43.56402" lon="3.34959">
        <ele>173.7</ele>
        <time>2016-07-31T06:16:08Z</time>
      </trkpt>
      <trkpt lat="43.56397" lon="3.3495">
        <ele>174.2</ele>
        <time>2016-07-31T06:16:10Z</time>
      </trkpt>
      <trkpt lat="43.56391" lon="3.34941">
        <ele>174.4</ele>
        <time>2016-07-31T06:16:12Z</time>
      </trkpt>
      <trkpt lat="43.56385" lon="3.34932">
        <ele>174.5</ele>
        <time>2016-07-31T06:16:14Z</time>
      </trkpt>
      <trkpt lat="43.56379" lon="3.34922">
        <ele>174.7</ele>
        <time>2016-07-31T06:16:16Z</time>
      </trkpt>
      <trkpt lat="43.56373" lon="3.34911">
        <ele>174.7</ele>
        <time>2016-07-31T06:16:18Z</time>
      </trkpt>
      <trkpt lat="43.56367" lon="3.349">
        <ele>174.8</ele>
        <time>2016-07-31T06:16:20Z</time>
      </trkpt>
      <trkpt lat="43.56363" lon="3.34887">
        <ele>174.8</ele>
        <time>2016-07-31T06:16:22Z</time>
      </trkpt>
      <trkpt lat="43.56359" lon="3.34877">
        <ele>175.4</ele>
        <time>2016-07-31T06:16:24Z</time>
      </trkpt>
      <trkpt lat="43.56355" lon="3.34867">
        <ele>175.4</ele>
        <time>2016-07-31T06:16:26Z</time>
      </trkpt>
      <trkpt lat="43.56353" lon="3.34858">
        <ele>175.4</ele>
        <time>2016-07-31T06:16:28Z</time>
      </trkpt>
      <trkpt lat="43.5635" lon="3.34845">
        <ele>175.4</ele>
        <time>2016-07-31T06:16:31Z</time>
      </trkpt>
      <trkpt lat="43.56346" lon="3.34833">
        <ele>175.5</ele>
        <time>2016-07-31T06:16:34Z</time>
      </trkpt>
      <trkpt lat="43.56341" lon="3.34823">
        <ele>175.6</ele>
        <time>2016-07-31T06:16:37Z</time>
      </trkpt>
      <trkpt lat="43.56334" lon="3.34816">
        <ele>175.7</ele>
        <time>2016-07-31T06:16:40Z</time>
      </trkpt>
      <trkpt lat="43.56325" lon="3.34811">
        <ele>175.8</ele>
        <time>2016-07-31T06:16:43Z</time>
      </trkpt>
      <trkpt lat="43.56315" lon="3.34807">
        <ele>176.3</ele>
        <time>2016-07-31T06:16:46Z</time>
      </trkpt>
      <trkpt lat="43.56306" lon="3.34805">
        <ele>177</ele>
        <time>2016-07-31T06:16:48Z</time>
      </trkpt>
      <trkpt lat="43.56297" lon="3.34803">
        <ele>177.8</ele>
        <time>2016-07-31T06:16:50Z</time>
      </trkpt>
      <trkpt lat="43.56286" lon="3.348">
        <ele>178.5</ele>
        <time>2016-07-31T06:16:52Z</time>
      </trkpt>
      <trkpt lat="43.56276" lon="3.34797">
        <ele>179.1</ele>
        <time>2016-07-31T06:16:54Z</time>
      </trkpt>
      <trkpt lat="43.56265" lon="3.3479">
        <ele>179</ele>
        <time>2016-07-31T06:16:56Z</time>
      </trkpt>
      <trkpt lat="43.5626" lon="3.34776">
        <ele>177.8</ele>
        <time>2016-07-31T06:16:58Z</time>
      </trkpt>
      <trkpt lat="43.56259" lon="3.3476">
        <ele>176.2</ele>
        <time>2016-07-31T06:17:00Z</time>
      </trkpt>
      <trkpt lat="43.56256" lon="3.34745">
        <ele>175</ele>
        <time>2016-07-31T06:17:02Z</time>
      </trkpt>
      <trkpt lat="43.56252" lon="3.34729">
        <ele>174.4</ele>
        <time>2016-07-31T06:17:04Z</time>
      </trkpt>
      <trkpt lat="43.56248" lon="3.34716">
        <ele>173.2</ele>
        <time>2016-07-31T06:17:06Z</time>
      </trkpt>
      <trkpt lat="43.56247" lon="3.34704">
        <ele>172.6</ele>
        <time>2016-07-31T06:17:08Z</time>
      </trkpt>
      <trkpt lat="43.56247" lon="3.34691">
        <ele>172.7</ele>
        <time>2016-07-31T06:17:10Z</time>
      </trkpt>
      <trkpt lat="43.56248" lon="3.34678">
        <ele>172.9</ele>
        <time>2016-07-31T06:17:13Z</time>
      </trkpt>
      <trkpt lat="43.56248" lon="3.34665">
        <ele>172.9</ele>
        <time>2016-07-31T06:17:15Z</time>
      </trkpt>
      <trkpt lat="43.56246" lon="3.34654">
        <ele>172.7</ele>
        <time>2016-07-31T06:17:17Z</time>
      </trkpt>
      <trkpt lat="43.5624" lon="3.34644">
        <ele>172.7</ele>
        <time>2016-07-31T06:17:20Z</time>
      </trkpt>
      <trkpt lat="43.56233" lon="3.34635">
        <ele>173</ele>
        <time>2016-07-31T06:17:23Z</time>
      </trkpt>
      <trkpt lat="43.56224" lon="3.34628">
        <ele>173.3</ele>
        <time>2016-07-31T06:17:26Z</time>
      </trkpt>
      <trkpt lat="43.56217" lon="3.34622">
        <ele>173.6</ele>
        <time>2016-07-31T06:17:29Z</time>
      </trkpt>
      <trkpt lat="43.56212" lon="3.34613">
        <ele>173.8</ele>
        <time>2016-07-31T06:17:32Z</time>
      </trkpt>
      <trkpt lat="43.56207" lon="3.34601">
        <ele>174.2</ele>
        <time>2016-07-31T06:17:35Z</time>
      </trkpt>
      <trkpt lat="43.56202" lon="3.3459">
        <ele>174.6</ele>
        <time>2016-07-31T06:17:38Z</time>
      </trkpt>
      <trkpt lat="43.56201" lon="3.34578">
        <ele>175</ele>
        <time>2016-07-31T06:17:41Z</time>
      </trkpt>
      <trkpt lat="43.56199" lon="3.34565">
        <ele>175.4</ele>
        <time>2016-07-31T06:17:44Z</time>
      </trkpt>
      <trkpt lat="43.56197" lon="3.34555">
        <ele>175.8</ele>
        <time>2016-07-31T06:17:47Z</time>
      </trkpt>
      <trkpt lat="43.56196" lon="3.34542">
        <ele>176.2</ele>
        <time>2016-07-31T06:17:50Z</time>
      </trkpt>
      <trkpt lat="43.56196" lon="3.3453">
        <ele>176.7</ele>
        <time>2016-07-31T06:17:53Z</time>
      </trkpt>
      <trkpt lat="43.56197" lon="3.34519">
        <ele>177.2</ele>
        <time>2016-07-31T06:17:56Z</time>
      </trkpt>
      <trkpt lat="43.56198" lon="3.34505">
        <ele>177.6</ele>
        <time>2016-07-31T06:17:59Z</time>
      </trkpt>
      <trkpt lat="43.56199" lon="3.34495">
        <ele>178</ele>
        <time>2016-07-31T06:18:01Z</time>
      </trkpt>
      <trkpt lat="43.56199" lon="3.34484">
        <ele>178.2</ele>
        <time>2016-07-31T06:18:03Z</time>
      </trkpt>
      <trkpt lat="43.56201" lon="3.34474">
        <ele>180.6</ele>
        <time>2016-07-31T06:18:05Z</time>
      </trkpt>
      <trkpt lat="43.56202" lon="3.34463">
        <ele>181.5</ele>
        <time>2016-07-31T06:18:07Z</time>
      </trkpt>
      <trkpt lat="43.56204" lon="3.34452">
        <ele>182.1</ele>
        <time>2016-07-31T06:18:09Z</time>
      </trkpt>
      <trkpt lat="43.56205" lon="3.3444">
        <ele>182.1</ele>
        <time>2016-07-31T06:18:11Z</time>
      </trkpt>
      <trkpt lat="43.56206" lon="3.34428">
        <ele>182.3</ele>
        <time>2016-07-31T06:18:13Z</time>
      </trkpt>
      <trkpt lat="43.56206" lon="3.34415">
        <ele>181.5</ele>
        <time>2016-07-31T06:18:15Z</time>
      </trkpt>
      <trkpt lat="43.56205" lon="3.34403">
        <ele>180.8</ele>
        <time>2016-07-31T06:18:17Z</time>
      </trkpt>
      <trkpt lat="43.56204" lon="3.34391">
        <ele>180.7</ele>
        <time>2016-07-31T06:18:19Z</time>
      </trkpt>
      <trkpt lat="43.56204" lon="3.34378">
        <ele>180.5</ele>
        <time>2016-07-31T06:18:21Z</time>
      </trkpt>
      <trkpt lat="43.56204" lon="3.34364">
        <ele>180.5</ele>
        <time>2016-07-31T06:18:23Z</time>
      </trkpt>
      <trkpt lat="43.56205" lon="3.34351">
        <ele>180.6</ele>
        <time>2016-07-31T06:18:25Z</time>
      </trkpt>
      <trkpt lat="43.56205" lon="3.34338">
        <ele>181.5</ele>
        <time>2016-07-31T06:18:27Z</time>
      </trkpt>
      <trkpt lat="43.56204" lon="3.34326">
        <ele>182.9</ele>
        <time>2016-07-31T06:18:29Z</time>
      </trkpt>
      <trkpt lat="43.56203" lon="3.34314">
        <ele>183.6</ele>
        <time>2016-07-31T06:18:31Z</time>
      </trkpt>
      <trkpt lat="43.56202" lon="3.34301">
        <ele>183.9</ele>
        <time>2016-07-31T06:18:33Z</time>
      </trkpt>
      <trkpt lat="43.56201" lon="3.3429">
        <ele>184</ele>
        <time>2016-07-31T06:18:35Z</time>
      </trkpt>
      <trkpt lat="43.56199" lon="3.3428">
        <ele>183.9</ele>
        <time>2016-07-31T06:18:37Z</time>
      </trkpt>
      <trkpt lat="43.56197" lon="3.3427">
        <ele>184.3</ele>
        <time>2016-07-31T06:18:39Z</time>
      </trkpt>
      <trkpt lat="43.56195" lon="3.34254">
        <ele>185.4</ele>
        <time>2016-07-31T06:18:42Z</time>
      </trkpt>
      <trkpt lat="43.56192" lon="3.34243">
        <ele>185.5</ele>
        <time>2016-07-31T06:18:44Z</time>
      </trkpt>
      <trkpt lat="43.56191" lon="3.34228">
        <ele>185.5</ele>
        <time>2016-07-31T06:18:47Z</time>
      </trkpt>
      <trkpt lat="43.56191" lon="3.34216">
        <ele>185.7</ele>
        <time>2016-07-31T06:18:50Z</time>
      </trkpt>
      <trkpt lat="43.56194" lon="3.34203">
        <ele>185.9</ele>
        <time>2016-07-31T06:18:53Z</time>
      </trkpt>
      <trkpt lat="43.56198" lon="3.34189">
        <ele>186</ele>
        <time>2016-07-31T06:18:56Z</time>
      </trkpt>
      <trkpt lat="43.56201" lon="3.3418">
        <ele>186.1</ele>
        <time>2016-07-31T06:18:58Z</time>
      </trkpt>
      <trkpt lat="43.56204" lon="3.34169">
        <ele>186.1</ele>
        <time>2016-07-31T06:19:00Z</time>
      </trkpt>
      <trkpt lat="43.56209" lon="3.34159">
        <ele>186.2</ele>
        <time>2016-07-31T06:19:03Z</time>
      </trkpt>
      <trkpt lat="43.56214" lon="3.3415">
        <ele>186.4</ele>
        <time>2016-07-31T06:19:05Z</time>
      </trkpt>
      <trkpt lat="43.56221" lon="3.34139">
        <ele>186.8</ele>
        <time>2016-07-31T06:19:08Z</time>
      </trkpt>
      <trkpt lat="43.56226" lon="3.34131">
        <ele>186.9</ele>
        <time>2016-07-31T06:19:10Z</time>
      </trkpt>
      <trkpt lat="43.5623" lon="3.34123">
        <ele>187</ele>
        <time>2016-07-31T06:19:12Z</time>
      </trkpt>
      <trkpt lat="43.56237" lon="3.34111">
        <ele>187.1</ele>
        <time>2016-07-31T06:19:15Z</time>
      </trkpt>
      <trkpt lat="43.56242" lon="3.34103">
        <ele>187.2</ele>
        <time>2016-07-31T06:19:17Z</time>
      </trkpt>
      <trkpt lat="43.56249" lon="3.34093">
        <ele>187.5</ele>
        <time>2016-07-31T06:19:20Z</time>
      </trkpt>
      <trkpt lat="43.56255" lon="3.34086">
        <ele>187.7</ele>
        <time>2016-07-31T06:19:22Z</time>
      </trkpt>
      <trkpt lat="43.56264" lon="3.34078">
        <ele>188</ele>
        <time>2016-07-31T06:19:25Z</time>
      </trkpt>
      <trkpt lat="43.56272" lon="3.34069">
        <ele>188.4</ele>
        <time>2016-07-31T06:19:28Z</time>
      </trkpt>
      <trkpt lat="43.5628" lon="3.3406">
        <ele>188.8</ele>
        <time>2016-07-31T06:19:31Z</time>
      </trkpt>
      <trkpt lat="43.56288" lon="3.34052">
        <ele>189</ele>
        <time>2016-07-31T06:19:34Z</time>
      </trkpt>
      <trkpt lat="43.56296" lon="3.34042">
        <ele>189.6</ele>
        <time>2016-07-31T06:19:37Z</time>
      </trkpt>
      <trkpt lat="43.56301" lon="3.34034">
        <ele>190.7</ele>
        <time>2016-07-31T06:19:39Z</time>
      </trkpt>
      <trkpt lat="43.56309" lon="3.34024">
        <ele>191.2</ele>
        <time>2016-07-31T06:19:41Z</time>
      </trkpt>
      <trkpt lat="43.5632" lon="3.34019">
        <ele>191.4</ele>
        <time>2016-07-31T06:19:43Z</time>
      </trkpt>
      <trkpt lat="43.56333" lon="3.34019">
        <ele>191.5</ele>
        <time>2016-07-31T06:19:45Z</time>
      </trkpt>
      <trkpt lat="43.56343" lon="3.34023">
        <ele>191.9</ele>
        <time>2016-07-31T06:19:47Z</time>
      </trkpt>
      <trkpt lat="43.56354" lon="3.34024">
        <ele>191.7</ele>
        <time>2016-07-31T06:19:49Z</time>
      </trkpt>
      <trkpt lat="43.56367" lon="3.34022">
        <ele>191.6</ele>
        <time>2016-07-31T06:19:51Z</time>
      </trkpt>
      <trkpt lat="43.56379" lon="3.34015">
        <ele>190.9</ele>
        <time>2016-07-31T06:19:53Z</time>
      </trkpt>
      <trkpt lat="43.56387" lon="3.34003">
        <ele>191.1</ele>
        <time>2016-07-31T06:19:55Z</time>
      </trkpt>
      <trkpt lat="43.5639" lon="3.33989">
        <ele>191</ele>
        <time>2016-07-31T06:19:57Z</time>
      </trkpt>
      <trkpt lat="43.56391" lon="3.33973">
        <ele>190.8</ele>
        <time>2016-07-31T06:19:59Z</time>
      </trkpt>
      <trkpt lat="43.56391" lon="3.33958">
        <ele>190.5</ele>
        <time>2016-07-31T06:20:01Z</time>
      </trkpt>
      <trkpt lat="43.56391" lon="3.33944">
        <ele>189.7</ele>
        <time>2016-07-31T06:20:03Z</time>
      </trkpt>
      <trkpt lat="43.5639" lon="3.3393">
        <ele>189.6</ele>
        <time>2016-07-31T06:20:05Z</time>
      </trkpt>
      <trkpt lat="43.56389" lon="3.33916">
        <ele>189.3</ele>
        <time>2016-07-31T06:20:07Z</time>
      </trkpt>
      <trkpt lat="43.56387" lon="3.33901">
        <ele>189.7</ele>
        <time>2016-07-31T06:20:09Z</time>
      </trkpt>
      <trkpt lat="43.56385" lon="3.33887">
        <ele>190.3</ele>
        <time>2016-07-31T06:20:11Z</time>
      </trkpt>
      <trkpt lat="43.56383" lon="3.33873">
        <ele>190.7</ele>
        <time>2016-07-31T06:20:13Z</time>
      </trkpt>
      <trkpt lat="43.56382" lon="3.33859">
        <ele>190.8</ele>
        <time>2016-07-31T06:20:15Z</time>
      </trkpt>
      <trkpt lat="43.56384" lon="3.33846">
        <ele>191.2</ele>
        <time>2016-07-31T06:20:17Z</time>
      </trkpt>
      <trkpt lat="43.56389" lon="3.33835">
        <ele>191.4</ele>
        <time>2016-07-31T06:20:19Z</time>
      </trkpt>
      <trkpt lat="43.56396" lon="3.33826">
        <ele>191.6</ele>
        <time>2016-07-31T06:20:21Z</time>
      </trkpt>
      <trkpt lat="43.56404" lon="3.33818">
        <ele>191.3</ele>
        <time>2016-07-31T06:20:23Z</time>
      </trkpt>
      <trkpt lat="43.56412" lon="3.33811">
        <ele>191.5</ele>
        <time>2016-07-31T06:20:25Z</time>
      </trkpt>
      <trkpt lat="43.56422" lon="3.33805">
        <ele>191.9</ele>
        <time>2016-07-31T06:20:27Z</time>
      </trkpt>
      <trkpt lat="43.56432" lon="3.33803">
        <ele>192.5</ele>
        <time>2016-07-31T06:20:29Z</time>
      </trkpt>
      <trkpt lat="43.56442" lon="3.33803">
        <ele>193.1</ele>
        <time>2016-07-31T06:20:31Z</time>
      </trkpt>
      <trkpt lat="43.56453" lon="3.33803">
        <ele>193.8</ele>
        <time>2016-07-31T06:20:33Z</time>
      </trkpt>
      <trkpt lat="43.56461" lon="3.33803">
        <ele>194.6</ele>
        <time>2016-07-31T06:20:35Z</time>
      </trkpt>
      <trkpt lat="43.56469" lon="3.33799">
        <ele>195.2</ele>
        <time>2016-07-31T06:20:37Z</time>
      </trkpt>
      <trkpt lat="43.56478" lon="3.33792">
        <ele>194.5</ele>
        <time>2016-07-31T06:20:40Z</time>
      </trkpt>
      <trkpt lat="43.56486" lon="3.33788">
        <ele>193.6</ele>
        <time>2016-07-31T06:20:42Z</time>
      </trkpt>
      <trkpt lat="43.56493" lon="3.33782">
        <ele>193.3</ele>
        <time>2016-07-31T06:20:44Z</time>
      </trkpt>
      <trkpt lat="43.56499" lon="3.33776">
        <ele>193.3</ele>
        <time>2016-07-31T06:20:46Z</time>
      </trkpt>
      <trkpt lat="43.56505" lon="3.33769">
        <ele>193.5</ele>
        <time>2016-07-31T06:20:48Z</time>
      </trkpt>
      <trkpt lat="43.56512" lon="3.33761">
        <ele>194.2</ele>
        <time>2016-07-31T06:20:50Z</time>
      </trkpt>
      <trkpt lat="43.56518" lon="3.33754">
        <ele>195.1</ele>
        <time>2016-07-31T06:20:52Z</time>
      </trkpt>
      <trkpt lat="43.56523" lon="3.33747">
        <ele>195.7</ele>
        <time>2016-07-31T06:20:54Z</time>
      </trkpt>
      <trkpt lat="43.56528" lon="3.33738">
        <ele>196.2</ele>
        <time>2016-07-31T06:20:56Z</time>
      </trkpt>
      <trkpt lat="43.56531" lon="3.33728">
        <ele>196.2</ele>
        <time>2016-07-31T06:20:58Z</time>
      </trkpt>
      <trkpt lat="43.56532" lon="3.33717">
        <ele>196.3</ele>
        <time>2016-07-31T06:21:00Z</time>
      </trkpt>
      <trkpt lat="43.5653" lon="3.33705">
        <ele>196.3</ele>
        <time>2016-07-31T06:21:02Z</time>
      </trkpt>
      <trkpt lat="43.56526" lon="3.33691">
        <ele>196.5</ele>
        <time>2016-07-31T06:21:05Z</time>
      </trkpt>
      <trkpt lat="43.56523" lon="3.33679">
        <ele>196.8</ele>
        <time>2016-07-31T06:21:08Z</time>
      </trkpt>
      <trkpt lat="43.5652" lon="3.33669">
        <ele>196.9</ele>
        <time>2016-07-31T06:21:10Z</time>
      </trkpt>
      <trkpt lat="43.56516" lon="3.33656">
        <ele>197.3</ele>
        <time>2016-07-31T06:21:13Z</time>
      </trkpt>
      <trkpt lat="43.56513" lon="3.33646">
        <ele>197.5</ele>
        <time>2016-07-31T06:21:15Z</time>
      </trkpt>
      <trkpt lat="43.56509" lon="3.33633">
        <ele>197.8</ele>
        <time>2016-07-31T06:21:18Z</time>
      </trkpt>
      <trkpt lat="43.56504" lon="3.33621">
        <ele>198.2</ele>
        <time>2016-07-31T06:21:21Z</time>
      </trkpt>
      <trkpt lat="43.565" lon="3.33611">
        <ele>198.4</ele>
        <time>2016-07-31T06:21:23Z</time>
      </trkpt>
      <trkpt lat="43.56494" lon="3.33599">
        <ele>200</ele>
        <time>2016-07-31T06:21:26Z</time>
      </trkpt>
      <trkpt lat="43.56487" lon="3.33588">
        <ele>201.2</ele>
        <time>2016-07-31T06:21:29Z</time>
      </trkpt>
      <trkpt lat="43.5648" lon="3.33578">
        <ele>201.3</ele>
        <time>2016-07-31T06:21:32Z</time>
      </trkpt>
      <trkpt lat="43.56474" lon="3.33566">
        <ele>201.5</ele>
        <time>2016-07-31T06:21:35Z</time>
      </trkpt>
      <trkpt lat="43.56471" lon="3.33557">
        <ele>201.7</ele>
        <time>2016-07-31T06:21:37Z</time>
      </trkpt>
      <trkpt lat="43.56467" lon="3.33545">
        <ele>201.9</ele>
        <time>2016-07-31T06:21:40Z</time>
      </trkpt>
      <trkpt lat="43.56464" lon="3.33535">
        <ele>202.1</ele>
        <time>2016-07-31T06:21:42Z</time>
      </trkpt>
      <trkpt lat="43.56459" lon="3.33522">
        <ele>202.6</ele>
        <time>2016-07-31T06:21:45Z</time>
      </trkpt>
      <trkpt lat="43.56454" lon="3.33512">
        <ele>202.9</ele>
        <time>2016-07-31T06:21:47Z</time>
      </trkpt>
      <trkpt lat="43.56447" lon="3.33502">
        <ele>203.3</ele>
        <time>2016-07-31T06:21:50Z</time>
      </trkpt>
      <trkpt lat="43.5644" lon="3.33491">
        <ele>203.7</ele>
        <time>2016-07-31T06:21:53Z</time>
      </trkpt>
      <trkpt lat="43.56433" lon="3.33482">
        <ele>204.1</ele>
        <time>2016-07-31T06:21:56Z</time>
      </trkpt>
      <trkpt lat="43.56426" lon="3.33471">
        <ele>205.8</ele>
        <time>2016-07-31T06:21:59Z</time>
      </trkpt>
      <trkpt lat="43.56419" lon="3.33459">
        <ele>207.5</ele>
        <time>2016-07-31T06:22:01Z</time>
      </trkpt>
      <trkpt lat="43.56411" lon="3.33444">
        <ele>207.4</ele>
        <time>2016-07-31T06:22:03Z</time>
      </trkpt>
      <trkpt lat="43.56407" lon="3.33436">
        <ele>207.9</ele>
        <time>2016-07-31T06:22:04Z</time>
      </trkpt>
      <trkpt lat="43.56402" lon="3.33428">
        <ele>208.1</ele>
        <time>2016-07-31T06:22:05Z</time>
      </trkpt>
      <trkpt lat="43.56393" lon="3.33414">
        <ele>209</ele>
        <time>2016-07-31T06:22:07Z</time>
      </trkpt>
      <trkpt lat="43.56388" lon="3.33406">
        <ele>209.5</ele>
        <time>2016-07-31T06:22:08Z</time>
      </trkpt>
      <trkpt lat="43.5638" lon="3.33391">
        <ele>209.2</ele>
        <time>2016-07-31T06:22:10Z</time>
      </trkpt>
      <trkpt lat="43.56372" lon="3.33378">
        <ele>208.8</ele>
        <time>2016-07-31T06:22:12Z</time>
      </trkpt>
      <trkpt lat="43.56366" lon="3.33362">
        <ele>208</ele>
        <time>2016-07-31T06:22:14Z</time>
      </trkpt>
      <trkpt lat="43.5636" lon="3.33348">
        <ele>207.5</ele>
        <time>2016-07-31T06:22:16Z</time>
      </trkpt>
      <trkpt lat="43.56356" lon="3.33333">
        <ele>207.6</ele>
        <time>2016-07-31T06:22:18Z</time>
      </trkpt>
      <trkpt lat="43.56352" lon="3.33321">
        <ele>206.7</ele>
        <time>2016-07-31T06:22:20Z</time>
      </trkpt>
      <trkpt lat="43.56347" lon="3.33311">
        <ele>206.1</ele>
        <time>2016-07-31T06:22:22Z</time>
      </trkpt>
      <trkpt lat="43.56343" lon="3.33301">
        <ele>207.7</ele>
        <time>2016-07-31T06:22:24Z</time>
      </trkpt>
      <trkpt lat="43.56338" lon="3.33291">
        <ele>210.1</ele>
        <time>2016-07-31T06:22:26Z</time>
      </trkpt>
      <trkpt lat="43.56333" lon="3.33279">
        <ele>211.2</ele>
        <time>2016-07-31T06:22:28Z</time>
      </trkpt>
      <trkpt lat="43.56329" lon="3.33267">
        <ele>211.5</ele>
        <time>2016-07-31T06:22:30Z</time>
      </trkpt>
      <trkpt lat="43.56325" lon="3.33256">
        <ele>211.3</ele>
        <time>2016-07-31T06:22:32Z</time>
      </trkpt>
      <trkpt lat="43.5632" lon="3.33244">
        <ele>212.1</ele>
        <time>2016-07-31T06:22:34Z</time>
      </trkpt>
      <trkpt lat="43.56317" lon="3.33232">
        <ele>213.4</ele>
        <time>2016-07-31T06:22:36Z</time>
      </trkpt>
      <trkpt lat="43.56313" lon="3.33219">
        <ele>214.5</ele>
        <time>2016-07-31T06:22:38Z</time>
      </trkpt>
      <trkpt lat="43.56311" lon="3.33206">
        <ele>215.1</ele>
        <time>2016-07-31T06:22:40Z</time>
      </trkpt>
      <trkpt lat="43.5631" lon="3.33193">
        <ele>214.4</ele>
        <time>2016-07-31T06:22:42Z</time>
      </trkpt>
      <trkpt lat="43.56309" lon="3.33182">
        <ele>213.6</ele>
        <time>2016-07-31T06:22:44Z</time>
      </trkpt>
      <trkpt lat="43.56307" lon="3.3317">
        <ele>213.1</ele>
        <time>2016-07-31T06:22:46Z</time>
      </trkpt>
      <trkpt lat="43.56306" lon="3.33157">
        <ele>213.5</ele>
        <time>2016-07-31T06:22:48Z</time>
      </trkpt>
      <trkpt lat="43.56303" lon="3.33145">
        <ele>213.9</ele>
        <time>2016-07-31T06:22:50Z</time>
      </trkpt>
      <trkpt lat="43.56301" lon="3.33132">
        <ele>213.8</ele>
        <time>2016-07-31T06:22:52Z</time>
      </trkpt>
      <trkpt lat="43.56298" lon="3.33122">
        <ele>213.8</ele>
        <time>2016-07-31T06:22:54Z</time>
      </trkpt>
      <trkpt lat="43.56297" lon="3.33107">
        <ele>213.8</ele>
        <time>2016-07-31T06:22:57Z</time>
      </trkpt>
      <trkpt lat="43.56296" lon="3.33096">
        <ele>213.6</ele>
        <time>2016-07-31T06:22:59Z</time>
      </trkpt>
      <trkpt lat="43.56295" lon="3.33086">
        <ele>213.6</ele>
        <time>2016-07-31T06:23:01Z</time>
      </trkpt>
      <trkpt lat="43.56295" lon="3.33075">
        <ele>213.7</ele>
        <time>2016-07-31T06:23:03Z</time>
      </trkpt>
      <trkpt lat="43.56297" lon="3.3306">
        <ele>213.4</ele>
        <time>2016-07-31T06:23:06Z</time>
      </trkpt>
      <trkpt lat="43.56299" lon="3.33049">
        <ele>212.9</ele>
        <time>2016-07-31T06:23:08Z</time>
      </trkpt>
      <trkpt lat="43.56301" lon="3.33038">
        <ele>213</ele>
        <time>2016-07-31T06:23:10Z</time>
      </trkpt>
      <trkpt lat="43.56303" lon="3.33027">
        <ele>213</ele>
        <time>2016-07-31T06:23:12Z</time>
      </trkpt>
      <trkpt lat="43.56304" lon="3.33015">
        <ele>213</ele>
        <time>2016-07-31T06:23:15Z</time>
      </trkpt>
      <trkpt lat="43.56301" lon="3.32999">
        <ele>213</ele>
        <time>2016-07-31T06:23:18Z</time>
      </trkpt>
      <trkpt lat="43.56297" lon="3.32988">
        <ele>212.3</ele>
        <time>2016-07-31T06:23:20Z</time>
      </trkpt>
      <trkpt lat="43.5629" lon="3.32978">
        <ele>211.9</ele>
        <time>2016-07-31T06:23:22Z</time>
      </trkpt>
      <trkpt lat="43.56281" lon="3.32971">
        <ele>211.2</ele>
        <time>2016-07-31T06:23:24Z</time>
      </trkpt>
      <trkpt lat="43.56271" lon="3.32968">
        <ele>210.6</ele>
        <time>2016-07-31T06:23:26Z</time>
      </trkpt>
      <trkpt lat="43.56263" lon="3.32959">
        <ele>210.6</ele>
        <time>2016-07-31T06:23:28Z</time>
      </trkpt>
      <trkpt lat="43.56262" lon="3.32949">
        <ele>210.6</ele>
        <time>2016-07-31T06:23:31Z</time>
      </trkpt>
      <trkpt lat="43.56263" lon="3.32936">
        <ele>210.6</ele>
        <time>2016-07-31T06:23:34Z</time>
      </trkpt>
      <trkpt lat="43.56264" lon="3.32923">
        <ele>210.7</ele>
        <time>2016-07-31T06:23:37Z</time>
      </trkpt>
      <trkpt lat="43.56265" lon="3.3291">
        <ele>210.9</ele>
        <time>2016-07-31T06:23:40Z</time>
      </trkpt>
      <trkpt lat="43.56265" lon="3.32898">
        <ele>211.2</ele>
        <time>2016-07-31T06:23:43Z</time>
      </trkpt>
      <trkpt lat="43.56265" lon="3.32885">
        <ele>211.5</ele>
        <time>2016-07-31T06:23:46Z</time>
      </trkpt>
      <trkpt lat="43.56263" lon="3.32872">
        <ele>211.7</ele>
        <time>2016-07-31T06:23:49Z</time>
      </trkpt>
      <trkpt lat="43.5626" lon="3.32862">
        <ele>212</ele>
        <time>2016-07-31T06:23:52Z</time>
      </trkpt>
      <trkpt lat="43.56259" lon="3.3285">
        <ele>212.4</ele>
        <time>2016-07-31T06:23:55Z</time>
      </trkpt>
      <trkpt lat="43.56259" lon="3.32837">
        <ele>212.6</ele>
        <time>2016-07-31T06:23:58Z</time>
      </trkpt>
      <trkpt lat="43.56259" lon="3.32824">
        <ele>212.9</ele>
        <time>2016-07-31T06:24:01Z</time>
      </trkpt>
      <trkpt lat="43.56259" lon="3.32812">
        <ele>213.2</ele>
        <time>2016-07-31T06:24:04Z</time>
      </trkpt>
      <trkpt lat="43.5626" lon="3.328">
        <ele>213.6</ele>
        <time>2016-07-31T06:24:07Z</time>
      </trkpt>
      <trkpt lat="43.56264" lon="3.32791">
        <ele>213.8</ele>
        <time>2016-07-31T06:24:10Z</time>
      </trkpt>
      <trkpt lat="43.5627" lon="3.32781">
        <ele>213.9</ele>
        <time>2016-07-31T06:24:13Z</time>
      </trkpt>
      <trkpt lat="43.56275" lon="3.32769">
        <ele>214.1</ele>
        <time>2016-07-31T06:24:16Z</time>
      </trkpt>
      <trkpt lat="43.56276" lon="3.32754">
        <ele>214.3</ele>
        <time>2016-07-31T06:24:19Z</time>
      </trkpt>
      <trkpt lat="43.56276" lon="3.32741">
        <ele>214.5</ele>
        <time>2016-07-31T06:24:22Z</time>
      </trkpt>
      <trkpt lat="43.56274" lon="3.32731">
        <ele>214.7</ele>
        <time>2016-07-31T06:24:25Z</time>
      </trkpt>
      <trkpt lat="43.56273" lon="3.32719">
        <ele>214.9</ele>
        <time>2016-07-31T06:24:28Z</time>
      </trkpt>
      <trkpt lat="43.56273" lon="3.32707">
        <ele>215.2</ele>
        <time>2016-07-31T06:24:31Z</time>
      </trkpt>
      <trkpt lat="43.56273" lon="3.32694">
        <ele>215.6</ele>
        <time>2016-07-31T06:24:34Z</time>
      </trkpt>
      <trkpt lat="43.56273" lon="3.32683">
        <ele>216</ele>
        <time>2016-07-31T06:24:37Z</time>
      </trkpt>
      <trkpt lat="43.56273" lon="3.32672">
        <ele>216.5</ele>
        <time>2016-07-31T06:24:40Z</time>
      </trkpt>
      <trkpt lat="43.56273" lon="3.3266">
        <ele>217</ele>
        <time>2016-07-31T06:24:43Z</time>
      </trkpt>
      <trkpt lat="43.56272" lon="3.3265">
        <ele>217.5</ele>
        <time>2016-07-31T06:24:46Z</time>
      </trkpt>
      <trkpt lat="43.56271" lon="3.3264">
        <ele>218.1</ele>
        <time>2016-07-31T06:24:49Z</time>
      </trkpt>
      <trkpt lat="43.5627" lon="3.32628">
        <ele>218.6</ele>
        <time>2016-07-31T06:24:52Z</time>
      </trkpt>
      <trkpt lat="43.5627" lon="3.32616">
        <ele>219.1</ele>
        <time>2016-07-31T06:24:55Z</time>
      </trkpt>
      <trkpt lat="43.56269" lon="3.32606">
        <ele>219.7</ele>
        <time>2016-07-31T06:24:58Z</time>
      </trkpt>
      <trkpt lat="43.56268" lon="3.32593">
        <ele>220.4</ele>
        <time>2016-07-31T06:25:02Z</time>
      </trkpt>
      <trkpt lat="43.56267" lon="3.32582">
        <ele>220.8</ele>
        <time>2016-07-31T06:25:05Z</time>
      </trkpt>
      <trkpt lat="43.56265" lon="3.32569">
        <ele>221.1</ele>
        <time>2016-07-31T06:25:08Z</time>
      </trkpt>
      <trkpt lat="43.56263" lon="3.32559">
        <ele>221.5</ele>
        <time>2016-07-31T06:25:11Z</time>
      </trkpt>
      <trkpt lat="43.56262" lon="3.32546">
        <ele>222</ele>
        <time>2016-07-31T06:25:14Z</time>
      </trkpt>
      <trkpt lat="43.56262" lon="3.32536">
        <ele>222.3</ele>
        <time>2016-07-31T06:25:16Z</time>
      </trkpt>
      <trkpt lat="43.56263" lon="3.32523">
        <ele>222.5</ele>
        <time>2016-07-31T06:25:19Z</time>
      </trkpt>
      <trkpt lat="43.56264" lon="3.32511">
        <ele>222.9</ele>
        <time>2016-07-31T06:25:22Z</time>
      </trkpt>
      <trkpt lat="43.56265" lon="3.32499">
        <ele>223.3</ele>
        <time>2016-07-31T06:25:25Z</time>
      </trkpt>
      <trkpt lat="43.56266" lon="3.32488">
        <ele>223.5</ele>
        <time>2016-07-31T06:25:28Z</time>
      </trkpt>
      <trkpt lat="43.56266" lon="3.32478">
        <ele>223.8</ele>
        <time>2016-07-31T06:25:31Z</time>
      </trkpt>
      <trkpt lat="43.56267" lon="3.32464">
        <ele>224.4</ele>
        <time>2016-07-31T06:25:35Z</time>
      </trkpt>
      <trkpt lat="43.56268" lon="3.32451">
        <ele>224.8</ele>
        <time>2016-07-31T06:25:38Z</time>
      </trkpt>
      <trkpt lat="43.56268" lon="3.3244">
        <ele>225.2</ele>
        <time>2016-07-31T06:25:41Z</time>
      </trkpt>
      <trkpt lat="43.5627" lon="3.32427">
        <ele>225.5</ele>
        <time>2016-07-31T06:25:44Z</time>
      </trkpt>
      <trkpt lat="43.56273" lon="3.32415">
        <ele>225.7</ele>
        <time>2016-07-31T06:25:47Z</time>
      </trkpt>
      <trkpt lat="43.56275" lon="3.32405">
        <ele>226</ele>
        <time>2016-07-31T06:25:50Z</time>
      </trkpt>
      <trkpt lat="43.56277" lon="3.32395">
        <ele>226.3</ele>
        <time>2016-07-31T06:25:52Z</time>
      </trkpt>
      <trkpt lat="43.56279" lon="3.32382">
        <ele>226.5</ele>
        <time>2016-07-31T06:25:55Z</time>
      </trkpt>
      <trkpt lat="43.56279" lon="3.32368">
        <ele>227</ele>
        <time>2016-07-31T06:25:59Z</time>
      </trkpt>
      <trkpt lat="43.56272" lon="3.32366">
        <ele>227.5</ele>
        <time>2016-07-31T06:26:04Z</time>
      </trkpt>
      <trkpt lat="43.56268" lon="3.32376">
        <ele>227.8</ele>
        <time>2016-07-31T06:26:07Z</time>
      </trkpt>
      <trkpt lat="43.56264" lon="3.32384">
        <ele>228.2</ele>
        <time>2016-07-31T06:26:10Z</time>
      </trkpt>
      <trkpt lat="43.5626" lon="3.32395">
        <ele>228.6</ele>
        <time>2016-07-31T06:26:14Z</time>
      </trkpt>
      <trkpt lat="43.56257" lon="3.32404">
        <ele>228.9</ele>
        <time>2016-07-31T06:26:17Z</time>
      </trkpt>
      <trkpt lat="43.56253" lon="3.32415">
        <ele>229.4</ele>
        <time>2016-07-31T06:26:20Z</time>
      </trkpt>
      <trkpt lat="43.5625" lon="3.32425">
        <ele>229.8</ele>
        <time>2016-07-31T06:26:23Z</time>
      </trkpt>
      <trkpt lat="43.56247" lon="3.32436">
        <ele>230.3</ele>
        <time>2016-07-31T06:26:26Z</time>
      </trkpt>
      <trkpt lat="43.56245" lon="3.32447">
        <ele>230.7</ele>
        <time>2016-07-31T06:26:29Z</time>
      </trkpt>
      <trkpt lat="43.56244" lon="3.32458">
        <ele>231</ele>
        <time>2016-07-31T06:26:32Z</time>
      </trkpt>
      <trkpt lat="43.56242" lon="3.32468">
        <ele>231.3</ele>
        <time>2016-07-31T06:26:35Z</time>
      </trkpt>
      <trkpt lat="43.56239" lon="3.32478">
        <ele>231.5</ele>
        <time>2016-07-31T06:26:38Z</time>
      </trkpt>
      <trkpt lat="43.56236" lon="3.3249">
        <ele>231.7</ele>
        <time>2016-07-31T06:26:41Z</time>
      </trkpt>
      <trkpt lat="43.56233" lon="3.32499">
        <ele>232</ele>
        <time>2016-07-31T06:26:44Z</time>
      </trkpt>
      <trkpt lat="43.56229" lon="3.32508">
        <ele>232.5</ele>
        <time>2016-07-31T06:26:48Z</time>
      </trkpt>
      <trkpt lat="43.56222" lon="3.32519">
        <ele>233.1</ele>
        <time>2016-07-31T06:26:52Z</time>
      </trkpt>
      <trkpt lat="43.56215" lon="3.32528">
        <ele>233.6</ele>
        <time>2016-07-31T06:26:55Z</time>
      </trkpt>
      <trkpt lat="43.56208" lon="3.32528">
        <ele>234</ele>
        <time>2016-07-31T06:26:58Z</time>
      </trkpt>
      <trkpt lat="43.56207" lon="3.32518">
        <ele>234.7</ele>
        <time>2016-07-31T06:27:02Z</time>
      </trkpt>
      <trkpt lat="43.56213" lon="3.32509">
        <ele>235.5</ele>
        <time>2016-07-31T06:27:06Z</time>
      </trkpt>
      <trkpt lat="43.56217" lon="3.32498">
        <ele>236.2</ele>
        <time>2016-07-31T06:27:10Z</time>
      </trkpt>
      <trkpt lat="43.56219" lon="3.32488">
        <ele>236.6</ele>
        <time>2016-07-31T06:27:13Z</time>
      </trkpt>
      <trkpt lat="43.56221" lon="3.32477">
        <ele>237.2</ele>
        <time>2016-07-31T06:27:17Z</time>
      </trkpt>
      <trkpt lat="43.56222" lon="3.32467">
        <ele>237.6</ele>
        <time>2016-07-31T06:27:20Z</time>
      </trkpt>
      <trkpt lat="43.56222" lon="3.32455">
        <ele>238.4</ele>
        <time>2016-07-31T06:27:24Z</time>
      </trkpt>
      <trkpt lat="43.56222" lon="3.32445">
        <ele>239</ele>
        <time>2016-07-31T06:27:27Z</time>
      </trkpt>
      <trkpt lat="43.56221" lon="3.32431">
        <ele>239.7</ele>
        <time>2016-07-31T06:27:31Z</time>
      </trkpt>
      <trkpt lat="43.56221" lon="3.32419">
        <ele>240.4</ele>
        <time>2016-07-31T06:27:35Z</time>
      </trkpt>
      <trkpt lat="43.56221" lon="3.32407">
        <ele>241.2</ele>
        <time>2016-07-31T06:27:39Z</time>
      </trkpt>
      <trkpt lat="43.56221" lon="3.32395">
        <ele>242.1</ele>
        <time>2016-07-31T06:27:43Z</time>
      </trkpt>
      <trkpt lat="43.56221" lon="3.32382">
        <ele>242.8</ele>
        <time>2016-07-31T06:27:47Z</time>
      </trkpt>
      <trkpt lat="43.56219" lon="3.32372">
        <ele>243.5</ele>
        <time>2016-07-31T06:27:51Z</time>
      </trkpt>
      <trkpt lat="43.56211" lon="3.32373">
        <ele>244.1</ele>
        <time>2016-07-31T06:27:55Z</time>
      </trkpt>
      <trkpt lat="43.56208" lon="3.32384">
        <ele>244.7</ele>
        <time>2016-07-31T06:27:59Z</time>
      </trkpt>
      <trkpt lat="43.56205" lon="3.32396">
        <ele>245.3</ele>
        <time>2016-07-31T06:28:03Z</time>
      </trkpt>
      <trkpt lat="43.56203" lon="3.32408">
        <ele>246.1</ele>
        <time>2016-07-31T06:28:07Z</time>
      </trkpt>
      <trkpt lat="43.56201" lon="3.32419">
        <ele>246.7</ele>
        <time>2016-07-31T06:28:11Z</time>
      </trkpt>
      <trkpt lat="43.56198" lon="3.32429">
        <ele>247.5</ele>
        <time>2016-07-31T06:28:15Z</time>
      </trkpt>
      <trkpt lat="43.56195" lon="3.32441">
        <ele>248.2</ele>
        <time>2016-07-31T06:28:19Z</time>
      </trkpt>
      <trkpt lat="43.56192" lon="3.32452">
        <ele>248.9</ele>
        <time>2016-07-31T06:28:23Z</time>
      </trkpt>
      <trkpt lat="43.5619" lon="3.32463">
        <ele>249.6</ele>
        <time>2016-07-31T06:28:27Z</time>
      </trkpt>
      <trkpt lat="43.56186" lon="3.32473">
        <ele>250.2</ele>
        <time>2016-07-31T06:28:31Z</time>
      </trkpt>
      <trkpt lat="43.56181" lon="3.32483">
        <ele>251</ele>
        <time>2016-07-31T06:28:35Z</time>
      </trkpt>
      <trkpt lat="43.56175" lon="3.32492">
        <ele>251.9</ele>
        <time>2016-07-31T06:28:39Z</time>
      </trkpt>
      <trkpt lat="43.5617" lon="3.32502">
        <ele>252.6</ele>
        <time>2016-07-31T06:28:43Z</time>
      </trkpt>
      <trkpt lat="43.56163" lon="3.32511">
        <ele>253.3</ele>
        <time>2016-07-31T06:28:47Z</time>
      </trkpt>
      <trkpt lat="43.56158" lon="3.32519">
        <ele>253.8</ele>
        <time>2016-07-31T06:28:50Z</time>
      </trkpt>
      <trkpt lat="43.56153" lon="3.32529">
        <ele>254.6</ele>
        <time>2016-07-31T06:28:54Z</time>
      </trkpt>
      <trkpt lat="43.56147" lon="3.32539">
        <ele>255.4</ele>
        <time>2016-07-31T06:28:58Z</time>
      </trkpt>
      <trkpt lat="43.56142" lon="3.32549">
        <ele>256.1</ele>
        <time>2016-07-31T06:29:02Z</time>
      </trkpt>
      <trkpt lat="43.56136" lon="3.32557">
        <ele>256.9</ele>
        <time>2016-07-31T06:29:06Z</time>
      </trkpt>
      <trkpt lat="43.56131" lon="3.32565">
        <ele>257.4</ele>
        <time>2016-07-31T06:29:09Z</time>
      </trkpt>
      <trkpt lat="43.56126" lon="3.32573">
        <ele>257.9</ele>
        <time>2016-07-31T06:29:12Z</time>
      </trkpt>
      <trkpt lat="43.56121" lon="3.32581">
        <ele>258.6</ele>
        <time>2016-07-31T06:29:16Z</time>
      </trkpt>
      <trkpt lat="43.56113" lon="3.32589">
        <ele>259.4</ele>
        <time>2016-07-31T06:29:20Z</time>
      </trkpt>
      <trkpt lat="43.56106" lon="3.32596">
        <ele>260.1</ele>
        <time>2016-07-31T06:29:24Z</time>
      </trkpt>
      <trkpt lat="43.56098" lon="3.326">
        <ele>260.6</ele>
        <time>2016-07-31T06:29:28Z</time>
      </trkpt>
      <trkpt lat="43.5609" lon="3.32605">
        <ele>261.3</ele>
        <time>2016-07-31T06:29:32Z</time>
      </trkpt>
      <trkpt lat="43.5608" lon="3.32608">
        <ele>262</ele>
        <time>2016-07-31T06:29:36Z</time>
      </trkpt>
      <trkpt lat="43.56073" lon="3.32611">
        <ele>262.6</ele>
        <time>2016-07-31T06:29:40Z</time>
      </trkpt>
      <trkpt lat="43.56066" lon="3.32615">
        <ele>263.3</ele>
        <time>2016-07-31T06:29:44Z</time>
      </trkpt>
      <trkpt lat="43.56056" lon="3.3262">
        <ele>264</ele>
        <time>2016-07-31T06:29:48Z</time>
      </trkpt>
      <trkpt lat="43.56048" lon="3.32625">
        <ele>264.6</ele>
        <time>2016-07-31T06:29:52Z</time>
      </trkpt>
      <trkpt lat="43.56042" lon="3.3263">
        <ele>265.1</ele>
        <time>2016-07-31T06:29:56Z</time>
      </trkpt>
      <trkpt lat="43.56036" lon="3.32639">
        <ele>265.9</ele>
        <time>2016-07-31T06:30:00Z</time>
      </trkpt>
      <trkpt lat="43.56033" lon="3.32649">
        <ele>266.5</ele>
        <time>2016-07-31T06:30:04Z</time>
      </trkpt>
      <trkpt lat="43.5603" lon="3.32661">
        <ele>267.3</ele>
        <time>2016-07-31T06:30:08Z</time>
      </trkpt>
      <trkpt lat="43.56027" lon="3.32673">
        <ele>268.1</ele>
        <time>2016-07-31T06:30:12Z</time>
      </trkpt>
      <trkpt lat="43.56024" lon="3.32685">
        <ele>268.7</ele>
        <time>2016-07-31T06:30:15Z</time>
      </trkpt>
      <trkpt lat="43.56023" lon="3.32696">
        <ele>269.1</ele>
        <time>2016-07-31T06:30:18Z</time>
      </trkpt>
      <trkpt lat="43.56022" lon="3.32706">
        <ele>269.6</ele>
        <time>2016-07-31T06:30:22Z</time>
      </trkpt>
      <trkpt lat="43.56021" lon="3.32719">
        <ele>270.1</ele>
        <time>2016-07-31T06:30:26Z</time>
      </trkpt>
      <trkpt lat="43.56024" lon="3.32729">
        <ele>270.7</ele>
        <time>2016-07-31T06:30:30Z</time>
      </trkpt>
      <trkpt lat="43.56027" lon="3.32738">
        <ele>271.3</ele>
        <time>2016-07-31T06:30:33Z</time>
      </trkpt>
      <trkpt lat="43.56032" lon="3.32748">
        <ele>271.8</ele>
        <time>2016-07-31T06:30:37Z</time>
      </trkpt>
      <trkpt lat="43.56036" lon="3.32759">
        <ele>272.4</ele>
        <time>2016-07-31T06:30:41Z</time>
      </trkpt>
      <trkpt lat="43.56038" lon="3.32771">
        <ele>273.1</ele>
        <time>2016-07-31T06:30:45Z</time>
      </trkpt>
      <trkpt lat="43.56039" lon="3.32781">
        <ele>273.5</ele>
        <time>2016-07-31T06:30:48Z</time>
      </trkpt>
      <trkpt lat="43.5604" lon="3.32793">
        <ele>274.1</ele>
        <time>2016-07-31T06:30:52Z</time>
      </trkpt>
      <trkpt lat="43.5604" lon="3.32805">
        <ele>274.6</ele>
        <time>2016-07-31T06:30:56Z</time>
      </trkpt>
      <trkpt lat="43.56038" lon="3.32817">
        <ele>275.1</ele>
        <time>2016-07-31T06:31:00Z</time>
      </trkpt>
      <trkpt lat="43.56036" lon="3.32827">
        <ele>275.6</ele>
        <time>2016-07-31T06:31:03Z</time>
      </trkpt>
      <trkpt lat="43.56034" lon="3.32838">
        <ele>276.2</ele>
        <time>2016-07-31T06:31:07Z</time>
      </trkpt>
      <trkpt lat="43.56031" lon="3.32851">
        <ele>276.8</ele>
        <time>2016-07-31T06:31:11Z</time>
      </trkpt>
      <trkpt lat="43.56026" lon="3.32862">
        <ele>277.5</ele>
        <time>2016-07-31T06:31:15Z</time>
      </trkpt>
      <trkpt lat="43.56022" lon="3.3287">
        <ele>278</ele>
        <time>2016-07-31T06:31:18Z</time>
      </trkpt>
      <trkpt lat="43.56017" lon="3.32878">
        <ele>278.3</ele>
        <time>2016-07-31T06:31:21Z</time>
      </trkpt>
      <trkpt lat="43.56011" lon="3.32889">
        <ele>278.8</ele>
        <time>2016-07-31T06:31:25Z</time>
      </trkpt>
      <trkpt lat="43.56006" lon="3.32896">
        <ele>279.4</ele>
        <time>2016-07-31T06:31:28Z</time>
      </trkpt>
      <trkpt lat="43.56" lon="3.32902">
        <ele>279.9</ele>
        <time>2016-07-31T06:31:31Z</time>
      </trkpt>
      <trkpt lat="43.55991" lon="3.32907">
        <ele>280.5</ele>
        <time>2016-07-31T06:31:35Z</time>
      </trkpt>
      <trkpt lat="43.55984" lon="3.32911">
        <ele>281</ele>
        <time>2016-07-31T06:31:38Z</time>
      </trkpt>
      <trkpt lat="43.55976" lon="3.32914">
        <ele>281.5</ele>
        <time>2016-07-31T06:31:41Z</time>
      </trkpt>
      <trkpt lat="43.55968" lon="3.32917">
        <ele>282</ele>
        <time>2016-07-31T06:31:44Z</time>
      </trkpt>
      <trkpt lat="43.5596" lon="3.32922">
        <ele>282.6</ele>
        <time>2016-07-31T06:31:48Z</time>
      </trkpt>
      <trkpt lat="43.55953" lon="3.32928">
        <ele>283</ele>
        <time>2016-07-31T06:31:51Z</time>
      </trkpt>
      <trkpt lat="43.55946" lon="3.32936">
        <ele>283.6</ele>
        <time>2016-07-31T06:31:54Z</time>
      </trkpt>
      <trkpt lat="43.55939" lon="3.32946">
        <ele>284.1</ele>
        <time>2016-07-31T06:31:57Z</time>
      </trkpt>
      <trkpt lat="43.55933" lon="3.32958">
        <ele>284.5</ele>
        <time>2016-07-31T06:32:00Z</time>
      </trkpt>
      <trkpt lat="43.55929" lon="3.32969">
        <ele>287.1</ele>
        <time>2016-07-31T06:32:02Z</time>
      </trkpt>
      <trkpt lat="43.55924" lon="3.32979">
        <ele>288.1</ele>
        <time>2016-07-31T06:32:04Z</time>
      </trkpt>
      <trkpt lat="43.55918" lon="3.32986">
        <ele>288.9</ele>
        <time>2016-07-31T06:32:06Z</time>
      </trkpt>
      <trkpt lat="43.55911" lon="3.32993">
        <ele>289</ele>
        <time>2016-07-31T06:32:08Z</time>
      </trkpt>
      <trkpt lat="43.55906" lon="3.33006">
        <ele>289.1</ele>
        <time>2016-07-31T06:32:11Z</time>
      </trkpt>
      <trkpt lat="43.55903" lon="3.33018">
        <ele>289.1</ele>
        <time>2016-07-31T06:32:14Z</time>
      </trkpt>
      <trkpt lat="43.55899" lon="3.3303">
        <ele>289.2</ele>
        <time>2016-07-31T06:32:17Z</time>
      </trkpt>
      <trkpt lat="43.55895" lon="3.33038">
        <ele>289.2</ele>
        <time>2016-07-31T06:32:19Z</time>
      </trkpt>
      <trkpt lat="43.55891" lon="3.33047">
        <ele>289.3</ele>
        <time>2016-07-31T06:32:21Z</time>
      </trkpt>
      <trkpt lat="43.55885" lon="3.33057">
        <ele>289.3</ele>
        <time>2016-07-31T06:32:23Z</time>
      </trkpt>
      <trkpt lat="43.55878" lon="3.33065">
        <ele>290</ele>
        <time>2016-07-31T06:32:25Z</time>
      </trkpt>
      <trkpt lat="43.55871" lon="3.33074">
        <ele>290.4</ele>
        <time>2016-07-31T06:32:27Z</time>
      </trkpt>
      <trkpt lat="43.55864" lon="3.33083">
        <ele>290.7</ele>
        <time>2016-07-31T06:32:29Z</time>
      </trkpt>
      <trkpt lat="43.55857" lon="3.33093">
        <ele>290.8</ele>
        <time>2016-07-31T06:32:31Z</time>
      </trkpt>
      <trkpt lat="43.55852" lon="3.33102">
        <ele>291.2</ele>
        <time>2016-07-31T06:32:33Z</time>
      </trkpt>
      <trkpt lat="43.55848" lon="3.33111">
        <ele>292</ele>
        <time>2016-07-31T06:32:35Z</time>
      </trkpt>
      <trkpt lat="43.55843" lon="3.3312">
        <ele>292.5</ele>
        <time>2016-07-31T06:32:37Z</time>
      </trkpt>
      <trkpt lat="43.55839" lon="3.33129">
        <ele>292.8</ele>
        <time>2016-07-31T06:32:39Z</time>
      </trkpt>
      <trkpt lat="43.55834" lon="3.3314">
        <ele>292.9</ele>
        <time>2016-07-31T06:32:42Z</time>
      </trkpt>
      <trkpt lat="43.55828" lon="3.3315">
        <ele>292.9</ele>
        <time>2016-07-31T06:32:44Z</time>
      </trkpt>
      <trkpt lat="43.55822" lon="3.33161">
        <ele>292.9</ele>
        <time>2016-07-31T06:32:47Z</time>
      </trkpt>
      <trkpt lat="43.55816" lon="3.33172">
        <ele>293</ele>
        <time>2016-07-31T06:32:50Z</time>
      </trkpt>
      <trkpt lat="43.55812" lon="3.33181">
        <ele>293.1</ele>
        <time>2016-07-31T06:32:53Z</time>
      </trkpt>
      <trkpt lat="43.55808" lon="3.33191">
        <ele>293.3</ele>
        <time>2016-07-31T06:32:56Z</time>
      </trkpt>
      <trkpt lat="43.55803" lon="3.33202">
        <ele>293.5</ele>
        <time>2016-07-31T06:32:59Z</time>
      </trkpt>
      <trkpt lat="43.558" lon="3.33213">
        <ele>293.7</ele>
        <time>2016-07-31T06:33:02Z</time>
      </trkpt>
      <trkpt lat="43.55797" lon="3.33225">
        <ele>294.1</ele>
        <time>2016-07-31T06:33:05Z</time>
      </trkpt>
      <trkpt lat="43.55795" lon="3.33235">
        <ele>294.5</ele>
        <time>2016-07-31T06:33:08Z</time>
      </trkpt>
      <trkpt lat="43.55792" lon="3.33246">
        <ele>295.1</ele>
        <time>2016-07-31T06:33:11Z</time>
      </trkpt>
      <trkpt lat="43.55789" lon="3.33257">
        <ele>295.6</ele>
        <time>2016-07-31T06:33:14Z</time>
      </trkpt>
      <trkpt lat="43.55785" lon="3.33268">
        <ele>295.8</ele>
        <time>2016-07-31T06:33:17Z</time>
      </trkpt>
      <trkpt lat="43.55782" lon="3.3328">
        <ele>295.9</ele>
        <time>2016-07-31T06:33:21Z</time>
      </trkpt>
      <trkpt lat="43.55778" lon="3.33291">
        <ele>296.2</ele>
        <time>2016-07-31T06:33:25Z</time>
      </trkpt>
      <trkpt lat="43.55775" lon="3.333">
        <ele>296.5</ele>
        <time>2016-07-31T06:33:28Z</time>
      </trkpt>
      <trkpt lat="43.55772" lon="3.3331">
        <ele>297</ele>
        <time>2016-07-31T06:33:32Z</time>
      </trkpt>
      <trkpt lat="43.55768" lon="3.33322">
        <ele>297.6</ele>
        <time>2016-07-31T06:33:36Z</time>
      </trkpt>
      <trkpt lat="43.55763" lon="3.33331">
        <ele>298</ele>
        <time>2016-07-31T06:33:39Z</time>
      </trkpt>
      <trkpt lat="43.55758" lon="3.33341">
        <ele>298.3</ele>
        <time>2016-07-31T06:33:42Z</time>
      </trkpt>
      <trkpt lat="43.55755" lon="3.3335">
        <ele>298.6</ele>
        <time>2016-07-31T06:33:45Z</time>
      </trkpt>
      <trkpt lat="43.5575" lon="3.33359">
        <ele>298.9</ele>
        <time>2016-07-31T06:33:48Z</time>
      </trkpt>
      <trkpt lat="43.55745" lon="3.33367">
        <ele>299.2</ele>
        <time>2016-07-31T06:33:51Z</time>
      </trkpt>
      <trkpt lat="43.5574" lon="3.33376">
        <ele>299.5</ele>
        <time>2016-07-31T06:33:54Z</time>
      </trkpt>
      <trkpt lat="43.55735" lon="3.33385">
        <ele>299.8</ele>
        <time>2016-07-31T06:33:57Z</time>
      </trkpt>
      <trkpt lat="43.55729" lon="3.33394">
        <ele>300.2</ele>
        <time>2016-07-31T06:34:01Z</time>
      </trkpt>
      <trkpt lat="43.55722" lon="3.33404">
        <ele>300.6</ele>
        <time>2016-07-31T06:34:05Z</time>
      </trkpt>
      <trkpt lat="43.55717" lon="3.3341">
        <ele>300.9</ele>
        <time>2016-07-31T06:34:08Z</time>
      </trkpt>
      <trkpt lat="43.55712" lon="3.33419">
        <ele>301.2</ele>
        <time>2016-07-31T06:34:11Z</time>
      </trkpt>
      <trkpt lat="43.55707" lon="3.33428">
        <ele>301.5</ele>
        <time>2016-07-31T06:34:14Z</time>
      </trkpt>
      <trkpt lat="43.55702" lon="3.33437">
        <ele>301.8</ele>
        <time>2016-07-31T06:34:17Z</time>
      </trkpt>
      <trkpt lat="43.55695" lon="3.3344">
        <ele>302.3</ele>
        <time>2016-07-31T06:34:21Z</time>
      </trkpt>
      <trkpt lat="43.55696" lon="3.33428">
        <ele>302.6</ele>
        <time>2016-07-31T06:34:25Z</time>
      </trkpt>
      <trkpt lat="43.55699" lon="3.33417">
        <ele>302.9</ele>
        <time>2016-07-31T06:34:28Z</time>
      </trkpt>
      <trkpt lat="43.55704" lon="3.33404">
        <ele>303.1</ele>
        <time>2016-07-31T06:34:31Z</time>
      </trkpt>
      <trkpt lat="43.55709" lon="3.33393">
        <ele>303.3</ele>
        <time>2016-07-31T06:34:34Z</time>
      </trkpt>
      <trkpt lat="43.55707" lon="3.3338">
        <ele>303.6</ele>
        <time>2016-07-31T06:34:37Z</time>
      </trkpt>
      <trkpt lat="43.55702" lon="3.33372">
        <ele>303.8</ele>
        <time>2016-07-31T06:34:40Z</time>
      </trkpt>
      <trkpt lat="43.55695" lon="3.33365">
        <ele>304.1</ele>
        <time>2016-07-31T06:34:43Z</time>
      </trkpt>
      <trkpt lat="43.55689" lon="3.33358">
        <ele>304.3</ele>
        <time>2016-07-31T06:34:46Z</time>
      </trkpt>
      <trkpt lat="43.55683" lon="3.33352">
        <ele>304.5</ele>
        <time>2016-07-31T06:34:48Z</time>
      </trkpt>
      <trkpt lat="43.55677" lon="3.33343">
        <ele>305.3</ele>
        <time>2016-07-31T06:34:50Z</time>
      </trkpt>
      <trkpt lat="43.55669" lon="3.33333">
        <ele>305.5</ele>
        <time>2016-07-31T06:34:53Z</time>
      </trkpt>
      <trkpt lat="43.55661" lon="3.33325">
        <ele>305.6</ele>
        <time>2016-07-31T06:34:56Z</time>
      </trkpt>
      <trkpt lat="43.55652" lon="3.33319">
        <ele>305.7</ele>
        <time>2016-07-31T06:34:59Z</time>
      </trkpt>
      <trkpt lat="43.55644" lon="3.33315">
        <ele>306.5</ele>
        <time>2016-07-31T06:35:01Z</time>
      </trkpt>
      <trkpt lat="43.55636" lon="3.33312">
        <ele>306.5</ele>
        <time>2016-07-31T06:35:03Z</time>
      </trkpt>
      <trkpt lat="43.55629" lon="3.3331">
        <ele>306.3</ele>
        <time>2016-07-31T06:35:05Z</time>
      </trkpt>
      <trkpt lat="43.55621" lon="3.33308">
        <ele>306.8</ele>
        <time>2016-07-31T06:35:07Z</time>
      </trkpt>
      <trkpt lat="43.55612" lon="3.33307">
        <ele>307.1</ele>
        <time>2016-07-31T06:35:09Z</time>
      </trkpt>
      <trkpt lat="43.55604" lon="3.33305">
        <ele>307.8</ele>
        <time>2016-07-31T06:35:11Z</time>
      </trkpt>
      <trkpt lat="43.55595" lon="3.33303">
        <ele>308.6</ele>
        <time>2016-07-31T06:35:13Z</time>
      </trkpt>
      <trkpt lat="43.55586" lon="3.33301">
        <ele>308.6</ele>
        <time>2016-07-31T06:35:15Z</time>
      </trkpt>
      <trkpt lat="43.55577" lon="3.33299">
        <ele>308.4</ele>
        <time>2016-07-31T06:35:17Z</time>
      </trkpt>
      <trkpt lat="43.55567" lon="3.33297">
        <ele>308.8</ele>
        <time>2016-07-31T06:35:19Z</time>
      </trkpt>
      <trkpt lat="43.55557" lon="3.33295">
        <ele>308.8</ele>
        <time>2016-07-31T06:35:21Z</time>
      </trkpt>
      <trkpt lat="43.55547" lon="3.33293">
        <ele>308.5</ele>
        <time>2016-07-31T06:35:23Z</time>
      </trkpt>
      <trkpt lat="43.55539" lon="3.33288">
        <ele>308.2</ele>
        <time>2016-07-31T06:35:25Z</time>
      </trkpt>
      <trkpt lat="43.55532" lon="3.33279">
        <ele>307.5</ele>
        <time>2016-07-31T06:35:27Z</time>
      </trkpt>
      <trkpt lat="43.55528" lon="3.33269">
        <ele>307.3</ele>
        <time>2016-07-31T06:35:29Z</time>
      </trkpt>
      <trkpt lat="43.55525" lon="3.33257">
        <ele>306.5</ele>
        <time>2016-07-31T06:35:31Z</time>
      </trkpt>
      <trkpt lat="43.55523" lon="3.33245">
        <ele>306.3</ele>
        <time>2016-07-31T06:35:33Z</time>
      </trkpt>
      <trkpt lat="43.55519" lon="3.33235">
        <ele>306.5</ele>
        <time>2016-07-31T06:35:35Z</time>
      </trkpt>
      <trkpt lat="43.55516" lon="3.33226">
        <ele>306.8</ele>
        <time>2016-07-31T06:35:37Z</time>
      </trkpt>
      <trkpt lat="43.55511" lon="3.33216">
        <ele>306.4</ele>
        <time>2016-07-31T06:35:39Z</time>
      </trkpt>
      <trkpt lat="43.55504" lon="3.33208">
        <ele>306</ele>
        <time>2016-07-31T06:35:41Z</time>
      </trkpt>
      <trkpt lat="43.55491" lon="3.33204">
        <ele>304.8</ele>
        <time>2016-07-31T06:35:43Z</time>
      </trkpt>
      <trkpt lat="43.55478" lon="3.33202">
        <ele>303.5</ele>
        <time>2016-07-31T06:35:45Z</time>
      </trkpt>
      <trkpt lat="43.55471" lon="3.33202">
        <ele>302.7</ele>
        <time>2016-07-31T06:35:46Z</time>
      </trkpt>
      <trkpt lat="43.55463" lon="3.33202">
        <ele>301.7</ele>
        <time>2016-07-31T06:35:47Z</time>
      </trkpt>
      <trkpt lat="43.55455" lon="3.33203">
        <ele>300.5</ele>
        <time>2016-07-31T06:35:48Z</time>
      </trkpt>
      <trkpt lat="43.55447" lon="3.33205">
        <ele>299.8</ele>
        <time>2016-07-31T06:35:49Z</time>
      </trkpt>
      <trkpt lat="43.55439" lon="3.33208">
        <ele>298.9</ele>
        <time>2016-07-31T06:35:50Z</time>
      </trkpt>
      <trkpt lat="43.55431" lon="3.3321">
        <ele>297.8</ele>
        <time>2016-07-31T06:35:51Z</time>
      </trkpt>
      <trkpt lat="43.55423" lon="3.33207">
        <ele>296.9</ele>
        <time>2016-07-31T06:35:53Z</time>
      </trkpt>
      <trkpt lat="43.55425" lon="3.33197">
        <ele>297.1</ele>
        <time>2016-07-31T06:35:56Z</time>
      </trkpt>
      <trkpt lat="43.55425" lon="3.33185">
        <ele>297.3</ele>
        <time>2016-07-31T06:35:59Z</time>
      </trkpt>
      <trkpt lat="43.55422" lon="3.33174">
        <ele>297.6</ele>
        <time>2016-07-31T06:36:02Z</time>
      </trkpt>
      <trkpt lat="43.55417" lon="3.33164">
        <ele>298.1</ele>
        <time>2016-07-31T06:36:06Z</time>
      </trkpt>
      <trkpt lat="43.55414" lon="3.33154">
        <ele>298.5</ele>
        <time>2016-07-31T06:36:09Z</time>
      </trkpt>
      <trkpt lat="43.55411" lon="3.33144">
        <ele>298.9</ele>
        <time>2016-07-31T06:36:13Z</time>
      </trkpt>
      <trkpt lat="43.55412" lon="3.33132">
        <ele>299.4</ele>
        <time>2016-07-31T06:36:18Z</time>
      </trkpt>
      <trkpt lat="43.55414" lon="3.3312">
        <ele>299.7</ele>
        <time>2016-07-31T06:36:22Z</time>
      </trkpt>
      <trkpt lat="43.55417" lon="3.33108">
        <ele>300.1</ele>
        <time>2016-07-31T06:36:26Z</time>
      </trkpt>
      <trkpt lat="43.55419" lon="3.33096">
        <ele>300.8</ele>
        <time>2016-07-31T06:36:30Z</time>
      </trkpt>
      <trkpt lat="43.5542" lon="3.33085">
        <ele>301.6</ele>
        <time>2016-07-31T06:36:34Z</time>
      </trkpt>
      <trkpt lat="43.5542" lon="3.33072">
        <ele>302.1</ele>
        <time>2016-07-31T06:36:38Z</time>
      </trkpt>
      <trkpt lat="43.5542" lon="3.33062">
        <ele>302.3</ele>
        <time>2016-07-31T06:36:41Z</time>
      </trkpt>
      <trkpt lat="43.55421" lon="3.33051">
        <ele>302.5</ele>
        <time>2016-07-31T06:36:45Z</time>
      </trkpt>
      <trkpt lat="43.55422" lon="3.33037">
        <ele>303.1</ele>
        <time>2016-07-31T06:36:49Z</time>
      </trkpt>
      <trkpt lat="43.55422" lon="3.33027">
        <ele>303.8</ele>
        <time>2016-07-31T06:36:53Z</time>
      </trkpt>
      <trkpt lat="43.55424" lon="3.33016">
        <ele>304.2</ele>
        <time>2016-07-31T06:36:56Z</time>
      </trkpt>
      <trkpt lat="43.55426" lon="3.33004">
        <ele>304.8</ele>
        <time>2016-07-31T06:37:00Z</time>
      </trkpt>
      <trkpt lat="43.55429" lon="3.32992">
        <ele>305.2</ele>
        <time>2016-07-31T06:37:04Z</time>
      </trkpt>
      <trkpt lat="43.55432" lon="3.32982">
        <ele>305.5</ele>
        <time>2016-07-31T06:37:08Z</time>
      </trkpt>
      <trkpt lat="43.55437" lon="3.32971">
        <ele>305.8</ele>
        <time>2016-07-31T06:37:12Z</time>
      </trkpt>
      <trkpt lat="43.5544" lon="3.32961">
        <ele>306.4</ele>
        <time>2016-07-31T06:37:16Z</time>
      </trkpt>
      <trkpt lat="43.55444" lon="3.32951">
        <ele>306.8</ele>
        <time>2016-07-31T06:37:19Z</time>
      </trkpt>
      <trkpt lat="43.55447" lon="3.32942">
        <ele>307.3</ele>
        <time>2016-07-31T06:37:22Z</time>
      </trkpt>
      <trkpt lat="43.5545" lon="3.32932">
        <ele>307.7</ele>
        <time>2016-07-31T06:37:25Z</time>
      </trkpt>
      <trkpt lat="43.55453" lon="3.32921">
        <ele>308.1</ele>
        <time>2016-07-31T06:37:29Z</time>
      </trkpt>
      <trkpt lat="43.55456" lon="3.3291">
        <ele>308.7</ele>
        <time>2016-07-31T06:37:33Z</time>
      </trkpt>
      <trkpt lat="43.5546" lon="3.32901">
        <ele>309.1</ele>
        <time>2016-07-31T06:37:36Z</time>
      </trkpt>
      <trkpt lat="43.55464" lon="3.32891">
        <ele>309.7</ele>
        <time>2016-07-31T06:37:40Z</time>
      </trkpt>
      <trkpt lat="43.55468" lon="3.3288">
        <ele>310.4</ele>
        <time>2016-07-31T06:37:44Z</time>
      </trkpt>
      <trkpt lat="43.55471" lon="3.32869">
        <ele>311.1</ele>
        <time>2016-07-31T06:37:48Z</time>
      </trkpt>
      <trkpt lat="43.55475" lon="3.32859">
        <ele>311.4</ele>
        <time>2016-07-31T06:37:51Z</time>
      </trkpt>
      <trkpt lat="43.55478" lon="3.3285">
        <ele>311.8</ele>
        <time>2016-07-31T06:37:54Z</time>
      </trkpt>
      <trkpt lat="43.55482" lon="3.32841">
        <ele>312.2</ele>
        <time>2016-07-31T06:37:57Z</time>
      </trkpt>
      <trkpt lat="43.55485" lon="3.32831">
        <ele>312.5</ele>
        <time>2016-07-31T06:38:01Z</time>
      </trkpt>
      <trkpt lat="43.55489" lon="3.32818">
        <ele>313</ele>
        <time>2016-07-31T06:38:05Z</time>
      </trkpt>
      <trkpt lat="43.55492" lon="3.32809">
        <ele>313.4</ele>
        <time>2016-07-31T06:38:09Z</time>
      </trkpt>
      <trkpt lat="43.55496" lon="3.32796">
        <ele>313.9</ele>
        <time>2016-07-31T06:38:13Z</time>
      </trkpt>
      <trkpt lat="43.55497" lon="3.32784">
        <ele>314.4</ele>
        <time>2016-07-31T06:38:16Z</time>
      </trkpt>
      <trkpt lat="43.55497" lon="3.32771">
        <ele>314.6</ele>
        <time>2016-07-31T06:38:20Z</time>
      </trkpt>
      <trkpt lat="43.55496" lon="3.32761">
        <ele>314.9</ele>
        <time>2016-07-31T06:38:23Z</time>
      </trkpt>
      <trkpt lat="43.55493" lon="3.32748">
        <ele>315.6</ele>
        <time>2016-07-31T06:38:27Z</time>
      </trkpt>
      <trkpt lat="43.5549" lon="3.32738">
        <ele>316</ele>
        <time>2016-07-31T06:38:30Z</time>
      </trkpt>
      <trkpt lat="43.55486" lon="3.32727">
        <ele>316.6</ele>
        <time>2016-07-31T06:38:34Z</time>
      </trkpt>
      <trkpt lat="43.55482" lon="3.32716">
        <ele>317.2</ele>
        <time>2016-07-31T06:38:38Z</time>
      </trkpt>
      <trkpt lat="43.55479" lon="3.32706">
        <ele>317.5</ele>
        <time>2016-07-31T06:38:41Z</time>
      </trkpt>
      <trkpt lat="43.55476" lon="3.32695">
        <ele>318.4</ele>
        <time>2016-07-31T06:38:46Z</time>
      </trkpt>
      <trkpt lat="43.55471" lon="3.32684">
        <ele>319.2</ele>
        <time>2016-07-31T06:38:50Z</time>
      </trkpt>
      <trkpt lat="43.55467" lon="3.32672">
        <ele>320.2</ele>
        <time>2016-07-31T06:38:54Z</time>
      </trkpt>
      <trkpt lat="43.55463" lon="3.32662">
        <ele>321</ele>
        <time>2016-07-31T06:38:58Z</time>
      </trkpt>
      <trkpt lat="43.5546" lon="3.32652">
        <ele>321.7</ele>
        <time>2016-07-31T06:39:02Z</time>
      </trkpt>
      <trkpt lat="43.5546" lon="3.32641">
        <ele>322.5</ele>
        <time>2016-07-31T06:39:06Z</time>
      </trkpt>
      <trkpt lat="43.5546" lon="3.32631">
        <ele>323.1</ele>
        <time>2016-07-31T06:39:08Z</time>
      </trkpt>
      <trkpt lat="43.5546" lon="3.32621">
        <ele>323.8</ele>
        <time>2016-07-31T06:39:12Z</time>
      </trkpt>
      <trkpt lat="43.55461" lon="3.32608">
        <ele>324.5</ele>
        <time>2016-07-31T06:39:16Z</time>
      </trkpt>
      <trkpt lat="43.55461" lon="3.32597">
        <ele>325.3</ele>
        <time>2016-07-31T06:39:20Z</time>
      </trkpt>
      <trkpt lat="43.55461" lon="3.32585">
        <ele>325.8</ele>
        <time>2016-07-31T06:39:24Z</time>
      </trkpt>
      <trkpt lat="43.55461" lon="3.32573">
        <ele>326.3</ele>
        <time>2016-07-31T06:39:27Z</time>
      </trkpt>
      <trkpt lat="43.55463" lon="3.32562">
        <ele>326.9</ele>
        <time>2016-07-31T06:39:31Z</time>
      </trkpt>
      <trkpt lat="43.55462" lon="3.32549">
        <ele>327.3</ele>
        <time>2016-07-31T06:39:35Z</time>
      </trkpt>
      <trkpt lat="43.5546" lon="3.3254">
        <ele>327.8</ele>
        <time>2016-07-31T06:39:38Z</time>
      </trkpt>
      <trkpt lat="43.55459" lon="3.32528">
        <ele>328.5</ele>
        <time>2016-07-31T06:39:41Z</time>
      </trkpt>
      <trkpt lat="43.55458" lon="3.32517">
        <ele>328.8</ele>
        <time>2016-07-31T06:39:44Z</time>
      </trkpt>
      <trkpt lat="43.55457" lon="3.32504">
        <ele>329.3</ele>
        <time>2016-07-31T06:39:48Z</time>
      </trkpt>
      <trkpt lat="43.55457" lon="3.32491">
        <ele>330.1</ele>
        <time>2016-07-31T06:39:52Z</time>
      </trkpt>
      <trkpt lat="43.55456" lon="3.3248">
        <ele>330.8</ele>
        <time>2016-07-31T06:39:55Z</time>
      </trkpt>
      <trkpt lat="43.55454" lon="3.3247">
        <ele>331.3</ele>
        <time>2016-07-31T06:39:58Z</time>
      </trkpt>
      <trkpt lat="43.55453" lon="3.32458">
        <ele>332.1</ele>
        <time>2016-07-31T06:40:02Z</time>
      </trkpt>
      <trkpt lat="43.55451" lon="3.32446">
        <ele>333.2</ele>
        <time>2016-07-31T06:40:06Z</time>
      </trkpt>
      <trkpt lat="43.55449" lon="3.32435">
        <ele>334.3</ele>
        <time>2016-07-31T06:40:10Z</time>
      </trkpt>
      <trkpt lat="43.55442" lon="3.32427">
        <ele>335.1</ele>
        <time>2016-07-31T06:40:14Z</time>
      </trkpt>
      <trkpt lat="43.55434" lon="3.32424">
        <ele>335.7</ele>
        <time>2016-07-31T06:40:17Z</time>
      </trkpt>
      <trkpt lat="43.55425" lon="3.32423">
        <ele>336</ele>
        <time>2016-07-31T06:40:20Z</time>
      </trkpt>
      <trkpt lat="43.55417" lon="3.32425">
        <ele>336.4</ele>
        <time>2016-07-31T06:40:23Z</time>
      </trkpt>
      <trkpt lat="43.5541" lon="3.32427">
        <ele>336.6</ele>
        <time>2016-07-31T06:40:25Z</time>
      </trkpt>
      <trkpt lat="43.55401" lon="3.32428">
        <ele>337.2</ele>
        <time>2016-07-31T06:40:29Z</time>
      </trkpt>
      <trkpt lat="43.55393" lon="3.32429">
        <ele>337.5</ele>
        <time>2016-07-31T06:40:32Z</time>
      </trkpt>
      <trkpt lat="43.55386" lon="3.32432">
        <ele>337.7</ele>
        <time>2016-07-31T06:40:35Z</time>
      </trkpt>
      <trkpt lat="43.55378" lon="3.32435">
        <ele>338</ele>
        <time>2016-07-31T06:40:39Z</time>
      </trkpt>
      <trkpt lat="43.55371" lon="3.32439">
        <ele>338.3</ele>
        <time>2016-07-31T06:40:43Z</time>
      </trkpt>
      <trkpt lat="43.55363" lon="3.32446">
        <ele>338.7</ele>
        <time>2016-07-31T06:40:47Z</time>
      </trkpt>
      <trkpt lat="43.55355" lon="3.32448">
        <ele>339.1</ele>
        <time>2016-07-31T06:40:50Z</time>
      </trkpt>
      <trkpt lat="43.55347" lon="3.32447">
        <ele>339.9</ele>
        <time>2016-07-31T06:40:56Z</time>
      </trkpt>
      <trkpt lat="43.5534" lon="3.32443">
        <ele>340.6</ele>
        <time>2016-07-31T06:40:59Z</time>
      </trkpt>
      <trkpt lat="43.55332" lon="3.32442">
        <ele>341.1</ele>
        <time>2016-07-31T06:41:02Z</time>
      </trkpt>
      <trkpt lat="43.55324" lon="3.32446">
        <ele>341.5</ele>
        <time>2016-07-31T06:41:05Z</time>
      </trkpt>
      <trkpt lat="43.55322" lon="3.32457">
        <ele>341.8</ele>
        <time>2016-07-31T06:41:09Z</time>
      </trkpt>
      <trkpt lat="43.55322" lon="3.32468">
        <ele>342.5</ele>
        <time>2016-07-31T06:41:13Z</time>
      </trkpt>
      <trkpt lat="43.55321" lon="3.3248">
        <ele>343.3</ele>
        <time>2016-07-31T06:41:17Z</time>
      </trkpt>
      <trkpt lat="43.55321" lon="3.32493">
        <ele>344.2</ele>
        <time>2016-07-31T06:41:21Z</time>
      </trkpt>
      <trkpt lat="43.55319" lon="3.32505">
        <ele>344.9</ele>
        <time>2016-07-31T06:41:25Z</time>
      </trkpt>
      <trkpt lat="43.55317" lon="3.32516">
        <ele>345.2</ele>
        <time>2016-07-31T06:41:28Z</time>
      </trkpt>
      <trkpt lat="43.55316" lon="3.32527">
        <ele>345.7</ele>
        <time>2016-07-31T06:41:31Z</time>
      </trkpt>
      <trkpt lat="43.55313" lon="3.32539">
        <ele>346.1</ele>
        <time>2016-07-31T06:41:34Z</time>
      </trkpt>
      <trkpt lat="43.55312" lon="3.32549">
        <ele>346.3</ele>
        <time>2016-07-31T06:41:36Z</time>
      </trkpt>
      <trkpt lat="43.5531" lon="3.32563">
        <ele>346.4</ele>
        <time>2016-07-31T06:41:39Z</time>
      </trkpt>
      <trkpt lat="43.55305" lon="3.32575">
        <ele>346.7</ele>
        <time>2016-07-31T06:41:42Z</time>
      </trkpt>
      <trkpt lat="43.553" lon="3.32587">
        <ele>346.9</ele>
        <time>2016-07-31T06:41:45Z</time>
      </trkpt>
      <trkpt lat="43.55297" lon="3.32595">
        <ele>347.1</ele>
        <time>2016-07-31T06:41:47Z</time>
      </trkpt>
      <trkpt lat="43.55292" lon="3.32604">
        <ele>347.4</ele>
        <time>2016-07-31T06:41:49Z</time>
      </trkpt>
      <trkpt lat="43.55288" lon="3.32613">
        <ele>347.5</ele>
        <time>2016-07-31T06:41:51Z</time>
      </trkpt>
      <trkpt lat="43.55283" lon="3.32625">
        <ele>347.5</ele>
        <time>2016-07-31T06:41:54Z</time>
      </trkpt>
      <trkpt lat="43.55278" lon="3.32634">
        <ele>347.5</ele>
        <time>2016-07-31T06:41:57Z</time>
      </trkpt>
      <trkpt lat="43.55272" lon="3.32641">
        <ele>347.5</ele>
        <time>2016-07-31T06:41:59Z</time>
      </trkpt>
      <trkpt lat="43.55266" lon="3.32648">
        <ele>347.7</ele>
        <time>2016-07-31T06:42:01Z</time>
      </trkpt>
      <trkpt lat="43.55258" lon="3.32657">
        <ele>347.9</ele>
        <time>2016-07-31T06:42:04Z</time>
      </trkpt>
      <trkpt lat="43.55252" lon="3.32665">
        <ele>347.9</ele>
        <time>2016-07-31T06:42:06Z</time>
      </trkpt>
      <trkpt lat="43.55246" lon="3.32672">
        <ele>347.8</ele>
        <time>2016-07-31T06:42:08Z</time>
      </trkpt>
      <trkpt lat="43.55239" lon="3.32678">
        <ele>347.7</ele>
        <time>2016-07-31T06:42:11Z</time>
      </trkpt>
      <trkpt lat="43.55233" lon="3.32687">
        <ele>347.9</ele>
        <time>2016-07-31T06:42:15Z</time>
      </trkpt>
      <trkpt lat="43.55226" lon="3.32697">
        <ele>348</ele>
        <time>2016-07-31T06:42:18Z</time>
      </trkpt>
      <trkpt lat="43.55221" lon="3.32705">
        <ele>348.1</ele>
        <time>2016-07-31T06:42:20Z</time>
      </trkpt>
      <trkpt lat="43.55215" lon="3.32713">
        <ele>348.3</ele>
        <time>2016-07-31T06:42:24Z</time>
      </trkpt>
      <trkpt lat="43.55209" lon="3.32723">
        <ele>348.8</ele>
        <time>2016-07-31T06:42:28Z</time>
      </trkpt>
      <trkpt lat="43.55205" lon="3.32732">
        <ele>348.9</ele>
        <time>2016-07-31T06:42:31Z</time>
      </trkpt>
      <trkpt lat="43.552" lon="3.32743">
        <ele>349.2</ele>
        <time>2016-07-31T06:42:34Z</time>
      </trkpt>
      <trkpt lat="43.55195" lon="3.32752">
        <ele>349.5</ele>
        <time>2016-07-31T06:42:37Z</time>
      </trkpt>
      <trkpt lat="43.5519" lon="3.32761">
        <ele>349.8</ele>
        <time>2016-07-31T06:42:40Z</time>
      </trkpt>
      <trkpt lat="43.55185" lon="3.32772">
        <ele>350.3</ele>
        <time>2016-07-31T06:42:43Z</time>
      </trkpt>
      <trkpt lat="43.55182" lon="3.32781">
        <ele>350.8</ele>
        <time>2016-07-31T06:42:46Z</time>
      </trkpt>
      <trkpt lat="43.55179" lon="3.32792">
        <ele>351.3</ele>
        <time>2016-07-31T06:42:49Z</time>
      </trkpt>
      <trkpt lat="43.55175" lon="3.32803">
        <ele>351.7</ele>
        <time>2016-07-31T06:42:52Z</time>
      </trkpt>
      <trkpt lat="43.55172" lon="3.32814">
        <ele>352.1</ele>
        <time>2016-07-31T06:42:55Z</time>
      </trkpt>
      <trkpt lat="43.55169" lon="3.32824">
        <ele>352.6</ele>
        <time>2016-07-31T06:43:00Z</time>
      </trkpt>
      <trkpt lat="43.55161" lon="3.32831">
        <ele>353.3</ele>
        <time>2016-07-31T06:43:05Z</time>
      </trkpt>
      <trkpt lat="43.55152" lon="3.32836">
        <ele>353.8</ele>
        <time>2016-07-31T06:43:09Z</time>
      </trkpt>
      <trkpt lat="43.55144" lon="3.32839">
        <ele>354</ele>
        <time>2016-07-31T06:43:11Z</time>
      </trkpt>
      <trkpt lat="43.55137" lon="3.32842">
        <ele>354.2</ele>
        <time>2016-07-31T06:43:13Z</time>
      </trkpt>
      <trkpt lat="43.55128" lon="3.32844">
        <ele>354.3</ele>
        <time>2016-07-31T06:43:15Z</time>
      </trkpt>
      <trkpt lat="43.5512" lon="3.32846">
        <ele>354.4</ele>
        <time>2016-07-31T06:43:17Z</time>
      </trkpt>
      <trkpt lat="43.55111" lon="3.32845">
        <ele>355</ele>
        <time>2016-07-31T06:43:19Z</time>
      </trkpt>
      <trkpt lat="43.55102" lon="3.32843">
        <ele>355.2</ele>
        <time>2016-07-31T06:43:21Z</time>
      </trkpt>
      <trkpt lat="43.55094" lon="3.32839">
        <ele>355.3</ele>
        <time>2016-07-31T06:43:23Z</time>
      </trkpt>
      <trkpt lat="43.55086" lon="3.32831">
        <ele>355.2</ele>
        <time>2016-07-31T06:43:26Z</time>
      </trkpt>
      <trkpt lat="43.5508" lon="3.32822">
        <ele>355.3</ele>
        <time>2016-07-31T06:43:28Z</time>
      </trkpt>
      <trkpt lat="43.55076" lon="3.32812">
        <ele>355.3</ele>
        <time>2016-07-31T06:43:30Z</time>
      </trkpt>
      <trkpt lat="43.55071" lon="3.32798">
        <ele>355.2</ele>
        <time>2016-07-31T06:43:33Z</time>
      </trkpt>
      <trkpt lat="43.55068" lon="3.32785">
        <ele>355</ele>
        <time>2016-07-31T06:43:36Z</time>
      </trkpt>
      <trkpt lat="43.55064" lon="3.32776">
        <ele>354.9</ele>
        <time>2016-07-31T06:43:38Z</time>
      </trkpt>
      <trkpt lat="43.5506" lon="3.32764">
        <ele>354.9</ele>
        <time>2016-07-31T06:43:41Z</time>
      </trkpt>
      <trkpt lat="43.55057" lon="3.3275">
        <ele>354.8</ele>
        <time>2016-07-31T06:43:44Z</time>
      </trkpt>
      <trkpt lat="43.55055" lon="3.32737">
        <ele>355</ele>
        <time>2016-07-31T06:43:47Z</time>
      </trkpt>
      <trkpt lat="43.55053" lon="3.32723">
        <ele>355.3</ele>
        <time>2016-07-31T06:43:50Z</time>
      </trkpt>
      <trkpt lat="43.5505" lon="3.32711">
        <ele>355.8</ele>
        <time>2016-07-31T06:43:53Z</time>
      </trkpt>
      <trkpt lat="43.55046" lon="3.32697">
        <ele>356.3</ele>
        <time>2016-07-31T06:43:56Z</time>
      </trkpt>
      <trkpt lat="43.55043" lon="3.32685">
        <ele>356.6</ele>
        <time>2016-07-31T06:43:58Z</time>
      </trkpt>
      <trkpt lat="43.55039" lon="3.32674">
        <ele>356.9</ele>
        <time>2016-07-31T06:44:00Z</time>
      </trkpt>
      <trkpt lat="43.55036" lon="3.32664">
        <ele>357</ele>
        <time>2016-07-31T06:44:02Z</time>
      </trkpt>
      <trkpt lat="43.55032" lon="3.32654">
        <ele>357</ele>
        <time>2016-07-31T06:44:04Z</time>
      </trkpt>
      <trkpt lat="43.55029" lon="3.32646">
        <ele>356.9</ele>
        <time>2016-07-31T06:44:06Z</time>
      </trkpt>
      <trkpt lat="43.55024" lon="3.32635">
        <ele>356.8</ele>
        <time>2016-07-31T06:44:08Z</time>
      </trkpt>
      <trkpt lat="43.55022" lon="3.32624">
        <ele>356.8</ele>
        <time>2016-07-31T06:44:10Z</time>
      </trkpt>
      <trkpt lat="43.5502" lon="3.32614">
        <ele>356.7</ele>
        <time>2016-07-31T06:44:12Z</time>
      </trkpt>
      <trkpt lat="43.5502" lon="3.326">
        <ele>356.6</ele>
        <time>2016-07-31T06:44:15Z</time>
      </trkpt>
      <trkpt lat="43.55022" lon="3.32586">
        <ele>356.5</ele>
        <time>2016-07-31T06:44:18Z</time>
      </trkpt>
      <trkpt lat="43.55022" lon="3.32571">
        <ele>356.4</ele>
        <time>2016-07-31T06:44:21Z</time>
      </trkpt>
      <trkpt lat="43.55023" lon="3.32557">
        <ele>356.3</ele>
        <time>2016-07-31T06:44:24Z</time>
      </trkpt>
      <trkpt lat="43.55022" lon="3.32544">
        <ele>356.2</ele>
        <time>2016-07-31T06:44:27Z</time>
      </trkpt>
      <trkpt lat="43.5502" lon="3.32534">
        <ele>356.2</ele>
        <time>2016-07-31T06:44:29Z</time>
      </trkpt>
      <trkpt lat="43.55016" lon="3.32522">
        <ele>356</ele>
        <time>2016-07-31T06:44:33Z</time>
      </trkpt>
      <trkpt lat="43.55011" lon="3.32515">
        <ele>355.8</ele>
        <time>2016-07-31T06:44:36Z</time>
      </trkpt>
      <trkpt lat="43.55003" lon="3.32506">
        <ele>355.7</ele>
        <time>2016-07-31T06:44:39Z</time>
      </trkpt>
      <trkpt lat="43.54998" lon="3.32499">
        <ele>355.7</ele>
        <time>2016-07-31T06:44:41Z</time>
      </trkpt>
      <trkpt lat="43.54993" lon="3.32489">
        <ele>355.8</ele>
        <time>2016-07-31T06:44:44Z</time>
      </trkpt>
      <trkpt lat="43.54988" lon="3.32476">
        <ele>355.8</ele>
        <time>2016-07-31T06:44:47Z</time>
      </trkpt>
      <trkpt lat="43.54983" lon="3.32463">
        <ele>355.7</ele>
        <time>2016-07-31T06:44:50Z</time>
      </trkpt>
      <trkpt lat="43.54979" lon="3.32449">
        <ele>355.7</ele>
        <time>2016-07-31T06:44:53Z</time>
      </trkpt>
      <trkpt lat="43.54977" lon="3.32437">
        <ele>355.7</ele>
        <time>2016-07-31T06:44:56Z</time>
      </trkpt>
      <trkpt lat="43.54977" lon="3.32425">
        <ele>355.7</ele>
        <time>2016-07-31T06:44:59Z</time>
      </trkpt>
      <trkpt lat="43.54977" lon="3.32411">
        <ele>355.7</ele>
        <time>2016-07-31T06:45:02Z</time>
      </trkpt>
      <trkpt lat="43.54976" lon="3.32397">
        <ele>355.8</ele>
        <time>2016-07-31T06:45:05Z</time>
      </trkpt>
      <trkpt lat="43.54976" lon="3.32384">
        <ele>355.9</ele>
        <time>2016-07-31T06:45:08Z</time>
      </trkpt>
      <trkpt lat="43.54977" lon="3.32371">
        <ele>355.9</ele>
        <time>2016-07-31T06:45:11Z</time>
      </trkpt>
      <trkpt lat="43.54977" lon="3.32356">
        <ele>355.9</ele>
        <time>2016-07-31T06:45:14Z</time>
      </trkpt>
      <trkpt lat="43.54977" lon="3.32342">
        <ele>356</ele>
        <time>2016-07-31T06:45:17Z</time>
      </trkpt>
      <trkpt lat="43.54977" lon="3.32331">
        <ele>356</ele>
        <time>2016-07-31T06:45:19Z</time>
      </trkpt>
      <trkpt lat="43.54977" lon="3.32317">
        <ele>355.9</ele>
        <time>2016-07-31T06:45:22Z</time>
      </trkpt>
      <trkpt lat="43.54976" lon="3.32303">
        <ele>356.4</ele>
        <time>2016-07-31T06:45:25Z</time>
      </trkpt>
      <trkpt lat="43.54974" lon="3.32293">
        <ele>356.8</ele>
        <time>2016-07-31T06:45:27Z</time>
      </trkpt>
      <trkpt lat="43.54972" lon="3.32283">
        <ele>357.1</ele>
        <time>2016-07-31T06:45:29Z</time>
      </trkpt>
      <trkpt lat="43.5497" lon="3.32271">
        <ele>357</ele>
        <time>2016-07-31T06:45:31Z</time>
      </trkpt>
      <trkpt lat="43.54967" lon="3.32259">
        <ele>356.1</ele>
        <time>2016-07-31T06:45:33Z</time>
      </trkpt>
      <trkpt lat="43.54963" lon="3.32245">
        <ele>354.8</ele>
        <time>2016-07-31T06:45:35Z</time>
      </trkpt>
      <trkpt lat="43.54958" lon="3.32231">
        <ele>354.2</ele>
        <time>2016-07-31T06:45:37Z</time>
      </trkpt>
      <trkpt lat="43.54954" lon="3.32217">
        <ele>353.9</ele>
        <time>2016-07-31T06:45:39Z</time>
      </trkpt>
      <trkpt lat="43.54948" lon="3.32205">
        <ele>354</ele>
        <time>2016-07-31T06:45:41Z</time>
      </trkpt>
      <trkpt lat="43.54943" lon="3.32194">
        <ele>354</ele>
        <time>2016-07-31T06:45:43Z</time>
      </trkpt>
      <trkpt lat="43.54938" lon="3.32185">
        <ele>353.4</ele>
        <time>2016-07-31T06:45:45Z</time>
      </trkpt>
      <trkpt lat="43.54933" lon="3.32176">
        <ele>353.4</ele>
        <time>2016-07-31T06:45:47Z</time>
      </trkpt>
      <trkpt lat="43.54928" lon="3.32167">
        <ele>353.1</ele>
        <time>2016-07-31T06:45:49Z</time>
      </trkpt>
      <trkpt lat="43.54923" lon="3.32154">
        <ele>353.1</ele>
        <time>2016-07-31T06:45:52Z</time>
      </trkpt>
      <trkpt lat="43.54919" lon="3.32143">
        <ele>353.1</ele>
        <time>2016-07-31T06:45:55Z</time>
      </trkpt>
      <trkpt lat="43.54916" lon="3.3213">
        <ele>353.3</ele>
        <time>2016-07-31T06:45:58Z</time>
      </trkpt>
      <trkpt lat="43.54913" lon="3.32121">
        <ele>353.4</ele>
        <time>2016-07-31T06:46:02Z</time>
      </trkpt>
      <trkpt lat="43.5491" lon="3.32111">
        <ele>353.6</ele>
        <time>2016-07-31T06:46:05Z</time>
      </trkpt>
      <trkpt lat="43.54908" lon="3.321">
        <ele>354</ele>
        <time>2016-07-31T06:46:08Z</time>
      </trkpt>
      <trkpt lat="43.54905" lon="3.32087">
        <ele>354.5</ele>
        <time>2016-07-31T06:46:12Z</time>
      </trkpt>
      <trkpt lat="43.54904" lon="3.32074">
        <ele>354.9</ele>
        <time>2016-07-31T06:46:16Z</time>
      </trkpt>
      <trkpt lat="43.54904" lon="3.32062">
        <ele>355.2</ele>
        <time>2016-07-31T06:46:19Z</time>
      </trkpt>
      <trkpt lat="43.54907" lon="3.32053">
        <ele>355.3</ele>
        <time>2016-07-31T06:46:21Z</time>
      </trkpt>
      <trkpt lat="43.54913" lon="3.32046">
        <ele>355.5</ele>
        <time>2016-07-31T06:46:24Z</time>
      </trkpt>
      <trkpt lat="43.54919" lon="3.3204">
        <ele>355.7</ele>
        <time>2016-07-31T06:46:27Z</time>
      </trkpt>
      <trkpt lat="43.54926" lon="3.32032">
        <ele>355.9</ele>
        <time>2016-07-31T06:46:30Z</time>
      </trkpt>
      <trkpt lat="43.54933" lon="3.32025">
        <ele>356.1</ele>
        <time>2016-07-31T06:46:33Z</time>
      </trkpt>
      <trkpt lat="43.54941" lon="3.32017">
        <ele>356.3</ele>
        <time>2016-07-31T06:46:36Z</time>
      </trkpt>
      <trkpt lat="43.54948" lon="3.3201">
        <ele>356.5</ele>
        <time>2016-07-31T06:46:39Z</time>
      </trkpt>
      <trkpt lat="43.54957" lon="3.32003">
        <ele>356.9</ele>
        <time>2016-07-31T06:46:42Z</time>
      </trkpt>
      <trkpt lat="43.54964" lon="3.31995">
        <ele>357.3</ele>
        <time>2016-07-31T06:46:45Z</time>
      </trkpt>
      <trkpt lat="43.54971" lon="3.31987">
        <ele>357.6</ele>
        <time>2016-07-31T06:46:48Z</time>
      </trkpt>
      <trkpt lat="43.54979" lon="3.31977">
        <ele>357.9</ele>
        <time>2016-07-31T06:46:51Z</time>
      </trkpt>
      <trkpt lat="43.54986" lon="3.31967">
        <ele>358</ele>
        <time>2016-07-31T06:46:54Z</time>
      </trkpt>
      <trkpt lat="43.54992" lon="3.3196">
        <ele>358.2</ele>
        <time>2016-07-31T06:46:57Z</time>
      </trkpt>
      <trkpt lat="43.54998" lon="3.31952">
        <ele>358.5</ele>
        <time>2016-07-31T06:47:00Z</time>
      </trkpt>
      <trkpt lat="43.55005" lon="3.31944">
        <ele>358.7</ele>
        <time>2016-07-31T06:47:03Z</time>
      </trkpt>
      <trkpt lat="43.55012" lon="3.31935">
        <ele>358.8</ele>
        <time>2016-07-31T06:47:07Z</time>
      </trkpt>
      <trkpt lat="43.55019" lon="3.31928">
        <ele>358.9</ele>
        <time>2016-07-31T06:47:10Z</time>
      </trkpt>
      <trkpt lat="43.55028" lon="3.31922">
        <ele>359.1</ele>
        <time>2016-07-31T06:47:13Z</time>
      </trkpt>
      <trkpt lat="43.55034" lon="3.31917">
        <ele>359.2</ele>
        <time>2016-07-31T06:47:16Z</time>
      </trkpt>
      <trkpt lat="43.55042" lon="3.31912">
        <ele>359.5</ele>
        <time>2016-07-31T06:47:19Z</time>
      </trkpt>
      <trkpt lat="43.55051" lon="3.31908">
        <ele>359.6</ele>
        <time>2016-07-31T06:47:22Z</time>
      </trkpt>
      <trkpt lat="43.55058" lon="3.31904">
        <ele>359.7</ele>
        <time>2016-07-31T06:47:25Z</time>
      </trkpt>
      <trkpt lat="43.55065" lon="3.31901">
        <ele>359.9</ele>
        <time>2016-07-31T06:47:28Z</time>
      </trkpt>
      <trkpt lat="43.55072" lon="3.31896">
        <ele>360.1</ele>
        <time>2016-07-31T06:47:31Z</time>
      </trkpt>
      <trkpt lat="43.55079" lon="3.31892">
        <ele>360.2</ele>
        <time>2016-07-31T06:47:34Z</time>
      </trkpt>
      <trkpt lat="43.55086" lon="3.31889">
        <ele>360.4</ele>
        <time>2016-07-31T06:47:37Z</time>
      </trkpt>
      <trkpt lat="43.55095" lon="3.31883">
        <ele>360.7</ele>
        <time>2016-07-31T06:47:41Z</time>
      </trkpt>
      <trkpt lat="43.55103" lon="3.31879">
        <ele>360.9</ele>
        <time>2016-07-31T06:47:45Z</time>
      </trkpt>
      <trkpt lat="43.55111" lon="3.31874">
        <ele>361.2</ele>
        <time>2016-07-31T06:47:49Z</time>
      </trkpt>
      <trkpt lat="43.55118" lon="3.31871">
        <ele>361.4</ele>
        <time>2016-07-31T06:47:52Z</time>
      </trkpt>
      <trkpt lat="43.55126" lon="3.31868">
        <ele>361.6</ele>
        <time>2016-07-31T06:47:55Z</time>
      </trkpt>
      <trkpt lat="43.55134" lon="3.31867">
        <ele>361.9</ele>
        <time>2016-07-31T06:47:58Z</time>
      </trkpt>
      <trkpt lat="43.55143" lon="3.31864">
        <ele>362.2</ele>
        <time>2016-07-31T06:48:02Z</time>
      </trkpt>
      <trkpt lat="43.55152" lon="3.31861">
        <ele>362.6</ele>
        <time>2016-07-31T06:48:05Z</time>
      </trkpt>
      <trkpt lat="43.5516" lon="3.31858">
        <ele>363</ele>
        <time>2016-07-31T06:48:09Z</time>
      </trkpt>
      <trkpt lat="43.55168" lon="3.31857">
        <ele>363.6</ele>
        <time>2016-07-31T06:48:13Z</time>
      </trkpt>
      <trkpt lat="43.55177" lon="3.3186">
        <ele>364.1</ele>
        <time>2016-07-31T06:48:17Z</time>
      </trkpt>
      <trkpt lat="43.55186" lon="3.31862">
        <ele>364.8</ele>
        <time>2016-07-31T06:48:21Z</time>
      </trkpt>
      <trkpt lat="43.55194" lon="3.31863">
        <ele>365.5</ele>
        <time>2016-07-31T06:48:25Z</time>
      </trkpt>
      <trkpt lat="43.55202" lon="3.31862">
        <ele>366.4</ele>
        <time>2016-07-31T06:48:29Z</time>
      </trkpt>
      <trkpt lat="43.5521" lon="3.31858">
        <ele>367.3</ele>
        <time>2016-07-31T06:48:33Z</time>
      </trkpt>
      <trkpt lat="43.55218" lon="3.31855">
        <ele>368.5</ele>
        <time>2016-07-31T06:48:38Z</time>
      </trkpt>
      <trkpt lat="43.55226" lon="3.31855">
        <ele>369.8</ele>
        <time>2016-07-31T06:48:43Z</time>
      </trkpt>
      <trkpt lat="43.55233" lon="3.31857">
        <ele>370.6</ele>
        <time>2016-07-31T06:48:48Z</time>
      </trkpt>
      <trkpt lat="43.5524" lon="3.31857">
        <ele>371.6</ele>
        <time>2016-07-31T06:48:53Z</time>
      </trkpt>
      <trkpt lat="43.55248" lon="3.31857">
        <ele>372.5</ele>
        <time>2016-07-31T06:48:57Z</time>
      </trkpt>
      <trkpt lat="43.55256" lon="3.31857">
        <ele>373.3</ele>
        <time>2016-07-31T06:49:01Z</time>
      </trkpt>
      <trkpt lat="43.55264" lon="3.31857">
        <ele>374.2</ele>
        <time>2016-07-31T06:49:05Z</time>
      </trkpt>
      <trkpt lat="43.55274" lon="3.31856">
        <ele>374.7</ele>
        <time>2016-07-31T06:49:09Z</time>
      </trkpt>
      <trkpt lat="43.55281" lon="3.31855">
        <ele>375.2</ele>
        <time>2016-07-31T06:49:13Z</time>
      </trkpt>
      <trkpt lat="43.55288" lon="3.31854">
        <ele>375.9</ele>
        <time>2016-07-31T06:49:17Z</time>
      </trkpt>
      <trkpt lat="43.55296" lon="3.31853">
        <ele>376.6</ele>
        <time>2016-07-31T06:49:21Z</time>
      </trkpt>
      <trkpt lat="43.55304" lon="3.31851">
        <ele>377.1</ele>
        <time>2016-07-31T06:49:24Z</time>
      </trkpt>
      <trkpt lat="43.55314" lon="3.31849">
        <ele>377.5</ele>
        <time>2016-07-31T06:49:27Z</time>
      </trkpt>
      <trkpt lat="43.55322" lon="3.31847">
        <ele>379.6</ele>
        <time>2016-07-31T06:49:29Z</time>
      </trkpt>
      <trkpt lat="43.5533" lon="3.31845">
        <ele>380.6</ele>
        <time>2016-07-31T06:49:31Z</time>
      </trkpt>
      <trkpt lat="43.5534" lon="3.31842">
        <ele>380.9</ele>
        <time>2016-07-31T06:49:33Z</time>
      </trkpt>
      <trkpt lat="43.55351" lon="3.31838">
        <ele>380.7</ele>
        <time>2016-07-31T06:49:35Z</time>
      </trkpt>
      <trkpt lat="43.5536" lon="3.31832">
        <ele>380.3</ele>
        <time>2016-07-31T06:49:37Z</time>
      </trkpt>
      <trkpt lat="43.55368" lon="3.31825">
        <ele>379.9</ele>
        <time>2016-07-31T06:49:39Z</time>
      </trkpt>
      <trkpt lat="43.55375" lon="3.31817">
        <ele>379.4</ele>
        <time>2016-07-31T06:49:41Z</time>
      </trkpt>
      <trkpt lat="43.55383" lon="3.3181">
        <ele>378.9</ele>
        <time>2016-07-31T06:49:43Z</time>
      </trkpt>
      <trkpt lat="43.5539" lon="3.31804">
        <ele>378.3</ele>
        <time>2016-07-31T06:49:45Z</time>
      </trkpt>
      <trkpt lat="43.55399" lon="3.318">
        <ele>377.8</ele>
        <time>2016-07-31T06:49:47Z</time>
      </trkpt>
      <trkpt lat="43.55408" lon="3.31793">
        <ele>377.5</ele>
        <time>2016-07-31T06:49:49Z</time>
      </trkpt>
      <trkpt lat="43.55417" lon="3.31785">
        <ele>377.3</ele>
        <time>2016-07-31T06:49:51Z</time>
      </trkpt>
      <trkpt lat="43.55424" lon="3.31776">
        <ele>377.7</ele>
        <time>2016-07-31T06:49:53Z</time>
      </trkpt>
      <trkpt lat="43.55429" lon="3.3177">
        <ele>377.9</ele>
        <time>2016-07-31T06:49:55Z</time>
      </trkpt>
      <trkpt lat="43.55437" lon="3.31762">
        <ele>377.9</ele>
        <time>2016-07-31T06:49:58Z</time>
      </trkpt>
      <trkpt lat="43.55444" lon="3.31754">
        <ele>377.9</ele>
        <time>2016-07-31T06:50:01Z</time>
      </trkpt>
      <trkpt lat="43.5545" lon="3.31747">
        <ele>378</ele>
        <time>2016-07-31T06:50:04Z</time>
      </trkpt>
      <trkpt lat="43.55458" lon="3.31739">
        <ele>378.1</ele>
        <time>2016-07-31T06:50:07Z</time>
      </trkpt>
      <trkpt lat="43.55464" lon="3.31734">
        <ele>378.5</ele>
        <time>2016-07-31T06:50:10Z</time>
      </trkpt>
      <trkpt lat="43.55472" lon="3.31728">
        <ele>378.9</ele>
        <time>2016-07-31T06:50:13Z</time>
      </trkpt>
      <trkpt lat="43.55479" lon="3.31722">
        <ele>379.2</ele>
        <time>2016-07-31T06:50:16Z</time>
      </trkpt>
      <trkpt lat="43.55484" lon="3.31715">
        <ele>379.4</ele>
        <time>2016-07-31T06:50:19Z</time>
      </trkpt>
      <trkpt lat="43.55489" lon="3.31706">
        <ele>379.7</ele>
        <time>2016-07-31T06:50:23Z</time>
      </trkpt>
      <trkpt lat="43.55495" lon="3.31696">
        <ele>380</ele>
        <time>2016-07-31T06:50:27Z</time>
      </trkpt>
      <trkpt lat="43.55501" lon="3.3169">
        <ele>380.3</ele>
        <time>2016-07-31T06:50:30Z</time>
      </trkpt>
      <trkpt lat="43.55509" lon="3.31687">
        <ele>380.6</ele>
        <time>2016-07-31T06:50:33Z</time>
      </trkpt>
      <trkpt lat="43.55516" lon="3.31686">
        <ele>381</ele>
        <time>2016-07-31T06:50:36Z</time>
      </trkpt>
      <trkpt lat="43.55525" lon="3.31685">
        <ele>381.7</ele>
        <time>2016-07-31T06:50:40Z</time>
      </trkpt>
      <trkpt lat="43.55533" lon="3.31684">
        <ele>382.3</ele>
        <time>2016-07-31T06:50:44Z</time>
      </trkpt>
      <trkpt lat="43.55541" lon="3.31682">
        <ele>382.9</ele>
        <time>2016-07-31T06:50:48Z</time>
      </trkpt>
      <trkpt lat="43.55548" lon="3.3168">
        <ele>383.7</ele>
        <time>2016-07-31T06:50:53Z</time>
      </trkpt>
      <trkpt lat="43.55549" lon="3.31679">
        <ele>384.3</ele>
        <time>2016-07-31T06:51:00Z</time>
      </trkpt>
      <trkpt lat="43.55557" lon="3.31679">
        <ele>386.1</ele>
        <time>2016-07-31T06:52:48Z</time>
      </trkpt>
      <trkpt lat="43.55567" lon="3.31678">
        <ele>386.2</ele>
        <time>2016-07-31T06:52:51Z</time>
      </trkpt>
      <trkpt lat="43.55576" lon="3.3168">
        <ele>386.9</ele>
        <time>2016-07-31T06:52:53Z</time>
      </trkpt>
      <trkpt lat="43.55585" lon="3.31683">
        <ele>387.3</ele>
        <time>2016-07-31T06:52:55Z</time>
      </trkpt>
      <trkpt lat="43.55595" lon="3.31683">
        <ele>386.7</ele>
        <time>2016-07-31T06:52:57Z</time>
      </trkpt>
      <trkpt lat="43.55605" lon="3.31678">
        <ele>385.6</ele>
        <time>2016-07-31T06:52:59Z</time>
      </trkpt>
      <trkpt lat="43.55615" lon="3.31674">
        <ele>384.2</ele>
        <time>2016-07-31T06:53:01Z</time>
      </trkpt>
      <trkpt lat="43.55628" lon="3.31671">
        <ele>383.2</ele>
        <time>2016-07-31T06:53:03Z</time>
      </trkpt>
      <trkpt lat="43.55641" lon="3.31669">
        <ele>381.9</ele>
        <time>2016-07-31T06:53:05Z</time>
      </trkpt>
      <trkpt lat="43.55655" lon="3.31668">
        <ele>379.6</ele>
        <time>2016-07-31T06:53:07Z</time>
      </trkpt>
      <trkpt lat="43.55663" lon="3.31667">
        <ele>378.5</ele>
        <time>2016-07-31T06:53:08Z</time>
      </trkpt>
      <trkpt lat="43.5567" lon="3.31665">
        <ele>377.3</ele>
        <time>2016-07-31T06:53:09Z</time>
      </trkpt>
      <trkpt lat="43.55684" lon="3.31667">
        <ele>375.3</ele>
        <time>2016-07-31T06:53:11Z</time>
      </trkpt>
      <trkpt lat="43.55695" lon="3.31674">
        <ele>373.3</ele>
        <time>2016-07-31T06:53:13Z</time>
      </trkpt>
      <trkpt lat="43.55709" lon="3.31677">
        <ele>371.6</ele>
        <time>2016-07-31T06:53:15Z</time>
      </trkpt>
      <trkpt lat="43.55717" lon="3.31679">
        <ele>370.8</ele>
        <time>2016-07-31T06:53:16Z</time>
      </trkpt>
      <trkpt lat="43.55725" lon="3.3168">
        <ele>370.1</ele>
        <time>2016-07-31T06:53:17Z</time>
      </trkpt>
      <trkpt lat="43.55733" lon="3.31683">
        <ele>369.1</ele>
        <time>2016-07-31T06:53:18Z</time>
      </trkpt>
      <trkpt lat="43.55741" lon="3.31681">
        <ele>368.2</ele>
        <time>2016-07-31T06:53:19Z</time>
      </trkpt>
      <trkpt lat="43.55752" lon="3.31677">
        <ele>366.8</ele>
        <time>2016-07-31T06:53:21Z</time>
      </trkpt>
      <trkpt lat="43.55757" lon="3.31665">
        <ele>366.7</ele>
        <time>2016-07-31T06:53:24Z</time>
      </trkpt>
      <trkpt lat="43.55757" lon="3.31654">
        <ele>366.7</ele>
        <time>2016-07-31T06:53:27Z</time>
      </trkpt>
      <trkpt lat="43.55755" lon="3.31644">
        <ele>366.5</ele>
        <time>2016-07-31T06:53:30Z</time>
      </trkpt>
      <trkpt lat="43.55752" lon="3.31633">
        <ele>366.3</ele>
        <time>2016-07-31T06:53:33Z</time>
      </trkpt>
      <trkpt lat="43.55755" lon="3.31621">
        <ele>366.1</ele>
        <time>2016-07-31T06:53:36Z</time>
      </trkpt>
      <trkpt lat="43.55755" lon="3.31611">
        <ele>365.9</ele>
        <time>2016-07-31T06:53:38Z</time>
      </trkpt>
      <trkpt lat="43.5576" lon="3.31603">
        <ele>365.6</ele>
        <time>2016-07-31T06:53:40Z</time>
      </trkpt>
      <trkpt lat="43.55764" lon="3.3159">
        <ele>365.1</ele>
        <time>2016-07-31T06:53:43Z</time>
      </trkpt>
      <trkpt lat="43.55767" lon="3.31576">
        <ele>363.2</ele>
        <time>2016-07-31T06:53:46Z</time>
      </trkpt>
      <trkpt lat="43.55768" lon="3.31566">
        <ele>363</ele>
        <time>2016-07-31T06:53:48Z</time>
      </trkpt>
      <trkpt lat="43.55769" lon="3.31556">
        <ele>361.3</ele>
        <time>2016-07-31T06:53:50Z</time>
      </trkpt>
      <trkpt lat="43.55769" lon="3.31545">
        <ele>360.4</ele>
        <time>2016-07-31T06:53:52Z</time>
      </trkpt>
      <trkpt lat="43.5577" lon="3.31534">
        <ele>360.1</ele>
        <time>2016-07-31T06:53:54Z</time>
      </trkpt>
      <trkpt lat="43.55771" lon="3.31522">
        <ele>359.9</ele>
        <time>2016-07-31T06:53:56Z</time>
      </trkpt>
      <trkpt lat="43.55772" lon="3.3151">
        <ele>359.6</ele>
        <time>2016-07-31T06:53:58Z</time>
      </trkpt>
      <trkpt lat="43.55772" lon="3.31497">
        <ele>359.1</ele>
        <time>2016-07-31T06:54:00Z</time>
      </trkpt>
      <trkpt lat="43.55772" lon="3.31485">
        <ele>358.7</ele>
        <time>2016-07-31T06:54:02Z</time>
      </trkpt>
      <trkpt lat="43.55774" lon="3.31471">
        <ele>358.4</ele>
        <time>2016-07-31T06:54:04Z</time>
      </trkpt>
      <trkpt lat="43.55776" lon="3.31457">
        <ele>357.9</ele>
        <time>2016-07-31T06:54:06Z</time>
      </trkpt>
      <trkpt lat="43.55776" lon="3.31441">
        <ele>357.1</ele>
        <time>2016-07-31T06:54:08Z</time>
      </trkpt>
      <trkpt lat="43.55777" lon="3.31426">
        <ele>356.9</ele>
        <time>2016-07-31T06:54:10Z</time>
      </trkpt>
      <trkpt lat="43.55779" lon="3.31415">
        <ele>357.3</ele>
        <time>2016-07-31T06:54:12Z</time>
      </trkpt>
      <trkpt lat="43.55786" lon="3.31405">
        <ele>357.2</ele>
        <time>2016-07-31T06:54:14Z</time>
      </trkpt>
      <trkpt lat="43.55787" lon="3.31394">
        <ele>357.3</ele>
        <time>2016-07-31T06:54:16Z</time>
      </trkpt>
      <trkpt lat="43.55788" lon="3.3138">
        <ele>356.7</ele>
        <time>2016-07-31T06:54:18Z</time>
      </trkpt>
      <trkpt lat="43.55789" lon="3.31367">
        <ele>355.7</ele>
        <time>2016-07-31T06:54:20Z</time>
      </trkpt>
      <trkpt lat="43.55789" lon="3.31351">
        <ele>354.6</ele>
        <time>2016-07-31T06:54:22Z</time>
      </trkpt>
      <trkpt lat="43.5579" lon="3.31339">
        <ele>354.8</ele>
        <time>2016-07-31T06:54:24Z</time>
      </trkpt>
      <trkpt lat="43.55791" lon="3.31324">
        <ele>354.7</ele>
        <time>2016-07-31T06:54:26Z</time>
      </trkpt>
      <trkpt lat="43.55795" lon="3.3131">
        <ele>354.5</ele>
        <time>2016-07-31T06:54:28Z</time>
      </trkpt>
      <trkpt lat="43.55802" lon="3.31299">
        <ele>354</ele>
        <time>2016-07-31T06:54:30Z</time>
      </trkpt>
      <trkpt lat="43.55809" lon="3.31288">
        <ele>353.8</ele>
        <time>2016-07-31T06:54:32Z</time>
      </trkpt>
      <trkpt lat="43.55814" lon="3.31277">
        <ele>353.5</ele>
        <time>2016-07-31T06:54:34Z</time>
      </trkpt>
      <trkpt lat="43.55819" lon="3.31265">
        <ele>353.4</ele>
        <time>2016-07-31T06:54:36Z</time>
      </trkpt>
      <trkpt lat="43.55825" lon="3.31254">
        <ele>353.6</ele>
        <time>2016-07-31T06:54:38Z</time>
      </trkpt>
      <trkpt lat="43.55829" lon="3.31243">
        <ele>353.8</ele>
        <time>2016-07-31T06:54:40Z</time>
      </trkpt>
      <trkpt lat="43.55832" lon="3.31227">
        <ele>352.9</ele>
        <time>2016-07-31T06:54:42Z</time>
      </trkpt>
      <trkpt lat="43.55836" lon="3.31212">
        <ele>352.1</ele>
        <time>2016-07-31T06:54:44Z</time>
      </trkpt>
      <trkpt lat="43.55842" lon="3.31194">
        <ele>350.9</ele>
        <time>2016-07-31T06:54:46Z</time>
      </trkpt>
      <trkpt lat="43.55847" lon="3.31178">
        <ele>350.8</ele>
        <time>2016-07-31T06:54:48Z</time>
      </trkpt>
      <trkpt lat="43.55855" lon="3.31161">
        <ele>351</ele>
        <time>2016-07-31T06:54:50Z</time>
      </trkpt>
      <trkpt lat="43.55863" lon="3.31145">
        <ele>350</ele>
        <time>2016-07-31T06:54:52Z</time>
      </trkpt>
      <trkpt lat="43.55871" lon="3.3113">
        <ele>349.1</ele>
        <time>2016-07-31T06:54:54Z</time>
      </trkpt>
      <trkpt lat="43.55881" lon="3.31121">
        <ele>348.5</ele>
        <time>2016-07-31T06:54:56Z</time>
      </trkpt>
      <trkpt lat="43.55888" lon="3.3111">
        <ele>348.3</ele>
        <time>2016-07-31T06:54:58Z</time>
      </trkpt>
      <trkpt lat="43.55894" lon="3.31099">
        <ele>347.4</ele>
        <time>2016-07-31T06:55:00Z</time>
      </trkpt>
      <trkpt lat="43.55901" lon="3.31094">
        <ele>347.4</ele>
        <time>2016-07-31T06:55:02Z</time>
      </trkpt>
      <trkpt lat="43.55909" lon="3.31096">
        <ele>347.4</ele>
        <time>2016-07-31T06:55:04Z</time>
      </trkpt>
      <trkpt lat="43.55917" lon="3.31097">
        <ele>347.4</ele>
        <time>2016-07-31T06:55:06Z</time>
      </trkpt>
      <trkpt lat="43.55926" lon="3.31096">
        <ele>346.2</ele>
        <time>2016-07-31T06:55:08Z</time>
      </trkpt>
      <trkpt lat="43.55935" lon="3.31104">
        <ele>345.2</ele>
        <time>2016-07-31T06:55:10Z</time>
      </trkpt>
      <trkpt lat="43.55942" lon="3.31115">
        <ele>344.7</ele>
        <time>2016-07-31T06:55:12Z</time>
      </trkpt>
      <trkpt lat="43.55949" lon="3.31128">
        <ele>344.2</ele>
        <time>2016-07-31T06:55:14Z</time>
      </trkpt>
      <trkpt lat="43.55954" lon="3.31135">
        <ele>343.9</ele>
        <time>2016-07-31T06:55:17Z</time>
      </trkpt>
      <trkpt lat="43.5596" lon="3.31127">
        <ele>343.6</ele>
        <time>2016-07-31T06:55:20Z</time>
      </trkpt>
      <trkpt lat="43.55967" lon="3.31114">
        <ele>341.4</ele>
        <time>2016-07-31T06:55:22Z</time>
      </trkpt>
      <trkpt lat="43.55975" lon="3.311">
        <ele>339.4</ele>
        <time>2016-07-31T06:55:24Z</time>
      </trkpt>
      <trkpt lat="43.55982" lon="3.31088">
        <ele>337.9</ele>
        <time>2016-07-31T06:55:26Z</time>
      </trkpt>
      <trkpt lat="43.55988" lon="3.31073">
        <ele>335.6</ele>
        <time>2016-07-31T06:55:28Z</time>
      </trkpt>
      <trkpt lat="43.55993" lon="3.31057">
        <ele>333.6</ele>
        <time>2016-07-31T06:55:30Z</time>
      </trkpt>
      <trkpt lat="43.55996" lon="3.31047">
        <ele>333.4</ele>
        <time>2016-07-31T06:55:32Z</time>
      </trkpt>
      <trkpt lat="43.56002" lon="3.31041">
        <ele>332.1</ele>
        <time>2016-07-31T06:55:54Z</time>
      </trkpt>
      <trkpt lat="43.56009" lon="3.31039">
        <ele>331.5</ele>
        <time>2016-07-31T06:55:59Z</time>
      </trkpt>
      <trkpt lat="43.56017" lon="3.31044">
        <ele>331.1</ele>
        <time>2016-07-31T06:56:03Z</time>
      </trkpt>
      <trkpt lat="43.56026" lon="3.31046">
        <ele>330.8</ele>
        <time>2016-07-31T06:56:07Z</time>
      </trkpt>
      <trkpt lat="43.56034" lon="3.31045">
        <ele>330.7</ele>
        <time>2016-07-31T06:56:10Z</time>
      </trkpt>
      <trkpt lat="43.56044" lon="3.31044">
        <ele>330.5</ele>
        <time>2016-07-31T06:56:13Z</time>
      </trkpt>
      <trkpt lat="43.56055" lon="3.31042">
        <ele>328.3</ele>
        <time>2016-07-31T06:56:16Z</time>
      </trkpt>
      <trkpt lat="43.56063" lon="3.31038">
        <ele>327</ele>
        <time>2016-07-31T06:56:18Z</time>
      </trkpt>
      <trkpt lat="43.56071" lon="3.31034">
        <ele>326</ele>
        <time>2016-07-31T06:56:20Z</time>
      </trkpt>
      <trkpt lat="43.5608" lon="3.3103">
        <ele>325</ele>
        <time>2016-07-31T06:56:22Z</time>
      </trkpt>
      <trkpt lat="43.56091" lon="3.31027">
        <ele>324.8</ele>
        <time>2016-07-31T06:56:24Z</time>
      </trkpt>
      <trkpt lat="43.56103" lon="3.31026">
        <ele>323.9</ele>
        <time>2016-07-31T06:56:26Z</time>
      </trkpt>
      <trkpt lat="43.56115" lon="3.31026">
        <ele>323.7</ele>
        <time>2016-07-31T06:56:28Z</time>
      </trkpt>
      <trkpt lat="43.56123" lon="3.31023">
        <ele>323.1</ele>
        <time>2016-07-31T06:56:30Z</time>
      </trkpt>
      <trkpt lat="43.5613" lon="3.31024">
        <ele>323</ele>
        <time>2016-07-31T06:56:33Z</time>
      </trkpt>
      <trkpt lat="43.56135" lon="3.31037">
        <ele>322.9</ele>
        <time>2016-07-31T06:56:36Z</time>
      </trkpt>
      <trkpt lat="43.56137" lon="3.31047">
        <ele>322.9</ele>
        <time>2016-07-31T06:56:39Z</time>
      </trkpt>
      <trkpt lat="43.56142" lon="3.31057">
        <ele>322.9</ele>
        <time>2016-07-31T06:56:42Z</time>
      </trkpt>
      <trkpt lat="43.56146" lon="3.31066">
        <ele>323.1</ele>
        <time>2016-07-31T06:56:45Z</time>
      </trkpt>
      <trkpt lat="43.56153" lon="3.31077">
        <ele>323.5</ele>
        <time>2016-07-31T06:56:49Z</time>
      </trkpt>
      <trkpt lat="43.56159" lon="3.31086">
        <ele>323.9</ele>
        <time>2016-07-31T06:56:52Z</time>
      </trkpt>
      <trkpt lat="43.56165" lon="3.31094">
        <ele>324.2</ele>
        <time>2016-07-31T06:56:55Z</time>
      </trkpt>
      <trkpt lat="43.5617" lon="3.31101">
        <ele>324.6</ele>
        <time>2016-07-31T06:56:58Z</time>
      </trkpt>
      <trkpt lat="43.56176" lon="3.31112">
        <ele>325</ele>
        <time>2016-07-31T06:57:01Z</time>
      </trkpt>
      <trkpt lat="43.56181" lon="3.31125">
        <ele>325.2</ele>
        <time>2016-07-31T06:57:04Z</time>
      </trkpt>
      <trkpt lat="43.56186" lon="3.31134">
        <ele>325.6</ele>
        <time>2016-07-31T06:57:07Z</time>
      </trkpt>
      <trkpt lat="43.56191" lon="3.31142">
        <ele>325.7</ele>
        <time>2016-07-31T06:57:10Z</time>
      </trkpt>
      <trkpt lat="43.56197" lon="3.31151">
        <ele>326</ele>
        <time>2016-07-31T06:57:13Z</time>
      </trkpt>
      <trkpt lat="43.56202" lon="3.3116">
        <ele>326.6</ele>
        <time>2016-07-31T06:57:17Z</time>
      </trkpt>
      <trkpt lat="43.56207" lon="3.31168">
        <ele>327</ele>
        <time>2016-07-31T06:57:20Z</time>
      </trkpt>
      <trkpt lat="43.56212" lon="3.31175">
        <ele>327.2</ele>
        <time>2016-07-31T06:57:23Z</time>
      </trkpt>
      <trkpt lat="43.56218" lon="3.31183">
        <ele>327.4</ele>
        <time>2016-07-31T06:57:27Z</time>
      </trkpt>
      <trkpt lat="43.56225" lon="3.31192">
        <ele>327.8</ele>
        <time>2016-07-31T06:57:31Z</time>
      </trkpt>
      <trkpt lat="43.56232" lon="3.31199">
        <ele>328.2</ele>
        <time>2016-07-31T06:57:35Z</time>
      </trkpt>
      <trkpt lat="43.56237" lon="3.31207">
        <ele>328.5</ele>
        <time>2016-07-31T06:57:39Z</time>
      </trkpt>
      <trkpt lat="43.56242" lon="3.31216">
        <ele>328.9</ele>
        <time>2016-07-31T06:57:43Z</time>
      </trkpt>
      <trkpt lat="43.56248" lon="3.31223">
        <ele>329.3</ele>
        <time>2016-07-31T06:57:47Z</time>
      </trkpt>
      <trkpt lat="43.56255" lon="3.31229">
        <ele>329.6</ele>
        <time>2016-07-31T06:57:51Z</time>
      </trkpt>
      <trkpt lat="43.56261" lon="3.31235">
        <ele>329.9</ele>
        <time>2016-07-31T06:57:55Z</time>
      </trkpt>
      <trkpt lat="43.56267" lon="3.31242">
        <ele>330.2</ele>
        <time>2016-07-31T06:57:59Z</time>
      </trkpt>
      <trkpt lat="43.56273" lon="3.31247">
        <ele>330.6</ele>
        <time>2016-07-31T06:58:03Z</time>
      </trkpt>
      <trkpt lat="43.56278" lon="3.31255">
        <ele>331.1</ele>
        <time>2016-07-31T06:58:07Z</time>
      </trkpt>
      <trkpt lat="43.56284" lon="3.31262">
        <ele>331.6</ele>
        <time>2016-07-31T06:58:11Z</time>
      </trkpt>
      <trkpt lat="43.56291" lon="3.31268">
        <ele>332.3</ele>
        <time>2016-07-31T06:58:16Z</time>
      </trkpt>
      <trkpt lat="43.563" lon="3.3127">
        <ele>333.1</ele>
        <time>2016-07-31T06:58:22Z</time>
      </trkpt>
      <trkpt lat="43.56306" lon="3.31275">
        <ele>333.9</ele>
        <time>2016-07-31T06:58:27Z</time>
      </trkpt>
      <trkpt lat="43.56314" lon="3.31278">
        <ele>335.2</ele>
        <time>2016-07-31T06:58:34Z</time>
      </trkpt>
      <trkpt lat="43.56323" lon="3.31281">
        <ele>335.8</ele>
        <time>2016-07-31T06:58:38Z</time>
      </trkpt>
      <trkpt lat="43.5633" lon="3.31286">
        <ele>336.9</ele>
        <time>2016-07-31T06:58:40Z</time>
      </trkpt>
      <trkpt lat="43.5634" lon="3.31297">
        <ele>338.6</ele>
        <time>2016-07-31T06:58:42Z</time>
      </trkpt>
      <trkpt lat="43.5635" lon="3.3131">
        <ele>339.6</ele>
        <time>2016-07-31T06:58:44Z</time>
      </trkpt>
      <trkpt lat="43.56358" lon="3.31322">
        <ele>339.9</ele>
        <time>2016-07-31T06:58:46Z</time>
      </trkpt>
      <trkpt lat="43.56366" lon="3.31329">
        <ele>339.3</ele>
        <time>2016-07-31T06:58:48Z</time>
      </trkpt>
      <trkpt lat="43.56376" lon="3.31338">
        <ele>338.5</ele>
        <time>2016-07-31T06:58:50Z</time>
      </trkpt>
      <trkpt lat="43.56383" lon="3.31345">
        <ele>338.1</ele>
        <time>2016-07-31T06:58:52Z</time>
      </trkpt>
      <trkpt lat="43.5639" lon="3.31353">
        <ele>337.6</ele>
        <time>2016-07-31T06:58:54Z</time>
      </trkpt>
      <trkpt lat="43.56399" lon="3.3136">
        <ele>337.7</ele>
        <time>2016-07-31T06:58:56Z</time>
      </trkpt>
      <trkpt lat="43.56408" lon="3.31364">
        <ele>337.5</ele>
        <time>2016-07-31T06:58:58Z</time>
      </trkpt>
      <trkpt lat="43.56417" lon="3.31366">
        <ele>337.5</ele>
        <time>2016-07-31T06:59:00Z</time>
      </trkpt>
      <trkpt lat="43.56426" lon="3.31367">
        <ele>337.4</ele>
        <time>2016-07-31T06:59:02Z</time>
      </trkpt>
      <trkpt lat="43.56436" lon="3.31369">
        <ele>337.3</ele>
        <time>2016-07-31T06:59:04Z</time>
      </trkpt>
      <trkpt lat="43.56445" lon="3.31371">
        <ele>336.9</ele>
        <time>2016-07-31T06:59:06Z</time>
      </trkpt>
      <trkpt lat="43.56453" lon="3.31373">
        <ele>336.9</ele>
        <time>2016-07-31T06:59:08Z</time>
      </trkpt>
      <trkpt lat="43.56462" lon="3.31374">
        <ele>336.8</ele>
        <time>2016-07-31T06:59:10Z</time>
      </trkpt>
      <trkpt lat="43.56471" lon="3.31375">
        <ele>336.8</ele>
        <time>2016-07-31T06:59:12Z</time>
      </trkpt>
      <trkpt lat="43.56479" lon="3.31377">
        <ele>336.7</ele>
        <time>2016-07-31T06:59:14Z</time>
      </trkpt>
      <trkpt lat="43.56487" lon="3.31379">
        <ele>336.6</ele>
        <time>2016-07-31T06:59:16Z</time>
      </trkpt>
      <trkpt lat="43.56494" lon="3.31382">
        <ele>336.5</ele>
        <time>2016-07-31T06:59:18Z</time>
      </trkpt>
      <trkpt lat="43.56503" lon="3.31384">
        <ele>336.3</ele>
        <time>2016-07-31T06:59:20Z</time>
      </trkpt>
      <trkpt lat="43.56511" lon="3.31384">
        <ele>336.2</ele>
        <time>2016-07-31T06:59:22Z</time>
      </trkpt>
      <trkpt lat="43.5652" lon="3.31387">
        <ele>336.1</ele>
        <time>2016-07-31T06:59:24Z</time>
      </trkpt>
      <trkpt lat="43.56527" lon="3.31389">
        <ele>336</ele>
        <time>2016-07-31T06:59:26Z</time>
      </trkpt>
      <trkpt lat="43.56535" lon="3.31392">
        <ele>336</ele>
        <time>2016-07-31T06:59:28Z</time>
      </trkpt>
      <trkpt lat="43.56542" lon="3.31394">
        <ele>335.9</ele>
        <time>2016-07-31T06:59:30Z</time>
      </trkpt>
      <trkpt lat="43.56552" lon="3.31395">
        <ele>335.7</ele>
        <time>2016-07-31T06:59:33Z</time>
      </trkpt>
      <trkpt lat="43.56561" lon="3.31398">
        <ele>335.6</ele>
        <time>2016-07-31T06:59:36Z</time>
      </trkpt>
      <trkpt lat="43.56566" lon="3.31401">
        <ele>335.4</ele>
        <time>2016-07-31T06:59:43Z</time>
      </trkpt>
      <trkpt lat="43.56578" lon="3.31403">
        <ele>335.5</ele>
        <time>2016-07-31T06:59:46Z</time>
      </trkpt>
      <trkpt lat="43.56586" lon="3.31403">
        <ele>335.6</ele>
        <time>2016-07-31T06:59:49Z</time>
      </trkpt>
      <trkpt lat="43.56593" lon="3.31404">
        <ele>335.6</ele>
        <time>2016-07-31T06:59:52Z</time>
      </trkpt>
      <trkpt lat="43.566" lon="3.31404">
        <ele>335.7</ele>
        <time>2016-07-31T06:59:55Z</time>
      </trkpt>
      <trkpt lat="43.56609" lon="3.31404">
        <ele>335.8</ele>
        <time>2016-07-31T06:59:59Z</time>
      </trkpt>
      <trkpt lat="43.56616" lon="3.31412">
        <ele>336</ele>
        <time>2016-07-31T07:00:03Z</time>
      </trkpt>
      <trkpt lat="43.56625" lon="3.31414">
        <ele>336.2</ele>
        <time>2016-07-31T07:00:07Z</time>
      </trkpt>
      <trkpt lat="43.56633" lon="3.31417">
        <ele>336.4</ele>
        <time>2016-07-31T07:00:11Z</time>
      </trkpt>
      <trkpt lat="43.5664" lon="3.31412">
        <ele>336.8</ele>
        <time>2016-07-31T07:00:16Z</time>
      </trkpt>
      <trkpt lat="43.56647" lon="3.31406">
        <ele>337.1</ele>
        <time>2016-07-31T07:00:20Z</time>
      </trkpt>
      <trkpt lat="43.56654" lon="3.31402">
        <ele>337.3</ele>
        <time>2016-07-31T07:00:24Z</time>
      </trkpt>
      <trkpt lat="43.56662" lon="3.314">
        <ele>337.5</ele>
        <time>2016-07-31T07:00:29Z</time>
      </trkpt>
      <trkpt lat="43.56669" lon="3.314">
        <ele>338</ele>
        <time>2016-07-31T07:00:34Z</time>
      </trkpt>
      <trkpt lat="43.56678" lon="3.31401">
        <ele>338.6</ele>
        <time>2016-07-31T07:00:40Z</time>
      </trkpt>
      <trkpt lat="43.56686" lon="3.31398">
        <ele>338.9</ele>
        <time>2016-07-31T07:00:44Z</time>
      </trkpt>
      <trkpt lat="43.56695" lon="3.31398">
        <ele>339.7</ele>
        <time>2016-07-31T07:00:50Z</time>
      </trkpt>
      <trkpt lat="43.56704" lon="3.31397">
        <ele>341</ele>
        <time>2016-07-31T07:00:57Z</time>
      </trkpt>
      <trkpt lat="43.56713" lon="3.31397">
        <ele>341.7</ele>
        <time>2016-07-31T07:01:01Z</time>
      </trkpt>
      <trkpt lat="43.56721" lon="3.31396">
        <ele>342.5</ele>
        <time>2016-07-31T07:01:06Z</time>
      </trkpt>
      <trkpt lat="43.56729" lon="3.31399">
        <ele>342.9</ele>
        <time>2016-07-31T07:01:09Z</time>
      </trkpt>
      <trkpt lat="43.56738" lon="3.31401">
        <ele>343.4</ele>
        <time>2016-07-31T07:01:12Z</time>
      </trkpt>
      <trkpt lat="43.56745" lon="3.31404">
        <ele>343.7</ele>
        <time>2016-07-31T07:01:15Z</time>
      </trkpt>
      <trkpt lat="43.56753" lon="3.31406">
        <ele>344</ele>
        <time>2016-07-31T07:01:19Z</time>
      </trkpt>
      <trkpt lat="43.56761" lon="3.31405">
        <ele>344.4</ele>
        <time>2016-07-31T07:01:24Z</time>
      </trkpt>
      <trkpt lat="43.56768" lon="3.31402">
        <ele>344.8</ele>
        <time>2016-07-31T07:01:28Z</time>
      </trkpt>
      <trkpt lat="43.56777" lon="3.31398">
        <ele>345.2</ele>
        <time>2016-07-31T07:01:33Z</time>
      </trkpt>
      <trkpt lat="43.56783" lon="3.31391">
        <ele>345.8</ele>
        <time>2016-07-31T07:01:38Z</time>
      </trkpt>
      <trkpt lat="43.56792" lon="3.31387">
        <ele>346</ele>
        <time>2016-07-31T07:01:44Z</time>
      </trkpt>
      <trkpt lat="43.568" lon="3.31382">
        <ele>346.4</ele>
        <time>2016-07-31T07:01:50Z</time>
      </trkpt>
      <trkpt lat="43.56808" lon="3.31378">
        <ele>346.6</ele>
        <time>2016-07-31T07:01:54Z</time>
      </trkpt>
      <trkpt lat="43.56816" lon="3.31377">
        <ele>347.4</ele>
        <time>2016-07-31T07:01:59Z</time>
      </trkpt>
      <trkpt lat="43.56824" lon="3.31379">
        <ele>348.3</ele>
        <time>2016-07-31T07:02:04Z</time>
      </trkpt>
      <trkpt lat="43.56833" lon="3.31381">
        <ele>349.1</ele>
        <time>2016-07-31T07:02:09Z</time>
      </trkpt>
      <trkpt lat="43.56842" lon="3.31379">
        <ele>349.6</ele>
        <time>2016-07-31T07:02:13Z</time>
      </trkpt>
      <trkpt lat="43.5685" lon="3.31377">
        <ele>349.9</ele>
        <time>2016-07-31T07:02:16Z</time>
      </trkpt>
      <trkpt lat="43.56859" lon="3.31376">
        <ele>350.2</ele>
        <time>2016-07-31T07:02:19Z</time>
      </trkpt>
      <trkpt lat="43.56868" lon="3.31375">
        <ele>350.7</ele>
        <time>2016-07-31T07:02:22Z</time>
      </trkpt>
      <trkpt lat="43.56878" lon="3.31375">
        <ele>351</ele>
        <time>2016-07-31T07:02:25Z</time>
      </trkpt>
      <trkpt lat="43.56886" lon="3.31374">
        <ele>351.3</ele>
        <time>2016-07-31T07:02:27Z</time>
      </trkpt>
      <trkpt lat="43.56894" lon="3.31372">
        <ele>351.4</ele>
        <time>2016-07-31T07:02:29Z</time>
      </trkpt>
      <trkpt lat="43.56903" lon="3.31369">
        <ele>351.6</ele>
        <time>2016-07-31T07:02:31Z</time>
      </trkpt>
      <trkpt lat="43.56913" lon="3.31363">
        <ele>352</ele>
        <time>2016-07-31T07:02:34Z</time>
      </trkpt>
      <trkpt lat="43.5692" lon="3.31357">
        <ele>352.3</ele>
        <time>2016-07-31T07:02:37Z</time>
      </trkpt>
      <trkpt lat="43.5693" lon="3.3135">
        <ele>352.6</ele>
        <time>2016-07-31T07:02:40Z</time>
      </trkpt>
      <trkpt lat="43.56936" lon="3.31344">
        <ele>352.7</ele>
        <time>2016-07-31T07:02:42Z</time>
      </trkpt>
      <trkpt lat="43.56944" lon="3.31339">
        <ele>352.8</ele>
        <time>2016-07-31T07:02:45Z</time>
      </trkpt>
      <trkpt lat="43.56951" lon="3.31332">
        <ele>353</ele>
        <time>2016-07-31T07:02:48Z</time>
      </trkpt>
      <trkpt lat="43.56959" lon="3.31325">
        <ele>353.1</ele>
        <time>2016-07-31T07:02:51Z</time>
      </trkpt>
      <trkpt lat="43.56965" lon="3.31318">
        <ele>353.3</ele>
        <time>2016-07-31T07:02:54Z</time>
      </trkpt>
      <trkpt lat="43.56974" lon="3.31312">
        <ele>353.6</ele>
        <time>2016-07-31T07:02:57Z</time>
      </trkpt>
      <trkpt lat="43.56981" lon="3.31308">
        <ele>353.7</ele>
        <time>2016-07-31T07:03:00Z</time>
      </trkpt>
      <trkpt lat="43.5699" lon="3.31304">
        <ele>353.7</ele>
        <time>2016-07-31T07:03:03Z</time>
      </trkpt>
      <trkpt lat="43.56998" lon="3.313">
        <ele>353.8</ele>
        <time>2016-07-31T07:03:06Z</time>
      </trkpt>
      <trkpt lat="43.57005" lon="3.31297">
        <ele>353.9</ele>
        <time>2016-07-31T07:03:09Z</time>
      </trkpt>
      <trkpt lat="43.57014" lon="3.31296">
        <ele>354</ele>
        <time>2016-07-31T07:03:13Z</time>
      </trkpt>
      <trkpt lat="43.57022" lon="3.31296">
        <ele>354.2</ele>
        <time>2016-07-31T07:03:16Z</time>
      </trkpt>
      <trkpt lat="43.5703" lon="3.31297">
        <ele>354.6</ele>
        <time>2016-07-31T07:03:20Z</time>
      </trkpt>
      <trkpt lat="43.57038" lon="3.31293">
        <ele>355</ele>
        <time>2016-07-31T07:03:24Z</time>
      </trkpt>
      <trkpt lat="43.57047" lon="3.31288">
        <ele>355.3</ele>
        <time>2016-07-31T07:03:28Z</time>
      </trkpt>
      <trkpt lat="43.57053" lon="3.31284">
        <ele>355.6</ele>
        <time>2016-07-31T07:03:32Z</time>
      </trkpt>
      <trkpt lat="43.5706" lon="3.3128">
        <ele>355.8</ele>
        <time>2016-07-31T07:03:36Z</time>
      </trkpt>
      <trkpt lat="43.57068" lon="3.31282">
        <ele>356.1</ele>
        <time>2016-07-31T07:03:40Z</time>
      </trkpt>
      <trkpt lat="43.57073" lon="3.31289">
        <ele>356.4</ele>
        <time>2016-07-31T07:03:43Z</time>
      </trkpt>
      <trkpt lat="43.57078" lon="3.31298">
        <ele>357.1</ele>
        <time>2016-07-31T07:03:47Z</time>
      </trkpt>
      <trkpt lat="43.57083" lon="3.31307">
        <ele>358.1</ele>
        <time>2016-07-31T07:03:51Z</time>
      </trkpt>
      <trkpt lat="43.57089" lon="3.31316">
        <ele>359.1</ele>
        <time>2016-07-31T07:03:57Z</time>
      </trkpt>
      <trkpt lat="43.57094" lon="3.31324">
        <ele>359.8</ele>
        <time>2016-07-31T07:04:01Z</time>
      </trkpt>
      <trkpt lat="43.571" lon="3.31332">
        <ele>360.7</ele>
        <time>2016-07-31T07:04:06Z</time>
      </trkpt>
      <trkpt lat="43.57107" lon="3.3134">
        <ele>361.7</ele>
        <time>2016-07-31T07:04:11Z</time>
      </trkpt>
      <trkpt lat="43.57113" lon="3.31347">
        <ele>362.8</ele>
        <time>2016-07-31T07:04:17Z</time>
      </trkpt>
      <trkpt lat="43.57119" lon="3.31353">
        <ele>363.8</ele>
        <time>2016-07-31T07:04:22Z</time>
      </trkpt>
      <trkpt lat="43.57126" lon="3.3136">
        <ele>364.9</ele>
        <time>2016-07-31T07:04:27Z</time>
      </trkpt>
      <trkpt lat="43.57134" lon="3.31366">
        <ele>366.1</ele>
        <time>2016-07-31T07:04:33Z</time>
      </trkpt>
      <trkpt lat="43.57141" lon="3.3137">
        <ele>366.9</ele>
        <time>2016-07-31T07:04:37Z</time>
      </trkpt>
      <trkpt lat="43.57148" lon="3.31374">
        <ele>367.7</ele>
        <time>2016-07-31T07:04:41Z</time>
      </trkpt>
      <trkpt lat="43.57154" lon="3.31379">
        <ele>368.3</ele>
        <time>2016-07-31T07:04:45Z</time>
      </trkpt>
      <trkpt lat="43.57162" lon="3.31383">
        <ele>369.3</ele>
        <time>2016-07-31T07:04:51Z</time>
      </trkpt>
      <trkpt lat="43.5717" lon="3.31386">
        <ele>370.2</ele>
        <time>2016-07-31T07:04:57Z</time>
      </trkpt>
      <trkpt lat="43.57177" lon="3.31388">
        <ele>370.9</ele>
        <time>2016-07-31T07:05:02Z</time>
      </trkpt>
      <trkpt lat="43.57185" lon="3.3139">
        <ele>371.7</ele>
        <time>2016-07-31T07:05:07Z</time>
      </trkpt>
      <trkpt lat="43.57193" lon="3.31393">
        <ele>373</ele>
        <time>2016-07-31T07:05:13Z</time>
      </trkpt>
      <trkpt lat="43.57201" lon="3.31396">
        <ele>373.9</ele>
        <time>2016-07-31T07:05:19Z</time>
      </trkpt>
      <trkpt lat="43.5721" lon="3.31398">
        <ele>374.5</ele>
        <time>2016-07-31T07:05:23Z</time>
      </trkpt>
      <trkpt lat="43.57217" lon="3.31397">
        <ele>375</ele>
        <time>2016-07-31T07:05:27Z</time>
      </trkpt>
      <trkpt lat="43.57226" lon="3.31397">
        <ele>375.4</ele>
        <time>2016-07-31T07:05:31Z</time>
      </trkpt>
      <trkpt lat="43.57235" lon="3.31398">
        <ele>375.9</ele>
        <time>2016-07-31T07:05:35Z</time>
      </trkpt>
      <trkpt lat="43.57244" lon="3.31398">
        <ele>376.1</ele>
        <time>2016-07-31T07:05:38Z</time>
      </trkpt>
      <trkpt lat="43.57253" lon="3.31398">
        <ele>376.4</ele>
        <time>2016-07-31T07:05:42Z</time>
      </trkpt>
      <trkpt lat="43.57262" lon="3.31398">
        <ele>376.8</ele>
        <time>2016-07-31T07:05:46Z</time>
      </trkpt>
      <trkpt lat="43.57271" lon="3.31399">
        <ele>377.1</ele>
        <time>2016-07-31T07:05:50Z</time>
      </trkpt>
      <trkpt lat="43.57279" lon="3.31398">
        <ele>377.3</ele>
        <time>2016-07-31T07:05:54Z</time>
      </trkpt>
      <trkpt lat="43.57287" lon="3.31395">
        <ele>377.7</ele>
        <time>2016-07-31T07:05:58Z</time>
      </trkpt>
      <trkpt lat="43.57295" lon="3.31392">
        <ele>378</ele>
        <time>2016-07-31T07:06:02Z</time>
      </trkpt>
      <trkpt lat="43.57303" lon="3.31391">
        <ele>378.2</ele>
        <time>2016-07-31T07:06:05Z</time>
      </trkpt>
      <trkpt lat="43.57311" lon="3.31392">
        <ele>378.5</ele>
        <time>2016-07-31T07:06:09Z</time>
      </trkpt>
      <trkpt lat="43.57319" lon="3.31394">
        <ele>378.7</ele>
        <time>2016-07-31T07:06:12Z</time>
      </trkpt>
      <trkpt lat="43.57328" lon="3.31393">
        <ele>378.9</ele>
        <time>2016-07-31T07:06:16Z</time>
      </trkpt>
      <trkpt lat="43.57336" lon="3.31394">
        <ele>379.2</ele>
        <time>2016-07-31T07:06:20Z</time>
      </trkpt>
      <trkpt lat="43.57343" lon="3.31396">
        <ele>379.8</ele>
        <time>2016-07-31T07:06:24Z</time>
      </trkpt>
      <trkpt lat="43.5735" lon="3.31397">
        <ele>380.5</ele>
        <time>2016-07-31T07:06:28Z</time>
      </trkpt>
      <trkpt lat="43.57358" lon="3.31398">
        <ele>381.2</ele>
        <time>2016-07-31T07:06:32Z</time>
      </trkpt>
      <trkpt lat="43.57365" lon="3.31401">
        <ele>381.9</ele>
        <time>2016-07-31T07:06:36Z</time>
      </trkpt>
      <trkpt lat="43.5737" lon="3.31409">
        <ele>382.3</ele>
        <time>2016-07-31T07:06:40Z</time>
      </trkpt>
      <trkpt lat="43.57373" lon="3.31418">
        <ele>382.8</ele>
        <time>2016-07-31T07:06:43Z</time>
      </trkpt>
      <trkpt lat="43.57376" lon="3.31426">
        <ele>383.3</ele>
        <time>2016-07-31T07:06:47Z</time>
      </trkpt>
      <trkpt lat="43.57381" lon="3.31435">
        <ele>383.9</ele>
        <time>2016-07-31T07:06:51Z</time>
      </trkpt>
      <trkpt lat="43.57385" lon="3.31445">
        <ele>384.3</ele>
        <time>2016-07-31T07:06:55Z</time>
      </trkpt>
      <trkpt lat="43.5739" lon="3.31453">
        <ele>384.9</ele>
        <time>2016-07-31T07:06:59Z</time>
      </trkpt>
      <trkpt lat="43.57392" lon="3.31464">
        <ele>385.5</ele>
        <time>2016-07-31T07:07:03Z</time>
      </trkpt>
      <trkpt lat="43.57392" lon="3.31475">
        <ele>386.6</ele>
        <time>2016-07-31T07:07:10Z</time>
      </trkpt>
      <trkpt lat="43.5739" lon="3.31486">
        <ele>387.3</ele>
        <time>2016-07-31T07:07:15Z</time>
      </trkpt>
      <trkpt lat="43.5739" lon="3.31493">
        <ele>388.4</ele>
        <time>2016-07-31T07:07:22Z</time>
      </trkpt>
      <trkpt lat="43.5739" lon="3.31488">
        <ele>388.8</ele>
        <time>2016-07-31T07:07:29Z</time>
      </trkpt>
      <trkpt lat="43.57394" lon="3.31502">
        <ele>391</ele>
        <time>2016-07-31T07:08:07Z</time>
      </trkpt>
      <trkpt lat="43.57396" lon="3.31512">
        <ele>391.5</ele>
        <time>2016-07-31T07:08:14Z</time>
      </trkpt>
      <trkpt lat="43.57395" lon="3.31524">
        <ele>392.1</ele>
        <time>2016-07-31T07:08:19Z</time>
      </trkpt>
      <trkpt lat="43.57392" lon="3.31534">
        <ele>392.7</ele>
        <time>2016-07-31T07:08:23Z</time>
      </trkpt>
      <trkpt lat="43.57387" lon="3.31544">
        <ele>393.2</ele>
        <time>2016-07-31T07:08:28Z</time>
      </trkpt>
      <trkpt lat="43.57383" lon="3.31552">
        <ele>393.8</ele>
        <time>2016-07-31T07:08:33Z</time>
      </trkpt>
      <trkpt lat="43.57379" lon="3.31562">
        <ele>394.3</ele>
        <time>2016-07-31T07:08:38Z</time>
      </trkpt>
      <trkpt lat="43.57374" lon="3.31573">
        <ele>394.8</ele>
        <time>2016-07-31T07:08:43Z</time>
      </trkpt>
      <trkpt lat="43.57371" lon="3.31581">
        <ele>395.2</ele>
        <time>2016-07-31T07:08:47Z</time>
      </trkpt>
      <trkpt lat="43.57368" lon="3.31592">
        <ele>395.5</ele>
        <time>2016-07-31T07:08:51Z</time>
      </trkpt>
      <trkpt lat="43.57366" lon="3.31603">
        <ele>395.7</ele>
        <time>2016-07-31T07:08:55Z</time>
      </trkpt>
      <trkpt lat="43.57365" lon="3.31616">
        <ele>396</ele>
        <time>2016-07-31T07:08:59Z</time>
      </trkpt>
      <trkpt lat="43.57367" lon="3.31625">
        <ele>396.3</ele>
        <time>2016-07-31T07:09:03Z</time>
      </trkpt>
      <trkpt lat="43.57371" lon="3.31636">
        <ele>396.7</ele>
        <time>2016-07-31T07:09:08Z</time>
      </trkpt>
      <trkpt lat="43.57374" lon="3.31644">
        <ele>397.1</ele>
        <time>2016-07-31T07:09:12Z</time>
      </trkpt>
      <trkpt lat="43.57377" lon="3.31654">
        <ele>397.6</ele>
        <time>2016-07-31T07:09:16Z</time>
      </trkpt>
      <trkpt lat="43.57381" lon="3.31664">
        <ele>398.1</ele>
        <time>2016-07-31T07:09:20Z</time>
      </trkpt>
      <trkpt lat="43.57384" lon="3.31673">
        <ele>398.5</ele>
        <time>2016-07-31T07:09:24Z</time>
      </trkpt>
      <trkpt lat="43.57384" lon="3.31685">
        <ele>399</ele>
        <time>2016-07-31T07:09:29Z</time>
      </trkpt>
      <trkpt lat="43.57383" lon="3.31698">
        <ele>399.2</ele>
        <time>2016-07-31T07:09:33Z</time>
      </trkpt>
      <trkpt lat="43.57383" lon="3.31712">
        <ele>400</ele>
        <time>2016-07-31T07:09:36Z</time>
      </trkpt>
      <trkpt lat="43.57382" lon="3.31725">
        <ele>401.3</ele>
        <time>2016-07-31T07:09:38Z</time>
      </trkpt>
      <trkpt lat="43.57383" lon="3.31738">
        <ele>401.6</ele>
        <time>2016-07-31T07:09:40Z</time>
      </trkpt>
      <trkpt lat="43.57386" lon="3.31753">
        <ele>401.7</ele>
        <time>2016-07-31T07:09:42Z</time>
      </trkpt>
      <trkpt lat="43.57393" lon="3.31769">
        <ele>401.2</ele>
        <time>2016-07-31T07:09:44Z</time>
      </trkpt>
      <trkpt lat="43.57401" lon="3.31783">
        <ele>399.8</ele>
        <time>2016-07-31T07:09:46Z</time>
      </trkpt>
      <trkpt lat="43.57408" lon="3.31797">
        <ele>398.5</ele>
        <time>2016-07-31T07:09:48Z</time>
      </trkpt>
      <trkpt lat="43.57419" lon="3.31822">
        <ele>395.3</ele>
        <time>2016-07-31T07:09:51Z</time>
      </trkpt>
      <trkpt lat="43.57423" lon="3.31832">
        <ele>394.6</ele>
        <time>2016-07-31T07:09:52Z</time>
      </trkpt>
      <trkpt lat="43.57428" lon="3.31839">
        <ele>393.7</ele>
        <time>2016-07-31T07:09:53Z</time>
      </trkpt>
      <trkpt lat="43.57438" lon="3.31846">
        <ele>392.7</ele>
        <time>2016-07-31T07:09:55Z</time>
      </trkpt>
      <trkpt lat="43.5744" lon="3.31856">
        <ele>392.2</ele>
        <time>2016-07-31T07:10:02Z</time>
      </trkpt>
      <trkpt lat="43.57436" lon="3.31865">
        <ele>392.1</ele>
        <time>2016-07-31T07:10:07Z</time>
      </trkpt>
      <trkpt lat="43.57438" lon="3.31874">
        <ele>391.6</ele>
        <time>2016-07-31T07:10:12Z</time>
      </trkpt>
      <trkpt lat="43.57442" lon="3.31884">
        <ele>391</ele>
        <time>2016-07-31T07:10:16Z</time>
      </trkpt>
      <trkpt lat="43.57447" lon="3.31897">
        <ele>390.8</ele>
        <time>2016-07-31T07:10:18Z</time>
      </trkpt>
      <trkpt lat="43.57452" lon="3.31909">
        <ele>389.6</ele>
        <time>2016-07-31T07:10:20Z</time>
      </trkpt>
      <trkpt lat="43.57458" lon="3.31927">
        <ele>386.1</ele>
        <time>2016-07-31T07:10:22Z</time>
      </trkpt>
      <trkpt lat="43.57463" lon="3.31943">
        <ele>384.5</ele>
        <time>2016-07-31T07:10:24Z</time>
      </trkpt>
      <trkpt lat="43.57467" lon="3.31957">
        <ele>381.6</ele>
        <time>2016-07-31T07:10:26Z</time>
      </trkpt>
      <trkpt lat="43.5747" lon="3.31972">
        <ele>380.2</ele>
        <time>2016-07-31T07:10:28Z</time>
      </trkpt>
      <trkpt lat="43.57474" lon="3.31987">
        <ele>378.6</ele>
        <time>2016-07-31T07:10:30Z</time>
      </trkpt>
      <trkpt lat="43.5748" lon="3.32001">
        <ele>376.8</ele>
        <time>2016-07-31T07:10:32Z</time>
      </trkpt>
      <trkpt lat="43.57484" lon="3.32014">
        <ele>376.6</ele>
        <time>2016-07-31T07:10:34Z</time>
      </trkpt>
      <trkpt lat="43.57491" lon="3.32029">
        <ele>375.5</ele>
        <time>2016-07-31T07:10:36Z</time>
      </trkpt>
      <trkpt lat="43.57495" lon="3.32038">
        <ele>374.5</ele>
        <time>2016-07-31T07:10:37Z</time>
      </trkpt>
      <trkpt lat="43.57503" lon="3.32051">
        <ele>371.7</ele>
        <time>2016-07-31T07:10:39Z</time>
      </trkpt>
      <trkpt lat="43.57508" lon="3.32061">
        <ele>370.6</ele>
        <time>2016-07-31T07:10:41Z</time>
      </trkpt>
      <trkpt lat="43.57513" lon="3.3207">
        <ele>370.3</ele>
        <time>2016-07-31T07:10:43Z</time>
      </trkpt>
      <trkpt lat="43.5752" lon="3.32081">
        <ele>367.7</ele>
        <time>2016-07-31T07:10:45Z</time>
      </trkpt>
      <trkpt lat="43.57528" lon="3.32092">
        <ele>364</ele>
        <time>2016-07-31T07:10:47Z</time>
      </trkpt>
      <trkpt lat="43.57529" lon="3.32107">
        <ele>363.8</ele>
        <time>2016-07-31T07:10:49Z</time>
      </trkpt>
      <trkpt lat="43.57529" lon="3.32111">
        <ele>363.4</ele>
        <time>2016-07-31T07:10:56Z</time>
      </trkpt>
      <trkpt lat="43.57532" lon="3.32136">
        <ele>361.7</ele>
        <time>2016-07-31T07:10:33Z</time>
      </trkpt>
      <trkpt lat="43.57533" lon="3.32147">
        <ele>361</ele>
        <time>2016-07-31T07:11:42Z</time>
      </trkpt>
      <trkpt lat="43.57535" lon="3.32157">
        <ele>360.1</ele>
        <time>2016-07-31T07:11:45Z</time>
      </trkpt>
      <trkpt lat="43.57535" lon="3.32167">
        <ele>359.6</ele>
        <time>2016-07-31T07:11:47Z</time>
      </trkpt>
      <trkpt lat="43.57529" lon="3.32178">
        <ele>359</ele>
        <time>2016-07-31T07:11:49Z</time>
      </trkpt>
      <trkpt lat="43.57524" lon="3.32186">
        <ele>358.2</ele>
        <time>2016-07-31T07:11:52Z</time>
      </trkpt>
      <trkpt lat="43.57519" lon="3.32196">
        <ele>357.4</ele>
        <time>2016-07-31T07:11:55Z</time>
      </trkpt>
      <trkpt lat="43.57516" lon="3.32208">
        <ele>354</ele>
        <time>2016-07-31T07:11:57Z</time>
      </trkpt>
      <trkpt lat="43.57526" lon="3.32213">
        <ele>352.5</ele>
        <time>2016-07-31T07:12:05Z</time>
      </trkpt>
      <trkpt lat="43.57532" lon="3.32205">
        <ele>352</ele>
        <time>2016-07-31T07:12:08Z</time>
      </trkpt>
      <trkpt lat="43.57539" lon="3.32201">
        <ele>351.7</ele>
        <time>2016-07-31T07:12:11Z</time>
      </trkpt>
      <trkpt lat="43.57546" lon="3.32196">
        <ele>351.5</ele>
        <time>2016-07-31T07:12:13Z</time>
      </trkpt>
      <trkpt lat="43.57553" lon="3.3219">
        <ele>351.3</ele>
        <time>2016-07-31T07:12:15Z</time>
      </trkpt>
      <trkpt lat="43.57559" lon="3.32181">
        <ele>351</ele>
        <time>2016-07-31T07:12:17Z</time>
      </trkpt>
      <trkpt lat="43.57563" lon="3.32172">
        <ele>350.7</ele>
        <time>2016-07-31T07:12:19Z</time>
      </trkpt>
      <trkpt lat="43.57568" lon="3.32163">
        <ele>349.9</ele>
        <time>2016-07-31T07:12:22Z</time>
      </trkpt>
      <trkpt lat="43.57575" lon="3.3217">
        <ele>348.7</ele>
        <time>2016-07-31T07:12:27Z</time>
      </trkpt>
      <trkpt lat="43.57579" lon="3.3218">
        <ele>348</ele>
        <time>2016-07-31T07:12:30Z</time>
      </trkpt>
      <trkpt lat="43.57584" lon="3.3219">
        <ele>347.2</ele>
        <time>2016-07-31T07:12:34Z</time>
      </trkpt>
      <trkpt lat="43.57584" lon="3.32204">
        <ele>346.1</ele>
        <time>2016-07-31T07:12:39Z</time>
      </trkpt>
      <trkpt lat="43.57592" lon="3.32204">
        <ele>344.1</ele>
        <time>2016-07-31T07:12:45Z</time>
      </trkpt>
      <trkpt lat="43.576" lon="3.322">
        <ele>342.8</ele>
        <time>2016-07-31T07:12:49Z</time>
      </trkpt>
      <trkpt lat="43.57608" lon="3.32198">
        <ele>341.2</ele>
        <time>2016-07-31T07:12:53Z</time>
      </trkpt>
      <trkpt lat="43.57618" lon="3.322">
        <ele>336.8</ele>
        <time>2016-07-31T07:12:56Z</time>
      </trkpt>
      <trkpt lat="43.57628" lon="3.32202">
        <ele>335.8</ele>
        <time>2016-07-31T07:12:59Z</time>
      </trkpt>
      <trkpt lat="43.57637" lon="3.32202">
        <ele>334.6</ele>
        <time>2016-07-31T07:13:02Z</time>
      </trkpt>
      <trkpt lat="43.57645" lon="3.32203">
        <ele>330.6</ele>
        <time>2016-07-31T07:13:04Z</time>
      </trkpt>
      <trkpt lat="43.57658" lon="3.32205">
        <ele>324.9</ele>
        <time>2016-07-31T07:13:06Z</time>
      </trkpt>
      <trkpt lat="43.57666" lon="3.32202">
        <ele>323.8</ele>
        <time>2016-07-31T07:13:07Z</time>
      </trkpt>
      <trkpt lat="43.57676" lon="3.32201">
        <ele>322.3</ele>
        <time>2016-07-31T07:13:08Z</time>
      </trkpt>
      <trkpt lat="43.57683" lon="3.32203">
        <ele>320.8</ele>
        <time>2016-07-31T07:13:09Z</time>
      </trkpt>
      <trkpt lat="43.57692" lon="3.3221">
        <ele>318.8</ele>
        <time>2016-07-31T07:13:11Z</time>
      </trkpt>
      <trkpt lat="43.5769" lon="3.32214">
        <ele>318.6</ele>
        <time>2016-07-31T07:13:18Z</time>
      </trkpt>
      <trkpt lat="43.57685" lon="3.32222">
        <ele>319.8</ele>
        <time>2016-07-31T07:13:37Z</time>
      </trkpt>
      <trkpt lat="43.57681" lon="3.32233">
        <ele>319.4</ele>
        <time>2016-07-31T07:13:41Z</time>
      </trkpt>
      <trkpt lat="43.57679" lon="3.32244">
        <ele>319.3</ele>
        <time>2016-07-31T07:13:44Z</time>
      </trkpt>
      <trkpt lat="43.57676" lon="3.32255">
        <ele>319.2</ele>
        <time>2016-07-31T07:13:48Z</time>
      </trkpt>
      <trkpt lat="43.5767" lon="3.32264">
        <ele>319.1</ele>
        <time>2016-07-31T07:13:53Z</time>
      </trkpt>
      <trkpt lat="43.57666" lon="3.32271">
        <ele>318.9</ele>
        <time>2016-07-31T07:13:56Z</time>
      </trkpt>
      <trkpt lat="43.57661" lon="3.32278">
        <ele>318.7</ele>
        <time>2016-07-31T07:13:58Z</time>
      </trkpt>
      <trkpt lat="43.57652" lon="3.32288">
        <ele>317.5</ele>
        <time>2016-07-31T07:14:01Z</time>
      </trkpt>
      <trkpt lat="43.57644" lon="3.32297">
        <ele>315.7</ele>
        <time>2016-07-31T07:14:03Z</time>
      </trkpt>
      <trkpt lat="43.57638" lon="3.32305">
        <ele>314.9</ele>
        <time>2016-07-31T07:14:05Z</time>
      </trkpt>
      <trkpt lat="43.57632" lon="3.32313">
        <ele>314.8</ele>
        <time>2016-07-31T07:14:07Z</time>
      </trkpt>
      <trkpt lat="43.57625" lon="3.32322">
        <ele>314.9</ele>
        <time>2016-07-31T07:14:09Z</time>
      </trkpt>
      <trkpt lat="43.57619" lon="3.32331">
        <ele>315</ele>
        <time>2016-07-31T07:14:11Z</time>
      </trkpt>
      <trkpt lat="43.57614" lon="3.32343">
        <ele>314.9</ele>
        <time>2016-07-31T07:14:14Z</time>
      </trkpt>
      <trkpt lat="43.57609" lon="3.32352">
        <ele>314.7</ele>
        <time>2016-07-31T07:14:17Z</time>
      </trkpt>
      <trkpt lat="43.57603" lon="3.32358">
        <ele>314.8</ele>
        <time>2016-07-31T07:14:20Z</time>
      </trkpt>
      <trkpt lat="43.57596" lon="3.32362">
        <ele>314.8</ele>
        <time>2016-07-31T07:14:23Z</time>
      </trkpt>
      <trkpt lat="43.57589" lon="3.3237">
        <ele>314.8</ele>
        <time>2016-07-31T07:14:27Z</time>
      </trkpt>
      <trkpt lat="43.57582" lon="3.32376">
        <ele>315</ele>
        <time>2016-07-31T07:14:30Z</time>
      </trkpt>
      <trkpt lat="43.57575" lon="3.32384">
        <ele>315.4</ele>
        <time>2016-07-31T07:14:34Z</time>
      </trkpt>
      <trkpt lat="43.57569" lon="3.32391">
        <ele>315.5</ele>
        <time>2016-07-31T07:14:37Z</time>
      </trkpt>
      <trkpt lat="43.57562" lon="3.32399">
        <ele>315.6</ele>
        <time>2016-07-31T07:14:41Z</time>
      </trkpt>
      <trkpt lat="43.57555" lon="3.32407">
        <ele>315.8</ele>
        <time>2016-07-31T07:14:45Z</time>
      </trkpt>
      <trkpt lat="43.57548" lon="3.32414">
        <ele>316</ele>
        <time>2016-07-31T07:14:48Z</time>
      </trkpt>
      <trkpt lat="43.57541" lon="3.32419">
        <ele>316.3</ele>
        <time>2016-07-31T07:14:51Z</time>
      </trkpt>
      <trkpt lat="43.57534" lon="3.32428">
        <ele>316.5</ele>
        <time>2016-07-31T07:14:55Z</time>
      </trkpt>
      <trkpt lat="43.57529" lon="3.32435">
        <ele>316.9</ele>
        <time>2016-07-31T07:14:59Z</time>
      </trkpt>
      <trkpt lat="43.57521" lon="3.32443">
        <ele>317.2</ele>
        <time>2016-07-31T07:15:03Z</time>
      </trkpt>
      <trkpt lat="43.57515" lon="3.32449">
        <ele>317.5</ele>
        <time>2016-07-31T07:15:07Z</time>
      </trkpt>
      <trkpt lat="43.57509" lon="3.32456">
        <ele>317.7</ele>
        <time>2016-07-31T07:15:10Z</time>
      </trkpt>
      <trkpt lat="43.57503" lon="3.32464">
        <ele>318.2</ele>
        <time>2016-07-31T07:15:15Z</time>
      </trkpt>
      <trkpt lat="43.57496" lon="3.3247">
        <ele>318.8</ele>
        <time>2016-07-31T07:15:19Z</time>
      </trkpt>
      <trkpt lat="43.57488" lon="3.32475">
        <ele>319.7</ele>
        <time>2016-07-31T07:15:24Z</time>
      </trkpt>
      <trkpt lat="43.57481" lon="3.32481">
        <ele>320.5</ele>
        <time>2016-07-31T07:15:28Z</time>
      </trkpt>
      <trkpt lat="43.57473" lon="3.32487">
        <ele>321.6</ele>
        <time>2016-07-31T07:15:34Z</time>
      </trkpt>
      <trkpt lat="43.57477" lon="3.32496">
        <ele>322.6</ele>
        <time>2016-07-31T07:15:41Z</time>
      </trkpt>
      <trkpt lat="43.57483" lon="3.3249">
        <ele>323.2</ele>
        <time>2016-07-31T07:15:45Z</time>
      </trkpt>
      <trkpt lat="43.57491" lon="3.32484">
        <ele>324</ele>
        <time>2016-07-31T07:15:49Z</time>
      </trkpt>
      <trkpt lat="43.57499" lon="3.32479">
        <ele>324.6</ele>
        <time>2016-07-31T07:15:53Z</time>
      </trkpt>
      <trkpt lat="43.57508" lon="3.32475">
        <ele>325</ele>
        <time>2016-07-31T07:15:57Z</time>
      </trkpt>
      <trkpt lat="43.57515" lon="3.3247">
        <ele>325.7</ele>
        <time>2016-07-31T07:16:01Z</time>
      </trkpt>
      <trkpt lat="43.57522" lon="3.32465">
        <ele>326.4</ele>
        <time>2016-07-31T07:16:05Z</time>
      </trkpt>
      <trkpt lat="43.57529" lon="3.32462">
        <ele>327.4</ele>
        <time>2016-07-31T07:16:09Z</time>
      </trkpt>
      <trkpt lat="43.57537" lon="3.3246">
        <ele>328.1</ele>
        <time>2016-07-31T07:16:13Z</time>
      </trkpt>
      <trkpt lat="43.57546" lon="3.32459">
        <ele>328.8</ele>
        <time>2016-07-31T07:16:17Z</time>
      </trkpt>
      <trkpt lat="43.57554" lon="3.32454">
        <ele>329.2</ele>
        <time>2016-07-31T07:16:21Z</time>
      </trkpt>
      <trkpt lat="43.57562" lon="3.32452">
        <ele>329.8</ele>
        <time>2016-07-31T07:16:25Z</time>
      </trkpt>
      <trkpt lat="43.5757" lon="3.32451">
        <ele>330.4</ele>
        <time>2016-07-31T07:16:29Z</time>
      </trkpt>
      <trkpt lat="43.57579" lon="3.32448">
        <ele>331</ele>
        <time>2016-07-31T07:16:33Z</time>
      </trkpt>
      <trkpt lat="43.57586" lon="3.32442">
        <ele>331.9</ele>
        <time>2016-07-31T07:16:38Z</time>
      </trkpt>
      <trkpt lat="43.57594" lon="3.3244">
        <ele>332.6</ele>
        <time>2016-07-31T07:16:42Z</time>
      </trkpt>
      <trkpt lat="43.57602" lon="3.32439">
        <ele>333.6</ele>
        <time>2016-07-31T07:16:46Z</time>
      </trkpt>
      <trkpt lat="43.5761" lon="3.32437">
        <ele>334.3</ele>
        <time>2016-07-31T07:16:49Z</time>
      </trkpt>
      <trkpt lat="43.5762" lon="3.32434">
        <ele>335.2</ele>
        <time>2016-07-31T07:16:53Z</time>
      </trkpt>
      <trkpt lat="43.57628" lon="3.32439">
        <ele>335.8</ele>
        <time>2016-07-31T07:16:56Z</time>
      </trkpt>
      <trkpt lat="43.57635" lon="3.32441">
        <ele>336.4</ele>
        <time>2016-07-31T07:17:00Z</time>
      </trkpt>
      <trkpt lat="43.57643" lon="3.32436">
        <ele>336.9</ele>
        <time>2016-07-31T07:17:04Z</time>
      </trkpt>
      <trkpt lat="43.57647" lon="3.32426">
        <ele>338.3</ele>
        <time>2016-07-31T07:17:11Z</time>
      </trkpt>
      <trkpt lat="43.57653" lon="3.32416">
        <ele>339</ele>
        <time>2016-07-31T07:17:14Z</time>
      </trkpt>
      <trkpt lat="43.57658" lon="3.32407">
        <ele>339.6</ele>
        <time>2016-07-31T07:17:17Z</time>
      </trkpt>
      <trkpt lat="43.57665" lon="3.32398">
        <ele>340.1</ele>
        <time>2016-07-31T07:17:21Z</time>
      </trkpt>
      <trkpt lat="43.57672" lon="3.32389">
        <ele>340.3</ele>
        <time>2016-07-31T07:17:25Z</time>
      </trkpt>
      <trkpt lat="43.57677" lon="3.3238">
        <ele>340.6</ele>
        <time>2016-07-31T07:17:29Z</time>
      </trkpt>
      <trkpt lat="43.57684" lon="3.32374">
        <ele>340.9</ele>
        <time>2016-07-31T07:17:32Z</time>
      </trkpt>
      <trkpt lat="43.5769" lon="3.32366">
        <ele>341.4</ele>
        <time>2016-07-31T07:17:36Z</time>
      </trkpt>
      <trkpt lat="43.57697" lon="3.32358">
        <ele>341.9</ele>
        <time>2016-07-31T07:17:40Z</time>
      </trkpt>
      <trkpt lat="43.57704" lon="3.3235">
        <ele>342.3</ele>
        <time>2016-07-31T07:17:44Z</time>
      </trkpt>
      <trkpt lat="43.57712" lon="3.32343">
        <ele>342.8</ele>
        <time>2016-07-31T07:17:48Z</time>
      </trkpt>
      <trkpt lat="43.57719" lon="3.32337">
        <ele>343.5</ele>
        <time>2016-07-31T07:17:52Z</time>
      </trkpt>
      <trkpt lat="43.57727" lon="3.32331">
        <ele>343.9</ele>
        <time>2016-07-31T07:17:56Z</time>
      </trkpt>
      <trkpt lat="43.57736" lon="3.32327">
        <ele>344.2</ele>
        <time>2016-07-31T07:18:00Z</time>
      </trkpt>
      <trkpt lat="43.57743" lon="3.32322">
        <ele>344.5</ele>
        <time>2016-07-31T07:18:04Z</time>
      </trkpt>
      <trkpt lat="43.5775" lon="3.32316">
        <ele>345.1</ele>
        <time>2016-07-31T07:18:08Z</time>
      </trkpt>
      <trkpt lat="43.57757" lon="3.32311">
        <ele>345.7</ele>
        <time>2016-07-31T07:18:12Z</time>
      </trkpt>
      <trkpt lat="43.57764" lon="3.32308">
        <ele>346.3</ele>
        <time>2016-07-31T07:18:16Z</time>
      </trkpt>
      <trkpt lat="43.57772" lon="3.32302">
        <ele>346.9</ele>
        <time>2016-07-31T07:18:20Z</time>
      </trkpt>
      <trkpt lat="43.57779" lon="3.323">
        <ele>347.7</ele>
        <time>2016-07-31T07:18:24Z</time>
      </trkpt>
      <trkpt lat="43.57788" lon="3.323">
        <ele>348.6</ele>
        <time>2016-07-31T07:18:28Z</time>
      </trkpt>
      <trkpt lat="43.57797" lon="3.32299">
        <ele>349.7</ele>
        <time>2016-07-31T07:18:33Z</time>
      </trkpt>
      <trkpt lat="43.57806" lon="3.323">
        <ele>350.6</ele>
        <time>2016-07-31T07:18:37Z</time>
      </trkpt>
      <trkpt lat="43.57813" lon="3.32302">
        <ele>351.1</ele>
        <time>2016-07-31T07:18:40Z</time>
      </trkpt>
      <trkpt lat="43.57822" lon="3.32305">
        <ele>351.6</ele>
        <time>2016-07-31T07:18:44Z</time>
      </trkpt>
      <trkpt lat="43.57829" lon="3.3231">
        <ele>352.3</ele>
        <time>2016-07-31T07:18:49Z</time>
      </trkpt>
      <trkpt lat="43.57838" lon="3.32317">
        <ele>353.3</ele>
        <time>2016-07-31T07:18:54Z</time>
      </trkpt>
      <trkpt lat="43.57846" lon="3.32322">
        <ele>354.3</ele>
        <time>2016-07-31T07:18:58Z</time>
      </trkpt>
      <trkpt lat="43.57853" lon="3.32329">
        <ele>355.1</ele>
        <time>2016-07-31T07:19:02Z</time>
      </trkpt>
      <trkpt lat="43.5786" lon="3.32335">
        <ele>355.9</ele>
        <time>2016-07-31T07:19:06Z</time>
      </trkpt>
      <trkpt lat="43.57867" lon="3.32342">
        <ele>357.1</ele>
        <time>2016-07-31T07:19:11Z</time>
      </trkpt>
      <trkpt lat="43.57874" lon="3.32345">
        <ele>358</ele>
        <time>2016-07-31T07:19:15Z</time>
      </trkpt>
      <trkpt lat="43.57881" lon="3.3234">
        <ele>359</ele>
        <time>2016-07-31T07:19:19Z</time>
      </trkpt>
      <trkpt lat="43.57885" lon="3.32331">
        <ele>360.2</ele>
        <time>2016-07-31T07:19:25Z</time>
      </trkpt>
      <trkpt lat="43.57887" lon="3.32321">
        <ele>361</ele>
        <time>2016-07-31T07:19:30Z</time>
      </trkpt>
      <trkpt lat="43.57887" lon="3.32308">
        <ele>361.5</ele>
        <time>2016-07-31T07:19:34Z</time>
      </trkpt>
      <trkpt lat="43.57884" lon="3.32295">
        <ele>361.9</ele>
        <time>2016-07-31T07:19:37Z</time>
      </trkpt>
      <trkpt lat="43.57883" lon="3.32284">
        <ele>362.1</ele>
        <time>2016-07-31T07:19:39Z</time>
      </trkpt>
      <trkpt lat="43.57885" lon="3.32273">
        <ele>362.3</ele>
        <time>2016-07-31T07:19:41Z</time>
      </trkpt>
      <trkpt lat="43.57888" lon="3.32261">
        <ele>362.3</ele>
        <time>2016-07-31T07:19:44Z</time>
      </trkpt>
      <trkpt lat="43.57892" lon="3.32247">
        <ele>362.5</ele>
        <time>2016-07-31T07:19:47Z</time>
      </trkpt>
      <trkpt lat="43.57899" lon="3.32236">
        <ele>362.6</ele>
        <time>2016-07-31T07:19:50Z</time>
      </trkpt>
      <trkpt lat="43.57905" lon="3.32227">
        <ele>362.8</ele>
        <time>2016-07-31T07:19:53Z</time>
      </trkpt>
      <trkpt lat="43.57911" lon="3.32219">
        <ele>363.2</ele>
        <time>2016-07-31T07:19:56Z</time>
      </trkpt>
      <trkpt lat="43.57914" lon="3.32208">
        <ele>363.7</ele>
        <time>2016-07-31T07:19:59Z</time>
      </trkpt>
      <trkpt lat="43.57915" lon="3.32196">
        <ele>364.1</ele>
        <time>2016-07-31T07:20:04Z</time>
      </trkpt>
      <trkpt lat="43.57913" lon="3.32184">
        <ele>364.2</ele>
        <time>2016-07-31T07:20:07Z</time>
      </trkpt>
      <trkpt lat="43.57911" lon="3.32173">
        <ele>364.2</ele>
        <time>2016-07-31T07:20:10Z</time>
      </trkpt>
      <trkpt lat="43.57911" lon="3.32161">
        <ele>364.4</ele>
        <time>2016-07-31T07:20:13Z</time>
      </trkpt>
      <trkpt lat="43.57912" lon="3.32151">
        <ele>364.5</ele>
        <time>2016-07-31T07:20:16Z</time>
      </trkpt>
      <trkpt lat="43.57914" lon="3.3214">
        <ele>364.6</ele>
        <time>2016-07-31T07:20:19Z</time>
      </trkpt>
      <trkpt lat="43.57919" lon="3.32127">
        <ele>364.8</ele>
        <time>2016-07-31T07:20:22Z</time>
      </trkpt>
      <trkpt lat="43.57924" lon="3.32119">
        <ele>364.7</ele>
        <time>2016-07-31T07:20:25Z</time>
      </trkpt>
      <trkpt lat="43.57929" lon="3.32112">
        <ele>364.6</ele>
        <time>2016-07-31T07:20:28Z</time>
      </trkpt>
      <trkpt lat="43.57936" lon="3.32105">
        <ele>364.6</ele>
        <time>2016-07-31T07:20:31Z</time>
      </trkpt>
      <trkpt lat="43.57942" lon="3.32098">
        <ele>364.5</ele>
        <time>2016-07-31T07:20:34Z</time>
      </trkpt>
      <trkpt lat="43.57947" lon="3.32089">
        <ele>364.7</ele>
        <time>2016-07-31T07:20:37Z</time>
      </trkpt>
      <trkpt lat="43.57953" lon="3.32082">
        <ele>364.9</ele>
        <time>2016-07-31T07:20:40Z</time>
      </trkpt>
      <trkpt lat="43.57959" lon="3.32074">
        <ele>365.2</ele>
        <time>2016-07-31T07:20:43Z</time>
      </trkpt>
      <trkpt lat="43.57965" lon="3.32066">
        <ele>365.5</ele>
        <time>2016-07-31T07:20:46Z</time>
      </trkpt>
      <trkpt lat="43.57972" lon="3.32058">
        <ele>365.8</ele>
        <time>2016-07-31T07:20:50Z</time>
      </trkpt>
      <trkpt lat="43.5798" lon="3.32052">
        <ele>366.6</ele>
        <time>2016-07-31T07:20:54Z</time>
      </trkpt>
      <trkpt lat="43.57988" lon="3.32046">
        <ele>367.2</ele>
        <time>2016-07-31T07:20:57Z</time>
      </trkpt>
      <trkpt lat="43.57996" lon="3.32039">
        <ele>367.6</ele>
        <time>2016-07-31T07:21:01Z</time>
      </trkpt>
      <trkpt lat="43.58002" lon="3.32033">
        <ele>367.9</ele>
        <time>2016-07-31T07:21:04Z</time>
      </trkpt>
      <trkpt lat="43.58009" lon="3.32025">
        <ele>368.2</ele>
        <time>2016-07-31T07:21:08Z</time>
      </trkpt>
      <trkpt lat="43.58015" lon="3.32019">
        <ele>368.5</ele>
        <time>2016-07-31T07:21:12Z</time>
      </trkpt>
      <trkpt lat="43.58022" lon="3.32012">
        <ele>369</ele>
        <time>2016-07-31T07:21:16Z</time>
      </trkpt>
      <trkpt lat="43.58029" lon="3.32006">
        <ele>369.4</ele>
        <time>2016-07-31T07:21:20Z</time>
      </trkpt>
      <trkpt lat="43.58037" lon="3.32">
        <ele>369.8</ele>
        <time>2016-07-31T07:21:24Z</time>
      </trkpt>
      <trkpt lat="43.58046" lon="3.31997">
        <ele>370.1</ele>
        <time>2016-07-31T07:21:28Z</time>
      </trkpt>
      <trkpt lat="43.58055" lon="3.31999">
        <ele>370.6</ele>
        <time>2016-07-31T07:21:33Z</time>
      </trkpt>
      <trkpt lat="43.58062" lon="3.32001">
        <ele>371.1</ele>
        <time>2016-07-31T07:21:38Z</time>
      </trkpt>
      <trkpt lat="43.58069" lon="3.32006">
        <ele>371.9</ele>
        <time>2016-07-31T07:21:43Z</time>
      </trkpt>
      <trkpt lat="43.58077" lon="3.3201">
        <ele>372.9</ele>
        <time>2016-07-31T07:21:48Z</time>
      </trkpt>
      <trkpt lat="43.58086" lon="3.32013">
        <ele>373.8</ele>
        <time>2016-07-31T07:21:53Z</time>
      </trkpt>
      <trkpt lat="43.58093" lon="3.32014">
        <ele>375</ele>
        <time>2016-07-31T07:21:58Z</time>
      </trkpt>
      <trkpt lat="43.58102" lon="3.32015">
        <ele>375.9</ele>
        <time>2016-07-31T07:22:02Z</time>
      </trkpt>
      <trkpt lat="43.58111" lon="3.32015">
        <ele>376.5</ele>
        <time>2016-07-31T07:22:06Z</time>
      </trkpt>
      <trkpt lat="43.58119" lon="3.32014">
        <ele>377.5</ele>
        <time>2016-07-31T07:22:11Z</time>
      </trkpt>
      <trkpt lat="43.58126" lon="3.32011">
        <ele>378.4</ele>
        <time>2016-07-31T07:22:16Z</time>
      </trkpt>
      <trkpt lat="43.58135" lon="3.32008">
        <ele>379.4</ele>
        <time>2016-07-31T07:22:20Z</time>
      </trkpt>
      <trkpt lat="43.58142" lon="3.32007">
        <ele>380</ele>
        <time>2016-07-31T07:22:24Z</time>
      </trkpt>
      <trkpt lat="43.58139" lon="3.32017">
        <ele>381.3</ele>
        <time>2016-07-31T07:22:30Z</time>
      </trkpt>
      <trkpt lat="43.5813" lon="3.32021">
        <ele>382</ele>
        <time>2016-07-31T07:22:34Z</time>
      </trkpt>
      <trkpt lat="43.58122" lon="3.32026">
        <ele>383.1</ele>
        <time>2016-07-31T07:22:39Z</time>
      </trkpt>
      <trkpt lat="43.58114" lon="3.32031">
        <ele>383.9</ele>
        <time>2016-07-31T07:22:43Z</time>
      </trkpt>
      <trkpt lat="43.58106" lon="3.32036">
        <ele>384.9</ele>
        <time>2016-07-31T07:22:48Z</time>
      </trkpt>
      <trkpt lat="43.58098" lon="3.32041">
        <ele>385.8</ele>
        <time>2016-07-31T07:22:53Z</time>
      </trkpt>
      <trkpt lat="43.5809" lon="3.32044">
        <ele>386.3</ele>
        <time>2016-07-31T07:22:57Z</time>
      </trkpt>
      <trkpt lat="43.58081" lon="3.32047">
        <ele>386.8</ele>
        <time>2016-07-31T07:23:01Z</time>
      </trkpt>
      <trkpt lat="43.58074" lon="3.32051">
        <ele>387.1</ele>
        <time>2016-07-31T07:23:05Z</time>
      </trkpt>
      <trkpt lat="43.58066" lon="3.32055">
        <ele>387.5</ele>
        <time>2016-07-31T07:23:09Z</time>
      </trkpt>
      <trkpt lat="43.58058" lon="3.32062">
        <ele>387.9</ele>
        <time>2016-07-31T07:23:13Z</time>
      </trkpt>
      <trkpt lat="43.58053" lon="3.32069">
        <ele>388.3</ele>
        <time>2016-07-31T07:23:16Z</time>
      </trkpt>
      <trkpt lat="43.58048" lon="3.32076">
        <ele>388.6</ele>
        <time>2016-07-31T07:23:19Z</time>
      </trkpt>
      <trkpt lat="43.58043" lon="3.32084">
        <ele>389</ele>
        <time>2016-07-31T07:23:22Z</time>
      </trkpt>
      <trkpt lat="43.58037" lon="3.32094">
        <ele>389.4</ele>
        <time>2016-07-31T07:23:26Z</time>
      </trkpt>
      <trkpt lat="43.58032" lon="3.32104">
        <ele>389.9</ele>
        <time>2016-07-31T07:23:30Z</time>
      </trkpt>
      <trkpt lat="43.58028" lon="3.32113">
        <ele>390.3</ele>
        <time>2016-07-31T07:23:33Z</time>
      </trkpt>
      <trkpt lat="43.58024" lon="3.32123">
        <ele>390.8</ele>
        <time>2016-07-31T07:23:37Z</time>
      </trkpt>
      <trkpt lat="43.58021" lon="3.32135">
        <ele>391.2</ele>
        <time>2016-07-31T07:23:41Z</time>
      </trkpt>
      <trkpt lat="43.58019" lon="3.32147">
        <ele>391.8</ele>
        <time>2016-07-31T07:23:45Z</time>
      </trkpt>
      <trkpt lat="43.58016" lon="3.32157">
        <ele>392.2</ele>
        <time>2016-07-31T07:23:48Z</time>
      </trkpt>
      <trkpt lat="43.58013" lon="3.32167">
        <ele>392.6</ele>
        <time>2016-07-31T07:23:51Z</time>
      </trkpt>
      <trkpt lat="43.5801" lon="3.32176">
        <ele>392.9</ele>
        <time>2016-07-31T07:23:54Z</time>
      </trkpt>
      <trkpt lat="43.58008" lon="3.32187">
        <ele>393.2</ele>
        <time>2016-07-31T07:23:58Z</time>
      </trkpt>
      <trkpt lat="43.58006" lon="3.32199">
        <ele>393.6</ele>
        <time>2016-07-31T07:24:02Z</time>
      </trkpt>
      <trkpt lat="43.58004" lon="3.32209">
        <ele>393.9</ele>
        <time>2016-07-31T07:24:05Z</time>
      </trkpt>
      <trkpt lat="43.58003" lon="3.3222">
        <ele>394.4</ele>
        <time>2016-07-31T07:24:09Z</time>
      </trkpt>
      <trkpt lat="43.58002" lon="3.3223">
        <ele>394.6</ele>
        <time>2016-07-31T07:24:12Z</time>
      </trkpt>
      <trkpt lat="43.58001" lon="3.32243">
        <ele>394.9</ele>
        <time>2016-07-31T07:24:16Z</time>
      </trkpt>
      <trkpt lat="43.57999" lon="3.32255">
        <ele>395.3</ele>
        <time>2016-07-31T07:24:20Z</time>
      </trkpt>
      <trkpt lat="43.57998" lon="3.32266">
        <ele>395.8</ele>
        <time>2016-07-31T07:24:24Z</time>
      </trkpt>
      <trkpt lat="43.57995" lon="3.32277">
        <ele>396.3</ele>
        <time>2016-07-31T07:24:28Z</time>
      </trkpt>
      <trkpt lat="43.57993" lon="3.32287">
        <ele>396.8</ele>
        <time>2016-07-31T07:24:32Z</time>
      </trkpt>
      <trkpt lat="43.5799" lon="3.32298">
        <ele>397.3</ele>
        <time>2016-07-31T07:24:36Z</time>
      </trkpt>
      <trkpt lat="43.57987" lon="3.32308">
        <ele>397.8</ele>
        <time>2016-07-31T07:24:40Z</time>
      </trkpt>
      <trkpt lat="43.57984" lon="3.32318">
        <ele>398.1</ele>
        <time>2016-07-31T07:24:43Z</time>
      </trkpt>
      <trkpt lat="43.57982" lon="3.3233">
        <ele>398.6</ele>
        <time>2016-07-31T07:24:48Z</time>
      </trkpt>
      <trkpt lat="43.57982" lon="3.32342">
        <ele>399.1</ele>
        <time>2016-07-31T07:24:53Z</time>
      </trkpt>
      <trkpt lat="43.57981" lon="3.32352">
        <ele>399.7</ele>
        <time>2016-07-31T07:24:57Z</time>
      </trkpt>
      <trkpt lat="43.57978" lon="3.32364">
        <ele>400.4</ele>
        <time>2016-07-31T07:25:02Z</time>
      </trkpt>
      <trkpt lat="43.57978" lon="3.32376">
        <ele>401</ele>
        <time>2016-07-31T07:25:06Z</time>
      </trkpt>
      <trkpt lat="43.57977" lon="3.32388">
        <ele>401.8</ele>
        <time>2016-07-31T07:25:10Z</time>
      </trkpt>
      <trkpt lat="43.57976" lon="3.32399">
        <ele>402.4</ele>
        <time>2016-07-31T07:25:14Z</time>
      </trkpt>
      <trkpt lat="43.57974" lon="3.32409">
        <ele>403.1</ele>
        <time>2016-07-31T07:25:18Z</time>
      </trkpt>
      <trkpt lat="43.57971" lon="3.32419">
        <ele>403.8</ele>
        <time>2016-07-31T07:25:23Z</time>
      </trkpt>
      <trkpt lat="43.57967" lon="3.32429">
        <ele>404.3</ele>
        <time>2016-07-31T07:25:27Z</time>
      </trkpt>
      <trkpt lat="43.57965" lon="3.3244">
        <ele>405</ele>
        <time>2016-07-31T07:25:32Z</time>
      </trkpt>
      <trkpt lat="43.57961" lon="3.32449">
        <ele>406.2</ele>
        <time>2016-07-31T07:25:38Z</time>
      </trkpt>
      <trkpt lat="43.57956" lon="3.32457">
        <ele>406.7</ele>
        <time>2016-07-31T07:25:42Z</time>
      </trkpt>
      <trkpt lat="43.5795" lon="3.32467">
        <ele>407.1</ele>
        <time>2016-07-31T07:25:46Z</time>
      </trkpt>
      <trkpt lat="43.57945" lon="3.32475">
        <ele>407.3</ele>
        <time>2016-07-31T07:25:49Z</time>
      </trkpt>
      <trkpt lat="43.57938" lon="3.32483">
        <ele>407.5</ele>
        <time>2016-07-31T07:25:52Z</time>
      </trkpt>
      <trkpt lat="43.5793" lon="3.32492">
        <ele>407.7</ele>
        <time>2016-07-31T07:25:55Z</time>
      </trkpt>
      <trkpt lat="43.57921" lon="3.32498">
        <ele>407.9</ele>
        <time>2016-07-31T07:25:58Z</time>
      </trkpt>
      <trkpt lat="43.57912" lon="3.32504">
        <ele>408</ele>
        <time>2016-07-31T07:26:01Z</time>
      </trkpt>
      <trkpt lat="43.57904" lon="3.32509">
        <ele>408</ele>
        <time>2016-07-31T07:26:04Z</time>
      </trkpt>
      <trkpt lat="43.57894" lon="3.32511">
        <ele>408</ele>
        <time>2016-07-31T07:26:07Z</time>
      </trkpt>
      <trkpt lat="43.57887" lon="3.32514">
        <ele>408.1</ele>
        <time>2016-07-31T07:26:10Z</time>
      </trkpt>
      <trkpt lat="43.5788" lon="3.32517">
        <ele>408.4</ele>
        <time>2016-07-31T07:26:13Z</time>
      </trkpt>
      <trkpt lat="43.57873" lon="3.32519">
        <ele>408.7</ele>
        <time>2016-07-31T07:26:16Z</time>
      </trkpt>
      <trkpt lat="43.57865" lon="3.32523">
        <ele>409</ele>
        <time>2016-07-31T07:26:19Z</time>
      </trkpt>
      <trkpt lat="43.57857" lon="3.32527">
        <ele>409.5</ele>
        <time>2016-07-31T07:26:22Z</time>
      </trkpt>
      <trkpt lat="43.5785" lon="3.3253">
        <ele>409.9</ele>
        <time>2016-07-31T07:26:25Z</time>
      </trkpt>
      <trkpt lat="43.57842" lon="3.32535">
        <ele>410.3</ele>
        <time>2016-07-31T07:26:28Z</time>
      </trkpt>
      <trkpt lat="43.57834" lon="3.32538">
        <ele>410.5</ele>
        <time>2016-07-31T07:26:31Z</time>
      </trkpt>
      <trkpt lat="43.57825" lon="3.32543">
        <ele>410.8</ele>
        <time>2016-07-31T07:26:34Z</time>
      </trkpt>
      <trkpt lat="43.57818" lon="3.32548">
        <ele>411.3</ele>
        <time>2016-07-31T07:26:37Z</time>
      </trkpt>
      <trkpt lat="43.57815" lon="3.32549">
        <ele>411.9</ele>
        <time>2016-07-31T07:26:44Z</time>
      </trkpt>
      <trkpt lat="43.57816" lon="3.32546">
        <ele>412</ele>
        <time>2016-07-31T07:26:55Z</time>
      </trkpt>
      <trkpt lat="43.57817" lon="3.32541">
        <ele>412.4</ele>
        <time>2016-07-31T07:27:09Z</time>
      </trkpt>
      <trkpt lat="43.57814" lon="3.32546">
        <ele>414.3</ele>
        <time>2016-07-31T07:27:30Z</time>
      </trkpt>
      <trkpt lat="43.57817" lon="3.32546">
        <ele>417.5</ele>
        <time>2016-07-31T07:31:12Z</time>
      </trkpt>
      <trkpt lat="43.57817" lon="3.32548">
        <ele>417.8</ele>
        <time>2016-07-31T07:31:47Z</time>
      </trkpt>
      <trkpt lat="43.57811" lon="3.32554">
        <ele>417.9</ele>
        <time>2016-07-31T07:32:00Z</time>
      </trkpt>
      <trkpt lat="43.57803" lon="3.32562">
        <ele>417.7</ele>
        <time>2016-07-31T07:32:03Z</time>
      </trkpt>
      <trkpt lat="43.57796" lon="3.32571">
        <ele>416.6</ele>
        <time>2016-07-31T07:32:06Z</time>
      </trkpt>
      <trkpt lat="43.57789" lon="3.3258">
        <ele>416.6</ele>
        <time>2016-07-31T07:32:09Z</time>
      </trkpt>
      <trkpt lat="43.57781" lon="3.32591">
        <ele>416.5</ele>
        <time>2016-07-31T07:32:12Z</time>
      </trkpt>
      <trkpt lat="43.57775" lon="3.32602">
        <ele>415.9</ele>
        <time>2016-07-31T07:32:14Z</time>
      </trkpt>
      <trkpt lat="43.57769" lon="3.32613">
        <ele>415.8</ele>
        <time>2016-07-31T07:32:17Z</time>
      </trkpt>
      <trkpt lat="43.57762" lon="3.32625">
        <ele>414.2</ele>
        <time>2016-07-31T07:32:20Z</time>
      </trkpt>
      <trkpt lat="43.57757" lon="3.32638">
        <ele>414.4</ele>
        <time>2016-07-31T07:32:22Z</time>
      </trkpt>
      <trkpt lat="43.57751" lon="3.32647">
        <ele>413.9</ele>
        <time>2016-07-31T07:32:24Z</time>
      </trkpt>
      <trkpt lat="43.57745" lon="3.3266">
        <ele>413.5</ele>
        <time>2016-07-31T07:32:26Z</time>
      </trkpt>
      <trkpt lat="43.57738" lon="3.32668">
        <ele>413</ele>
        <time>2016-07-31T07:32:28Z</time>
      </trkpt>
      <trkpt lat="43.57729" lon="3.32676">
        <ele>413.6</ele>
        <time>2016-07-31T07:32:30Z</time>
      </trkpt>
      <trkpt lat="43.57719" lon="3.32685">
        <ele>413.2</ele>
        <time>2016-07-31T07:32:32Z</time>
      </trkpt>
      <trkpt lat="43.57706" lon="3.32692">
        <ele>412.1</ele>
        <time>2016-07-31T07:32:34Z</time>
      </trkpt>
      <trkpt lat="43.57693" lon="3.32697">
        <ele>411</ele>
        <time>2016-07-31T07:32:36Z</time>
      </trkpt>
      <trkpt lat="43.57686" lon="3.327">
        <ele>410.3</ele>
        <time>2016-07-31T07:32:37Z</time>
      </trkpt>
      <trkpt lat="43.57679" lon="3.32705">
        <ele>409.5</ele>
        <time>2016-07-31T07:32:38Z</time>
      </trkpt>
      <trkpt lat="43.57668" lon="3.32711">
        <ele>407.8</ele>
        <time>2016-07-31T07:32:40Z</time>
      </trkpt>
      <trkpt lat="43.57656" lon="3.3272">
        <ele>406.6</ele>
        <time>2016-07-31T07:32:42Z</time>
      </trkpt>
      <trkpt lat="43.57649" lon="3.32725">
        <ele>406.4</ele>
        <time>2016-07-31T07:32:43Z</time>
      </trkpt>
      <trkpt lat="43.57635" lon="3.32732">
        <ele>406.2</ele>
        <time>2016-07-31T07:32:45Z</time>
      </trkpt>
      <trkpt lat="43.57629" lon="3.32736">
        <ele>406</ele>
        <time>2016-07-31T07:32:46Z</time>
      </trkpt>
      <trkpt lat="43.57618" lon="3.3274">
        <ele>405.9</ele>
        <time>2016-07-31T07:32:48Z</time>
      </trkpt>
      <trkpt lat="43.57608" lon="3.32745">
        <ele>405.9</ele>
        <time>2016-07-31T07:32:50Z</time>
      </trkpt>
      <trkpt lat="43.57599" lon="3.3275">
        <ele>405.7</ele>
        <time>2016-07-31T07:32:52Z</time>
      </trkpt>
      <trkpt lat="43.57588" lon="3.32754">
        <ele>405.6</ele>
        <time>2016-07-31T07:32:54Z</time>
      </trkpt>
      <trkpt lat="43.57579" lon="3.32761">
        <ele>405.3</ele>
        <time>2016-07-31T07:32:57Z</time>
      </trkpt>
      <trkpt lat="43.57571" lon="3.32771">
        <ele>403.8</ele>
        <time>2016-07-31T07:32:59Z</time>
      </trkpt>
      <trkpt lat="43.57566" lon="3.32779">
        <ele>402.2</ele>
        <time>2016-07-31T07:33:00Z</time>
      </trkpt>
      <trkpt lat="43.57557" lon="3.32792">
        <ele>399.5</ele>
        <time>2016-07-31T07:33:02Z</time>
      </trkpt>
      <trkpt lat="43.5755" lon="3.32798">
        <ele>398</ele>
        <time>2016-07-31T07:33:03Z</time>
      </trkpt>
      <trkpt lat="43.57542" lon="3.32806">
        <ele>396.7</ele>
        <time>2016-07-31T07:33:04Z</time>
      </trkpt>
      <trkpt lat="43.57535" lon="3.32815">
        <ele>395.2</ele>
        <time>2016-07-31T07:33:05Z</time>
      </trkpt>
      <trkpt lat="43.57528" lon="3.32823">
        <ele>393.6</ele>
        <time>2016-07-31T07:33:06Z</time>
      </trkpt>
      <trkpt lat="43.5752" lon="3.3283">
        <ele>391.6</ele>
        <time>2016-07-31T07:33:07Z</time>
      </trkpt>
      <trkpt lat="43.57513" lon="3.32835">
        <ele>390.1</ele>
        <time>2016-07-31T07:33:08Z</time>
      </trkpt>
      <trkpt lat="43.57508" lon="3.32843">
        <ele>389.3</ele>
        <time>2016-07-31T07:33:09Z</time>
      </trkpt>
      <trkpt lat="43.57503" lon="3.32851">
        <ele>388.5</ele>
        <time>2016-07-31T07:33:10Z</time>
      </trkpt>
      <trkpt lat="43.57493" lon="3.32864">
        <ele>386.2</ele>
        <time>2016-07-31T07:33:12Z</time>
      </trkpt>
      <trkpt lat="43.57483" lon="3.32875">
        <ele>383.8</ele>
        <time>2016-07-31T07:33:14Z</time>
      </trkpt>
      <trkpt lat="43.57473" lon="3.32886">
        <ele>381.6</ele>
        <time>2016-07-31T07:33:16Z</time>
      </trkpt>
      <trkpt lat="43.57463" lon="3.32896">
        <ele>379.6</ele>
        <time>2016-07-31T07:33:18Z</time>
      </trkpt>
      <trkpt lat="43.57456" lon="3.32901">
        <ele>378.8</ele>
        <time>2016-07-31T07:33:19Z</time>
      </trkpt>
      <trkpt lat="43.57445" lon="3.32908">
        <ele>377.2</ele>
        <time>2016-07-31T07:33:21Z</time>
      </trkpt>
      <trkpt lat="43.57436" lon="3.3292">
        <ele>375.5</ele>
        <time>2016-07-31T07:33:23Z</time>
      </trkpt>
      <trkpt lat="43.5743" lon="3.32934">
        <ele>373.7</ele>
        <time>2016-07-31T07:33:25Z</time>
      </trkpt>
      <trkpt lat="43.57424" lon="3.3295">
        <ele>372.7</ele>
        <time>2016-07-31T07:33:27Z</time>
      </trkpt>
      <trkpt lat="43.57419" lon="3.32963">
        <ele>370.3</ele>
        <time>2016-07-31T07:33:29Z</time>
      </trkpt>
      <trkpt lat="43.57417" lon="3.32973">
        <ele>369.5</ele>
        <time>2016-07-31T07:33:31Z</time>
      </trkpt>
      <trkpt lat="43.57412" lon="3.32985">
        <ele>369.3</ele>
        <time>2016-07-31T07:33:33Z</time>
      </trkpt>
      <trkpt lat="43.57409" lon="3.32997">
        <ele>368.2</ele>
        <time>2016-07-31T07:33:35Z</time>
      </trkpt>
      <trkpt lat="43.57404" lon="3.33008">
        <ele>367.9</ele>
        <time>2016-07-31T07:33:37Z</time>
      </trkpt>
      <trkpt lat="43.57402" lon="3.33018">
        <ele>367.6</ele>
        <time>2016-07-31T07:33:39Z</time>
      </trkpt>
      <trkpt lat="43.57396" lon="3.33031">
        <ele>363.7</ele>
        <time>2016-07-31T07:33:41Z</time>
      </trkpt>
      <trkpt lat="43.57392" lon="3.33043">
        <ele>363.3</ele>
        <time>2016-07-31T07:33:43Z</time>
      </trkpt>
      <trkpt lat="43.57388" lon="3.33053">
        <ele>362.9</ele>
        <time>2016-07-31T07:33:46Z</time>
      </trkpt>
      <trkpt lat="43.57383" lon="3.33064">
        <ele>362.6</ele>
        <time>2016-07-31T07:33:48Z</time>
      </trkpt>
      <trkpt lat="43.57379" lon="3.33076">
        <ele>362.1</ele>
        <time>2016-07-31T07:33:50Z</time>
      </trkpt>
      <trkpt lat="43.57375" lon="3.33086">
        <ele>359.4</ele>
        <time>2016-07-31T07:33:52Z</time>
      </trkpt>
      <trkpt lat="43.57374" lon="3.33097">
        <ele>358.8</ele>
        <time>2016-07-31T07:33:54Z</time>
      </trkpt>
      <trkpt lat="43.57373" lon="3.33108">
        <ele>358.2</ele>
        <time>2016-07-31T07:33:57Z</time>
      </trkpt>
      <trkpt lat="43.57366" lon="3.33118">
        <ele>357.6</ele>
        <time>2016-07-31T07:34:00Z</time>
      </trkpt>
      <trkpt lat="43.5736" lon="3.33124">
        <ele>353.9</ele>
        <time>2016-07-31T07:34:03Z</time>
      </trkpt>
      <trkpt lat="43.57356" lon="3.33137">
        <ele>348.5</ele>
        <time>2016-07-31T07:34:05Z</time>
      </trkpt>
      <trkpt lat="43.57348" lon="3.33148">
        <ele>344.4</ele>
        <time>2016-07-31T07:34:07Z</time>
      </trkpt>
      <trkpt lat="43.57343" lon="3.33156">
        <ele>342.9</ele>
        <time>2016-07-31T07:34:08Z</time>
      </trkpt>
      <trkpt lat="43.57338" lon="3.33166">
        <ele>340.9</ele>
        <time>2016-07-31T07:34:09Z</time>
      </trkpt>
      <trkpt lat="43.57332" lon="3.33173">
        <ele>338.9</ele>
        <time>2016-07-31T07:34:10Z</time>
      </trkpt>
      <trkpt lat="43.57327" lon="3.3318">
        <ele>336.6</ele>
        <time>2016-07-31T07:34:11Z</time>
      </trkpt>
      <trkpt lat="43.57321" lon="3.33187">
        <ele>334.8</ele>
        <time>2016-07-31T07:34:12Z</time>
      </trkpt>
      <trkpt lat="43.57317" lon="3.33194">
        <ele>333.4</ele>
        <time>2016-07-31T07:34:13Z</time>
      </trkpt>
      <trkpt lat="43.5731" lon="3.3321">
        <ele>330.2</ele>
        <time>2016-07-31T07:34:15Z</time>
      </trkpt>
      <trkpt lat="43.57304" lon="3.33225">
        <ele>327.1</ele>
        <time>2016-07-31T07:34:17Z</time>
      </trkpt>
      <trkpt lat="43.57299" lon="3.33242">
        <ele>324.5</ele>
        <time>2016-07-31T07:34:19Z</time>
      </trkpt>
      <trkpt lat="43.57296" lon="3.33258">
        <ele>322</ele>
        <time>2016-07-31T07:34:21Z</time>
      </trkpt>
      <trkpt lat="43.57294" lon="3.33271">
        <ele>319.7</ele>
        <time>2016-07-31T07:34:23Z</time>
      </trkpt>
      <trkpt lat="43.5729" lon="3.33287">
        <ele>317.8</ele>
        <time>2016-07-31T07:34:25Z</time>
      </trkpt>
      <trkpt lat="43.57282" lon="3.33303">
        <ele>315.6</ele>
        <time>2016-07-31T07:34:27Z</time>
      </trkpt>
      <trkpt lat="43.57276" lon="3.33309">
        <ele>314.4</ele>
        <time>2016-07-31T07:34:28Z</time>
      </trkpt>
      <trkpt lat="43.57271" lon="3.33317">
        <ele>313.3</ele>
        <time>2016-07-31T07:34:29Z</time>
      </trkpt>
      <trkpt lat="43.57265" lon="3.33326">
        <ele>312.2</ele>
        <time>2016-07-31T07:34:30Z</time>
      </trkpt>
      <trkpt lat="43.57258" lon="3.33336">
        <ele>311.2</ele>
        <time>2016-07-31T07:34:32Z</time>
      </trkpt>
      <trkpt lat="43.57253" lon="3.33346">
        <ele>310.1</ele>
        <time>2016-07-31T07:34:34Z</time>
      </trkpt>
      <trkpt lat="43.57247" lon="3.33356">
        <ele>309.8</ele>
        <time>2016-07-31T07:34:37Z</time>
      </trkpt>
      <trkpt lat="43.57244" lon="3.33358">
        <ele>309.1</ele>
        <time>2016-07-31T07:34:44Z</time>
      </trkpt>
      <trkpt lat="43.57238" lon="3.33366">
        <ele>306.6</ele>
        <time>2016-07-31T07:36:03Z</time>
      </trkpt>
      <trkpt lat="43.57235" lon="3.33379">
        <ele>303.4</ele>
        <time>2016-07-31T07:36:06Z</time>
      </trkpt>
      <trkpt lat="43.57232" lon="3.33392">
        <ele>301.3</ele>
        <time>2016-07-31T07:36:08Z</time>
      </trkpt>
      <trkpt lat="43.5723" lon="3.33409">
        <ele>300.3</ele>
        <time>2016-07-31T07:36:10Z</time>
      </trkpt>
      <trkpt lat="43.57228" lon="3.33428">
        <ele>299.3</ele>
        <time>2016-07-31T07:36:12Z</time>
      </trkpt>
      <trkpt lat="43.57227" lon="3.33447">
        <ele>299</ele>
        <time>2016-07-31T07:36:14Z</time>
      </trkpt>
      <trkpt lat="43.57226" lon="3.33458">
        <ele>298.6</ele>
        <time>2016-07-31T07:36:15Z</time>
      </trkpt>
      <trkpt lat="43.57226" lon="3.33471">
        <ele>298.5</ele>
        <time>2016-07-31T07:36:16Z</time>
      </trkpt>
      <trkpt lat="43.57225" lon="3.33483">
        <ele>298.2</ele>
        <time>2016-07-31T07:36:17Z</time>
      </trkpt>
      <trkpt lat="43.57225" lon="3.33495">
        <ele>297.6</ele>
        <time>2016-07-31T07:36:18Z</time>
      </trkpt>
      <trkpt lat="43.57225" lon="3.33507">
        <ele>297.4</ele>
        <time>2016-07-31T07:36:19Z</time>
      </trkpt>
      <trkpt lat="43.57223" lon="3.33526">
        <ele>297.5</ele>
        <time>2016-07-31T07:36:21Z</time>
      </trkpt>
      <trkpt lat="43.57222" lon="3.33539">
        <ele>297.6</ele>
        <time>2016-07-31T07:36:23Z</time>
      </trkpt>
      <trkpt lat="43.57222" lon="3.33553">
        <ele>297.7</ele>
        <time>2016-07-31T07:36:26Z</time>
      </trkpt>
      <trkpt lat="43.57221" lon="3.33563">
        <ele>297.8</ele>
        <time>2016-07-31T07:36:29Z</time>
      </trkpt>
      <trkpt lat="43.57219" lon="3.33575">
        <ele>298.2</ele>
        <time>2016-07-31T07:36:33Z</time>
      </trkpt>
      <trkpt lat="43.57218" lon="3.33585">
        <ele>298.5</ele>
        <time>2016-07-31T07:36:37Z</time>
      </trkpt>
      <trkpt lat="43.57218" lon="3.33596">
        <ele>298.9</ele>
        <time>2016-07-31T07:36:41Z</time>
      </trkpt>
      <trkpt lat="43.5722" lon="3.33608">
        <ele>299.2</ele>
        <time>2016-07-31T07:36:45Z</time>
      </trkpt>
      <trkpt lat="43.57224" lon="3.33617">
        <ele>299.5</ele>
        <time>2016-07-31T07:36:50Z</time>
      </trkpt>
      <trkpt lat="43.5723" lon="3.33627">
        <ele>300.2</ele>
        <time>2016-07-31T07:36:55Z</time>
      </trkpt>
      <trkpt lat="43.57235" lon="3.33636">
        <ele>301</ele>
        <time>2016-07-31T07:37:00Z</time>
      </trkpt>
      <trkpt lat="43.57241" lon="3.33643">
        <ele>301.5</ele>
        <time>2016-07-31T07:37:04Z</time>
      </trkpt>
      <trkpt lat="43.57247" lon="3.33649">
        <ele>301.9</ele>
        <time>2016-07-31T07:37:08Z</time>
      </trkpt>
      <trkpt lat="43.57254" lon="3.33653">
        <ele>302.5</ele>
        <time>2016-07-31T07:37:13Z</time>
      </trkpt>
      <trkpt lat="43.57262" lon="3.33655">
        <ele>302.9</ele>
        <time>2016-07-31T07:37:17Z</time>
      </trkpt>
      <trkpt lat="43.5727" lon="3.33657">
        <ele>303.4</ele>
        <time>2016-07-31T07:37:22Z</time>
      </trkpt>
      <trkpt lat="43.57279" lon="3.33658">
        <ele>303.9</ele>
        <time>2016-07-31T07:37:27Z</time>
      </trkpt>
      <trkpt lat="43.57287" lon="3.33655">
        <ele>304.3</ele>
        <time>2016-07-31T07:37:32Z</time>
      </trkpt>
      <trkpt lat="43.57295" lon="3.33652">
        <ele>304.7</ele>
        <time>2016-07-31T07:37:36Z</time>
      </trkpt>
      <trkpt lat="43.57304" lon="3.33647">
        <ele>305</ele>
        <time>2016-07-31T07:37:40Z</time>
      </trkpt>
      <trkpt lat="43.57313" lon="3.33645">
        <ele>305.4</ele>
        <time>2016-07-31T07:37:44Z</time>
      </trkpt>
      <trkpt lat="43.5732" lon="3.33644">
        <ele>306.1</ele>
        <time>2016-07-31T07:37:48Z</time>
      </trkpt>
      <trkpt lat="43.57329" lon="3.33641">
        <ele>306.5</ele>
        <time>2016-07-31T07:37:52Z</time>
      </trkpt>
      <trkpt lat="43.57337" lon="3.33639">
        <ele>306.7</ele>
        <time>2016-07-31T07:37:55Z</time>
      </trkpt>
      <trkpt lat="43.57345" lon="3.33638">
        <ele>306.9</ele>
        <time>2016-07-31T07:37:58Z</time>
      </trkpt>
      <trkpt lat="43.57353" lon="3.33636">
        <ele>307.2</ele>
        <time>2016-07-31T07:38:02Z</time>
      </trkpt>
      <trkpt lat="43.57361" lon="3.33634">
        <ele>307.6</ele>
        <time>2016-07-31T07:38:05Z</time>
      </trkpt>
      <trkpt lat="43.5737" lon="3.33633">
        <ele>307.9</ele>
        <time>2016-07-31T07:38:08Z</time>
      </trkpt>
      <trkpt lat="43.57379" lon="3.3363">
        <ele>309.3</ele>
        <time>2016-07-31T07:38:10Z</time>
      </trkpt>
      <trkpt lat="43.57387" lon="3.33627">
        <ele>309.8</ele>
        <time>2016-07-31T07:38:12Z</time>
      </trkpt>
      <trkpt lat="43.57393" lon="3.33621">
        <ele>309.9</ele>
        <time>2016-07-31T07:38:14Z</time>
      </trkpt>
      <trkpt lat="43.57401" lon="3.33612">
        <ele>308.9</ele>
        <time>2016-07-31T07:38:16Z</time>
      </trkpt>
      <trkpt lat="43.57407" lon="3.33602">
        <ele>308.3</ele>
        <time>2016-07-31T07:38:18Z</time>
      </trkpt>
      <trkpt lat="43.57413" lon="3.33591">
        <ele>307.9</ele>
        <time>2016-07-31T07:38:20Z</time>
      </trkpt>
      <trkpt lat="43.5742" lon="3.33578">
        <ele>307.3</ele>
        <time>2016-07-31T07:38:22Z</time>
      </trkpt>
      <trkpt lat="43.57427" lon="3.33565">
        <ele>306.8</ele>
        <time>2016-07-31T07:38:24Z</time>
      </trkpt>
      <trkpt lat="43.57434" lon="3.33553">
        <ele>307</ele>
        <time>2016-07-31T07:38:26Z</time>
      </trkpt>
      <trkpt lat="43.5744" lon="3.33545">
        <ele>307.9</ele>
        <time>2016-07-31T07:38:28Z</time>
      </trkpt>
      <trkpt lat="43.57446" lon="3.33536">
        <ele>308.9</ele>
        <time>2016-07-31T07:38:30Z</time>
      </trkpt>
      <trkpt lat="43.57456" lon="3.33531">
        <ele>309.3</ele>
        <time>2016-07-31T07:38:32Z</time>
      </trkpt>
      <trkpt lat="43.57465" lon="3.33525">
        <ele>309.9</ele>
        <time>2016-07-31T07:38:34Z</time>
      </trkpt>
      <trkpt lat="43.57474" lon="3.3352">
        <ele>310.3</ele>
        <time>2016-07-31T07:38:36Z</time>
      </trkpt>
      <trkpt lat="43.57483" lon="3.33517">
        <ele>312.1</ele>
        <time>2016-07-31T07:38:38Z</time>
      </trkpt>
      <trkpt lat="43.57492" lon="3.33514">
        <ele>312.2</ele>
        <time>2016-07-31T07:38:40Z</time>
      </trkpt>
      <trkpt lat="43.57502" lon="3.3351">
        <ele>312.3</ele>
        <time>2016-07-31T07:38:42Z</time>
      </trkpt>
      <trkpt lat="43.57511" lon="3.33507">
        <ele>313</ele>
        <time>2016-07-31T07:38:44Z</time>
      </trkpt>
      <trkpt lat="43.57523" lon="3.33504">
        <ele>313.2</ele>
        <time>2016-07-31T07:38:46Z</time>
      </trkpt>
      <trkpt lat="43.57536" lon="3.335">
        <ele>312.3</ele>
        <time>2016-07-31T07:38:48Z</time>
      </trkpt>
      <trkpt lat="43.57548" lon="3.33496">
        <ele>310.9</ele>
        <time>2016-07-31T07:38:50Z</time>
      </trkpt>
      <trkpt lat="43.57558" lon="3.33488">
        <ele>309.3</ele>
        <time>2016-07-31T07:38:52Z</time>
      </trkpt>
      <trkpt lat="43.57565" lon="3.33483">
        <ele>308.4</ele>
        <time>2016-07-31T07:38:53Z</time>
      </trkpt>
      <trkpt lat="43.57575" lon="3.33473">
        <ele>307</ele>
        <time>2016-07-31T07:38:55Z</time>
      </trkpt>
      <trkpt lat="43.57585" lon="3.33464">
        <ele>307.1</ele>
        <time>2016-07-31T07:38:57Z</time>
      </trkpt>
      <trkpt lat="43.57593" lon="3.33455">
        <ele>306.3</ele>
        <time>2016-07-31T07:38:59Z</time>
      </trkpt>
      <trkpt lat="43.57603" lon="3.33448">
        <ele>306</ele>
        <time>2016-07-31T07:39:01Z</time>
      </trkpt>
      <trkpt lat="43.5761" lon="3.33445">
        <ele>306.9</ele>
        <time>2016-07-31T07:39:04Z</time>
      </trkpt>
      <trkpt lat="43.57618" lon="3.33451">
        <ele>307.7</ele>
        <time>2016-07-31T07:39:09Z</time>
      </trkpt>
      <trkpt lat="43.57626" lon="3.33458">
        <ele>308.6</ele>
        <time>2016-07-31T07:39:13Z</time>
      </trkpt>
      <trkpt lat="43.57633" lon="3.33466">
        <ele>309.5</ele>
        <time>2016-07-31T07:39:17Z</time>
      </trkpt>
      <trkpt lat="43.57637" lon="3.33474">
        <ele>310.3</ele>
        <time>2016-07-31T07:39:20Z</time>
      </trkpt>
      <trkpt lat="43.57642" lon="3.33482">
        <ele>311</ele>
        <time>2016-07-31T07:39:23Z</time>
      </trkpt>
      <trkpt lat="43.57645" lon="3.33491">
        <ele>311.4</ele>
        <time>2016-07-31T07:39:26Z</time>
      </trkpt>
      <trkpt lat="43.5765" lon="3.335">
        <ele>311.7</ele>
        <time>2016-07-31T07:39:29Z</time>
      </trkpt>
      <trkpt lat="43.57655" lon="3.33509">
        <ele>312</ele>
        <time>2016-07-31T07:39:33Z</time>
      </trkpt>
      <trkpt lat="43.5766" lon="3.33518">
        <ele>312.1</ele>
        <time>2016-07-31T07:39:37Z</time>
      </trkpt>
      <trkpt lat="43.57665" lon="3.33525">
        <ele>312.4</ele>
        <time>2016-07-31T07:39:41Z</time>
      </trkpt>
      <trkpt lat="43.57673" lon="3.33529">
        <ele>312.5</ele>
        <time>2016-07-31T07:39:44Z</time>
      </trkpt>
      <trkpt lat="43.57681" lon="3.33526">
        <ele>312.5</ele>
        <time>2016-07-31T07:39:47Z</time>
      </trkpt>
      <trkpt lat="43.57689" lon="3.33521">
        <ele>312.4</ele>
        <time>2016-07-31T07:39:50Z</time>
      </trkpt>
      <trkpt lat="43.57698" lon="3.33513">
        <ele>312.2</ele>
        <time>2016-07-31T07:39:53Z</time>
      </trkpt>
      <trkpt lat="43.57705" lon="3.33505">
        <ele>312</ele>
        <time>2016-07-31T07:39:56Z</time>
      </trkpt>
      <trkpt lat="43.57711" lon="3.33495">
        <ele>312</ele>
        <time>2016-07-31T07:39:59Z</time>
      </trkpt>
      <trkpt lat="43.57715" lon="3.33488">
        <ele>312</ele>
        <time>2016-07-31T07:40:01Z</time>
      </trkpt>
      <trkpt lat="43.57722" lon="3.3348">
        <ele>311.3</ele>
        <time>2016-07-31T07:40:03Z</time>
      </trkpt>
      <trkpt lat="43.57728" lon="3.33471">
        <ele>310.6</ele>
        <time>2016-07-31T07:40:05Z</time>
      </trkpt>
      <trkpt lat="43.57735" lon="3.33463">
        <ele>309.8</ele>
        <time>2016-07-31T07:40:07Z</time>
      </trkpt>
      <trkpt lat="43.57741" lon="3.33455">
        <ele>309.5</ele>
        <time>2016-07-31T07:40:09Z</time>
      </trkpt>
      <trkpt lat="43.57751" lon="3.33445">
        <ele>309</ele>
        <time>2016-07-31T07:40:11Z</time>
      </trkpt>
      <trkpt lat="43.5776" lon="3.33438">
        <ele>308.5</ele>
        <time>2016-07-31T07:40:13Z</time>
      </trkpt>
      <trkpt lat="43.57769" lon="3.33432">
        <ele>308.5</ele>
        <time>2016-07-31T07:40:15Z</time>
      </trkpt>
      <trkpt lat="43.57779" lon="3.33427">
        <ele>310.2</ele>
        <time>2016-07-31T07:40:17Z</time>
      </trkpt>
      <trkpt lat="43.57789" lon="3.33422">
        <ele>312</ele>
        <time>2016-07-31T07:40:19Z</time>
      </trkpt>
      <trkpt lat="43.578" lon="3.33417">
        <ele>312.5</ele>
        <time>2016-07-31T07:40:21Z</time>
      </trkpt>
      <trkpt lat="43.5781" lon="3.33412">
        <ele>312</ele>
        <time>2016-07-31T07:40:23Z</time>
      </trkpt>
      <trkpt lat="43.5782" lon="3.33407">
        <ele>311.2</ele>
        <time>2016-07-31T07:40:25Z</time>
      </trkpt>
      <trkpt lat="43.57829" lon="3.33401">
        <ele>310.6</ele>
        <time>2016-07-31T07:40:27Z</time>
      </trkpt>
      <trkpt lat="43.57836" lon="3.33392">
        <ele>309.8</ele>
        <time>2016-07-31T07:40:29Z</time>
      </trkpt>
      <trkpt lat="43.57843" lon="3.33383">
        <ele>309.1</ele>
        <time>2016-07-31T07:40:31Z</time>
      </trkpt>
      <trkpt lat="43.57852" lon="3.33374">
        <ele>308.6</ele>
        <time>2016-07-31T07:40:33Z</time>
      </trkpt>
      <trkpt lat="43.57862" lon="3.33363">
        <ele>308.6</ele>
        <time>2016-07-31T07:40:35Z</time>
      </trkpt>
      <trkpt lat="43.57867" lon="3.33353">
        <ele>308.1</ele>
        <time>2016-07-31T07:40:37Z</time>
      </trkpt>
      <trkpt lat="43.57871" lon="3.33341">
        <ele>307.3</ele>
        <time>2016-07-31T07:40:39Z</time>
      </trkpt>
      <trkpt lat="43.57874" lon="3.3333">
        <ele>306.9</ele>
        <time>2016-07-31T07:40:41Z</time>
      </trkpt>
      <trkpt lat="43.57877" lon="3.3332">
        <ele>306.9</ele>
        <time>2016-07-31T07:40:43Z</time>
      </trkpt>
      <trkpt lat="43.5788" lon="3.33309">
        <ele>307.1</ele>
        <time>2016-07-31T07:40:46Z</time>
      </trkpt>
      <trkpt lat="43.57884" lon="3.33299">
        <ele>307.3</ele>
        <time>2016-07-31T07:40:49Z</time>
      </trkpt>
      <trkpt lat="43.57889" lon="3.33287">
        <ele>307.5</ele>
        <time>2016-07-31T07:40:53Z</time>
      </trkpt>
      <trkpt lat="43.57892" lon="3.33278">
        <ele>307.7</ele>
        <time>2016-07-31T07:40:56Z</time>
      </trkpt>
      <trkpt lat="43.57896" lon="3.3327">
        <ele>308.1</ele>
        <time>2016-07-31T07:40:59Z</time>
      </trkpt>
      <trkpt lat="43.57902" lon="3.3326">
        <ele>308.7</ele>
        <time>2016-07-31T07:41:03Z</time>
      </trkpt>
      <trkpt lat="43.57907" lon="3.33251">
        <ele>309.3</ele>
        <time>2016-07-31T07:41:07Z</time>
      </trkpt>
      <trkpt lat="43.57914" lon="3.33243">
        <ele>310.1</ele>
        <time>2016-07-31T07:41:11Z</time>
      </trkpt>
      <trkpt lat="43.57922" lon="3.33245">
        <ele>310.6</ele>
        <time>2016-07-31T07:41:14Z</time>
      </trkpt>
      <trkpt lat="43.57927" lon="3.33255">
        <ele>311.2</ele>
        <time>2016-07-31T07:41:18Z</time>
      </trkpt>
      <trkpt lat="43.57927" lon="3.33266">
        <ele>311.6</ele>
        <time>2016-07-31T07:41:21Z</time>
      </trkpt>
      <trkpt lat="43.57927" lon="3.33278">
        <ele>312.2</ele>
        <time>2016-07-31T07:41:25Z</time>
      </trkpt>
      <trkpt lat="43.57926" lon="3.3329">
        <ele>313.1</ele>
        <time>2016-07-31T07:41:29Z</time>
      </trkpt>
      <trkpt lat="43.57926" lon="3.33303">
        <ele>313.8</ele>
        <time>2016-07-31T07:41:33Z</time>
      </trkpt>
      <trkpt lat="43.57926" lon="3.33315">
        <ele>314.5</ele>
        <time>2016-07-31T07:41:37Z</time>
      </trkpt>
      <trkpt lat="43.57925" lon="3.33327">
        <ele>315</ele>
        <time>2016-07-31T07:41:40Z</time>
      </trkpt>
      <trkpt lat="43.57925" lon="3.33339">
        <ele>315.7</ele>
        <time>2016-07-31T07:41:43Z</time>
      </trkpt>
      <trkpt lat="43.57927" lon="3.33351">
        <ele>316.6</ele>
        <time>2016-07-31T07:41:47Z</time>
      </trkpt>
      <trkpt lat="43.5793" lon="3.33363">
        <ele>317.1</ele>
        <time>2016-07-31T07:41:50Z</time>
      </trkpt>
      <trkpt lat="43.57935" lon="3.33375">
        <ele>317.6</ele>
        <time>2016-07-31T07:41:53Z</time>
      </trkpt>
      <trkpt lat="43.5794" lon="3.33385">
        <ele>318</ele>
        <time>2016-07-31T07:41:56Z</time>
      </trkpt>
      <trkpt lat="43.57939" lon="3.33399">
        <ele>318.3</ele>
        <time>2016-07-31T07:41:59Z</time>
      </trkpt>
      <trkpt lat="43.57933" lon="3.33408">
        <ele>318.5</ele>
        <time>2016-07-31T07:42:02Z</time>
      </trkpt>
      <trkpt lat="43.57925" lon="3.33417">
        <ele>318.8</ele>
        <time>2016-07-31T07:42:05Z</time>
      </trkpt>
      <trkpt lat="43.57918" lon="3.33425">
        <ele>319.2</ele>
        <time>2016-07-31T07:42:08Z</time>
      </trkpt>
      <trkpt lat="43.57911" lon="3.33433">
        <ele>319.6</ele>
        <time>2016-07-31T07:42:11Z</time>
      </trkpt>
      <trkpt lat="43.57904" lon="3.33443">
        <ele>319.9</ele>
        <time>2016-07-31T07:42:14Z</time>
      </trkpt>
      <trkpt lat="43.57896" lon="3.33453">
        <ele>320.3</ele>
        <time>2016-07-31T07:42:17Z</time>
      </trkpt>
      <trkpt lat="43.57892" lon="3.33461">
        <ele>320.5</ele>
        <time>2016-07-31T07:42:19Z</time>
      </trkpt>
      <trkpt lat="43.57886" lon="3.33472">
        <ele>320.8</ele>
        <time>2016-07-31T07:42:22Z</time>
      </trkpt>
      <trkpt lat="43.57882" lon="3.33481">
        <ele>321.9</ele>
        <time>2016-07-31T07:42:24Z</time>
      </trkpt>
      <trkpt lat="43.57878" lon="3.33491">
        <ele>322.9</ele>
        <time>2016-07-31T07:42:26Z</time>
      </trkpt>
      <trkpt lat="43.57876" lon="3.33502">
        <ele>323</ele>
        <time>2016-07-31T07:42:28Z</time>
      </trkpt>
      <trkpt lat="43.57874" lon="3.33513">
        <ele>323.2</ele>
        <time>2016-07-31T07:42:30Z</time>
      </trkpt>
      <trkpt lat="43.57872" lon="3.33524">
        <ele>323.4</ele>
        <time>2016-07-31T07:42:32Z</time>
      </trkpt>
      <trkpt lat="43.57872" lon="3.33534">
        <ele>323.9</ele>
        <time>2016-07-31T07:42:34Z</time>
      </trkpt>
      <trkpt lat="43.5787" lon="3.33546">
        <ele>323.8</ele>
        <time>2016-07-31T07:42:36Z</time>
      </trkpt>
      <trkpt lat="43.57866" lon="3.33559">
        <ele>323.9</ele>
        <time>2016-07-31T07:42:39Z</time>
      </trkpt>
      <trkpt lat="43.57859" lon="3.33569">
        <ele>324.1</ele>
        <time>2016-07-31T07:42:42Z</time>
      </trkpt>
      <trkpt lat="43.57851" lon="3.33577">
        <ele>324.3</ele>
        <time>2016-07-31T07:42:45Z</time>
      </trkpt>
      <trkpt lat="43.57845" lon="3.33584">
        <ele>324.4</ele>
        <time>2016-07-31T07:42:47Z</time>
      </trkpt>
      <trkpt lat="43.5784" lon="3.33593">
        <ele>324.6</ele>
        <time>2016-07-31T07:42:49Z</time>
      </trkpt>
      <trkpt lat="43.57835" lon="3.33604">
        <ele>324.7</ele>
        <time>2016-07-31T07:42:52Z</time>
      </trkpt>
      <trkpt lat="43.57831" lon="3.33617">
        <ele>324.8</ele>
        <time>2016-07-31T07:42:55Z</time>
      </trkpt>
      <trkpt lat="43.57829" lon="3.33627">
        <ele>325.1</ele>
        <time>2016-07-31T07:42:57Z</time>
      </trkpt>
      <trkpt lat="43.57827" lon="3.33638">
        <ele>324.8</ele>
        <time>2016-07-31T07:42:59Z</time>
      </trkpt>
      <trkpt lat="43.57824" lon="3.33648">
        <ele>324.1</ele>
        <time>2016-07-31T07:43:01Z</time>
      </trkpt>
      <trkpt lat="43.57821" lon="3.33661">
        <ele>323.2</ele>
        <time>2016-07-31T07:43:03Z</time>
      </trkpt>
      <trkpt lat="43.57817" lon="3.33672">
        <ele>322.6</ele>
        <time>2016-07-31T07:43:05Z</time>
      </trkpt>
      <trkpt lat="43.57814" lon="3.33683">
        <ele>322.8</ele>
        <time>2016-07-31T07:43:07Z</time>
      </trkpt>
      <trkpt lat="43.5781" lon="3.33694">
        <ele>323</ele>
        <time>2016-07-31T07:43:09Z</time>
      </trkpt>
      <trkpt lat="43.57806" lon="3.33706">
        <ele>322.8</ele>
        <time>2016-07-31T07:43:11Z</time>
      </trkpt>
      <trkpt lat="43.57801" lon="3.3372">
        <ele>322.8</ele>
        <time>2016-07-31T07:43:14Z</time>
      </trkpt>
      <trkpt lat="43.57797" lon="3.3373">
        <ele>322.8</ele>
        <time>2016-07-31T07:43:16Z</time>
      </trkpt>
      <trkpt lat="43.57792" lon="3.33741">
        <ele>322.7</ele>
        <time>2016-07-31T07:43:18Z</time>
      </trkpt>
      <trkpt lat="43.57787" lon="3.33751">
        <ele>322.6</ele>
        <time>2016-07-31T07:43:20Z</time>
      </trkpt>
      <trkpt lat="43.57783" lon="3.33762">
        <ele>322.9</ele>
        <time>2016-07-31T07:43:22Z</time>
      </trkpt>
      <trkpt lat="43.57779" lon="3.33773">
        <ele>323.2</ele>
        <time>2016-07-31T07:43:24Z</time>
      </trkpt>
      <trkpt lat="43.57776" lon="3.33785">
        <ele>323.7</ele>
        <time>2016-07-31T07:43:26Z</time>
      </trkpt>
      <trkpt lat="43.57773" lon="3.33797">
        <ele>324</ele>
        <time>2016-07-31T07:43:28Z</time>
      </trkpt>
      <trkpt lat="43.5777" lon="3.33811">
        <ele>324.4</ele>
        <time>2016-07-31T07:43:30Z</time>
      </trkpt>
      <trkpt lat="43.57769" lon="3.33822">
        <ele>325.2</ele>
        <time>2016-07-31T07:43:32Z</time>
      </trkpt>
      <trkpt lat="43.57767" lon="3.33836">
        <ele>326.1</ele>
        <time>2016-07-31T07:43:34Z</time>
      </trkpt>
      <trkpt lat="43.57766" lon="3.33848">
        <ele>326</ele>
        <time>2016-07-31T07:43:36Z</time>
      </trkpt>
      <trkpt lat="43.57764" lon="3.33861">
        <ele>325.3</ele>
        <time>2016-07-31T07:43:38Z</time>
      </trkpt>
      <trkpt lat="43.57762" lon="3.33876">
        <ele>325.3</ele>
        <time>2016-07-31T07:43:40Z</time>
      </trkpt>
      <trkpt lat="43.5776" lon="3.33889">
        <ele>325.2</ele>
        <time>2016-07-31T07:43:42Z</time>
      </trkpt>
      <trkpt lat="43.5776" lon="3.33902">
        <ele>324.8</ele>
        <time>2016-07-31T07:43:44Z</time>
      </trkpt>
      <trkpt lat="43.57763" lon="3.33913">
        <ele>325.1</ele>
        <time>2016-07-31T07:43:46Z</time>
      </trkpt>
      <trkpt lat="43.57768" lon="3.33922">
        <ele>325.2</ele>
        <time>2016-07-31T07:43:48Z</time>
      </trkpt>
      <trkpt lat="43.57775" lon="3.33927">
        <ele>325.3</ele>
        <time>2016-07-31T07:43:50Z</time>
      </trkpt>
      <trkpt lat="43.57783" lon="3.33929">
        <ele>325.8</ele>
        <time>2016-07-31T07:43:52Z</time>
      </trkpt>
      <trkpt lat="43.5779" lon="3.33931">
        <ele>326.6</ele>
        <time>2016-07-31T07:43:54Z</time>
      </trkpt>
      <trkpt lat="43.578" lon="3.3393">
        <ele>330.1</ele>
        <time>2016-07-31T07:43:57Z</time>
      </trkpt>
      <trkpt lat="43.57809" lon="3.33927">
        <ele>330.3</ele>
        <time>2016-07-31T07:43:59Z</time>
      </trkpt>
      <trkpt lat="43.57817" lon="3.33923">
        <ele>330.8</ele>
        <time>2016-07-31T07:44:01Z</time>
      </trkpt>
      <trkpt lat="43.57825" lon="3.33917">
        <ele>330.4</ele>
        <time>2016-07-31T07:44:03Z</time>
      </trkpt>
      <trkpt lat="43.57833" lon="3.33913">
        <ele>329.7</ele>
        <time>2016-07-31T07:44:05Z</time>
      </trkpt>
      <trkpt lat="43.57842" lon="3.33907">
        <ele>329.6</ele>
        <time>2016-07-31T07:44:08Z</time>
      </trkpt>
      <trkpt lat="43.5785" lon="3.33903">
        <ele>329.2</ele>
        <time>2016-07-31T07:44:10Z</time>
      </trkpt>
      <trkpt lat="43.57857" lon="3.33899">
        <ele>329.1</ele>
        <time>2016-07-31T07:44:12Z</time>
      </trkpt>
      <trkpt lat="43.57865" lon="3.33897">
        <ele>328.8</ele>
        <time>2016-07-31T07:44:14Z</time>
      </trkpt>
      <trkpt lat="43.57874" lon="3.33896">
        <ele>328.8</ele>
        <time>2016-07-31T07:44:16Z</time>
      </trkpt>
      <trkpt lat="43.57881" lon="3.33897">
        <ele>328.9</ele>
        <time>2016-07-31T07:44:18Z</time>
      </trkpt>
      <trkpt lat="43.57889" lon="3.33897">
        <ele>328.9</ele>
        <time>2016-07-31T07:44:20Z</time>
      </trkpt>
      <trkpt lat="43.57898" lon="3.33898">
        <ele>329</ele>
        <time>2016-07-31T07:44:23Z</time>
      </trkpt>
      <trkpt lat="43.57909" lon="3.339">
        <ele>329.2</ele>
        <time>2016-07-31T07:44:26Z</time>
      </trkpt>
      <trkpt lat="43.57917" lon="3.33904">
        <ele>329.5</ele>
        <time>2016-07-31T07:44:29Z</time>
      </trkpt>
      <trkpt lat="43.57925" lon="3.33908">
        <ele>330.1</ele>
        <time>2016-07-31T07:44:32Z</time>
      </trkpt>
      <trkpt lat="43.57936" lon="3.33912">
        <ele>330.7</ele>
        <time>2016-07-31T07:44:35Z</time>
      </trkpt>
      <trkpt lat="43.57943" lon="3.33915">
        <ele>331</ele>
        <time>2016-07-31T07:44:37Z</time>
      </trkpt>
      <trkpt lat="43.5795" lon="3.33918">
        <ele>331.3</ele>
        <time>2016-07-31T07:44:39Z</time>
      </trkpt>
      <trkpt lat="43.5796" lon="3.33921">
        <ele>331.4</ele>
        <time>2016-07-31T07:44:42Z</time>
      </trkpt>
      <trkpt lat="43.57968" lon="3.33926">
        <ele>331.5</ele>
        <time>2016-07-31T07:44:45Z</time>
      </trkpt>
      <trkpt lat="43.57975" lon="3.33933">
        <ele>331.9</ele>
        <time>2016-07-31T07:44:48Z</time>
      </trkpt>
      <trkpt lat="43.57978" lon="3.33945">
        <ele>332.4</ele>
        <time>2016-07-31T07:44:51Z</time>
      </trkpt>
      <trkpt lat="43.57975" lon="3.33954">
        <ele>332.7</ele>
        <time>2016-07-31T07:44:54Z</time>
      </trkpt>
      <trkpt lat="43.57972" lon="3.33963">
        <ele>332.9</ele>
        <time>2016-07-31T07:44:56Z</time>
      </trkpt>
      <trkpt lat="43.57966" lon="3.33973">
        <ele>333.2</ele>
        <time>2016-07-31T07:44:59Z</time>
      </trkpt>
      <trkpt lat="43.57961" lon="3.33982">
        <ele>333.6</ele>
        <time>2016-07-31T07:45:02Z</time>
      </trkpt>
      <trkpt lat="43.57954" lon="3.33993">
        <ele>334</ele>
        <time>2016-07-31T07:45:05Z</time>
      </trkpt>
      <trkpt lat="43.57949" lon="3.34007">
        <ele>334.4</ele>
        <time>2016-07-31T07:45:08Z</time>
      </trkpt>
      <trkpt lat="43.57946" lon="3.34016">
        <ele>334.6</ele>
        <time>2016-07-31T07:45:10Z</time>
      </trkpt>
      <trkpt lat="43.57943" lon="3.34026">
        <ele>334.7</ele>
        <time>2016-07-31T07:45:12Z</time>
      </trkpt>
      <trkpt lat="43.57941" lon="3.34039">
        <ele>336.5</ele>
        <time>2016-07-31T07:45:15Z</time>
      </trkpt>
      <trkpt lat="43.5794" lon="3.3405">
        <ele>338.8</ele>
        <time>2016-07-31T07:45:17Z</time>
      </trkpt>
      <trkpt lat="43.57941" lon="3.34062">
        <ele>338.9</ele>
        <time>2016-07-31T07:45:19Z</time>
      </trkpt>
      <trkpt lat="43.57942" lon="3.34073">
        <ele>339.3</ele>
        <time>2016-07-31T07:45:21Z</time>
      </trkpt>
      <trkpt lat="43.57943" lon="3.34084">
        <ele>339.5</ele>
        <time>2016-07-31T07:45:23Z</time>
      </trkpt>
      <trkpt lat="43.57945" lon="3.34095">
        <ele>339.7</ele>
        <time>2016-07-31T07:45:25Z</time>
      </trkpt>
      <trkpt lat="43.57948" lon="3.34111">
        <ele>340.9</ele>
        <time>2016-07-31T07:45:28Z</time>
      </trkpt>
      <trkpt lat="43.5795" lon="3.34121">
        <ele>340.3</ele>
        <time>2016-07-31T07:45:30Z</time>
      </trkpt>
      <trkpt lat="43.57954" lon="3.34132">
        <ele>339.4</ele>
        <time>2016-07-31T07:45:32Z</time>
      </trkpt>
      <trkpt lat="43.57957" lon="3.34142">
        <ele>339</ele>
        <time>2016-07-31T07:45:34Z</time>
      </trkpt>
      <trkpt lat="43.57961" lon="3.34152">
        <ele>337.7</ele>
        <time>2016-07-31T07:45:36Z</time>
      </trkpt>
      <trkpt lat="43.57965" lon="3.34163">
        <ele>337</ele>
        <time>2016-07-31T07:45:38Z</time>
      </trkpt>
      <trkpt lat="43.57969" lon="3.34172">
        <ele>337.2</ele>
        <time>2016-07-31T07:45:40Z</time>
      </trkpt>
      <trkpt lat="43.57971" lon="3.34182">
        <ele>337.3</ele>
        <time>2016-07-31T07:45:42Z</time>
      </trkpt>
      <trkpt lat="43.57975" lon="3.34194">
        <ele>338.5</ele>
        <time>2016-07-31T07:45:45Z</time>
      </trkpt>
      <trkpt lat="43.57978" lon="3.34208">
        <ele>338.7</ele>
        <time>2016-07-31T07:45:48Z</time>
      </trkpt>
      <trkpt lat="43.5798" lon="3.34218">
        <ele>338.7</ele>
        <time>2016-07-31T07:45:50Z</time>
      </trkpt>
      <trkpt lat="43.57982" lon="3.34232">
        <ele>338.8</ele>
        <time>2016-07-31T07:45:53Z</time>
      </trkpt>
      <trkpt lat="43.57983" lon="3.34245">
        <ele>338.9</ele>
        <time>2016-07-31T07:45:56Z</time>
      </trkpt>
      <trkpt lat="43.57984" lon="3.34259">
        <ele>339.2</ele>
        <time>2016-07-31T07:45:59Z</time>
      </trkpt>
      <trkpt lat="43.57985" lon="3.34269">
        <ele>339.4</ele>
        <time>2016-07-31T07:46:02Z</time>
      </trkpt>
      <trkpt lat="43.5799" lon="3.34279">
        <ele>339.4</ele>
        <time>2016-07-31T07:46:04Z</time>
      </trkpt>
      <trkpt lat="43.57998" lon="3.3428">
        <ele>339.2</ele>
        <time>2016-07-31T07:46:07Z</time>
      </trkpt>
      <trkpt lat="43.58005" lon="3.34275">
        <ele>338.9</ele>
        <time>2016-07-31T07:46:10Z</time>
      </trkpt>
      <trkpt lat="43.58013" lon="3.34268">
        <ele>338.5</ele>
        <time>2016-07-31T07:46:14Z</time>
      </trkpt>
      <trkpt lat="43.5802" lon="3.34261">
        <ele>338.2</ele>
        <time>2016-07-31T07:46:18Z</time>
      </trkpt>
      <trkpt lat="43.58027" lon="3.34255">
        <ele>338.1</ele>
        <time>2016-07-31T07:46:22Z</time>
      </trkpt>
      <trkpt lat="43.58033" lon="3.3425">
        <ele>338</ele>
        <time>2016-07-31T07:46:26Z</time>
      </trkpt>
      <trkpt lat="43.58041" lon="3.34246">
        <ele>338.1</ele>
        <time>2016-07-31T07:46:29Z</time>
      </trkpt>
      <trkpt lat="43.5805" lon="3.34242">
        <ele>338.5</ele>
        <time>2016-07-31T07:46:34Z</time>
      </trkpt>
      <trkpt lat="43.58057" lon="3.34239">
        <ele>338.9</ele>
        <time>2016-07-31T07:46:38Z</time>
      </trkpt>
      <trkpt lat="43.58065" lon="3.34236">
        <ele>339.4</ele>
        <time>2016-07-31T07:46:42Z</time>
      </trkpt>
      <trkpt lat="43.58073" lon="3.34234">
        <ele>340.1</ele>
        <time>2016-07-31T07:46:46Z</time>
      </trkpt>
      <trkpt lat="43.5808" lon="3.34232">
        <ele>340.6</ele>
        <time>2016-07-31T07:46:49Z</time>
      </trkpt>
      <trkpt lat="43.58088" lon="3.34231">
        <ele>341</ele>
        <time>2016-07-31T07:46:52Z</time>
      </trkpt>
      <trkpt lat="43.58095" lon="3.34232">
        <ele>341.4</ele>
        <time>2016-07-31T07:46:55Z</time>
      </trkpt>
      <trkpt lat="43.58102" lon="3.34237">
        <ele>342.2</ele>
        <time>2016-07-31T07:46:59Z</time>
      </trkpt>
      <trkpt lat="43.58109" lon="3.34241">
        <ele>343</ele>
        <time>2016-07-31T07:47:03Z</time>
      </trkpt>
      <trkpt lat="43.58115" lon="3.3425">
        <ele>343.7</ele>
        <time>2016-07-31T07:47:07Z</time>
      </trkpt>
      <trkpt lat="43.58118" lon="3.34262">
        <ele>344.5</ele>
        <time>2016-07-31T07:47:12Z</time>
      </trkpt>
      <trkpt lat="43.58119" lon="3.34272">
        <ele>345.2</ele>
        <time>2016-07-31T07:47:16Z</time>
      </trkpt>
      <trkpt lat="43.5812" lon="3.34283">
        <ele>345.8</ele>
        <time>2016-07-31T07:47:19Z</time>
      </trkpt>
      <trkpt lat="43.58122" lon="3.34296">
        <ele>346.7</ele>
        <time>2016-07-31T07:47:23Z</time>
      </trkpt>
      <trkpt lat="43.58124" lon="3.34308">
        <ele>347.4</ele>
        <time>2016-07-31T07:47:27Z</time>
      </trkpt>
      <trkpt lat="43.58126" lon="3.34321">
        <ele>348.2</ele>
        <time>2016-07-31T07:47:31Z</time>
      </trkpt>
      <trkpt lat="43.58129" lon="3.34332">
        <ele>349.2</ele>
        <time>2016-07-31T07:47:35Z</time>
      </trkpt>
      <trkpt lat="43.58132" lon="3.34341">
        <ele>349.6</ele>
        <time>2016-07-31T07:47:38Z</time>
      </trkpt>
      <trkpt lat="43.58136" lon="3.34351">
        <ele>350.1</ele>
        <time>2016-07-31T07:47:41Z</time>
      </trkpt>
      <trkpt lat="43.5814" lon="3.34361">
        <ele>350.8</ele>
        <time>2016-07-31T07:47:45Z</time>
      </trkpt>
      <trkpt lat="43.58145" lon="3.3437">
        <ele>351.4</ele>
        <time>2016-07-31T07:47:48Z</time>
      </trkpt>
      <trkpt lat="43.58149" lon="3.34378">
        <ele>351.7</ele>
        <time>2016-07-31T07:47:51Z</time>
      </trkpt>
      <trkpt lat="43.58154" lon="3.34386">
        <ele>352.2</ele>
        <time>2016-07-31T07:47:55Z</time>
      </trkpt>
      <trkpt lat="43.5816" lon="3.34396">
        <ele>352.7</ele>
        <time>2016-07-31T07:47:59Z</time>
      </trkpt>
      <trkpt lat="43.58166" lon="3.34405">
        <ele>353.3</ele>
        <time>2016-07-31T07:48:03Z</time>
      </trkpt>
      <trkpt lat="43.58172" lon="3.34414">
        <ele>353.9</ele>
        <time>2016-07-31T07:48:07Z</time>
      </trkpt>
      <trkpt lat="43.58178" lon="3.34422">
        <ele>354.4</ele>
        <time>2016-07-31T07:48:11Z</time>
      </trkpt>
      <trkpt lat="43.58184" lon="3.34429">
        <ele>355</ele>
        <time>2016-07-31T07:48:15Z</time>
      </trkpt>
      <trkpt lat="43.58189" lon="3.34437">
        <ele>355.6</ele>
        <time>2016-07-31T07:48:19Z</time>
      </trkpt>
      <trkpt lat="43.58196" lon="3.34445">
        <ele>356.2</ele>
        <time>2016-07-31T07:48:23Z</time>
      </trkpt>
      <trkpt lat="43.58202" lon="3.3445">
        <ele>356.7</ele>
        <time>2016-07-31T07:48:26Z</time>
      </trkpt>
      <trkpt lat="43.58208" lon="3.34456">
        <ele>357.3</ele>
        <time>2016-07-31T07:48:30Z</time>
      </trkpt>
      <trkpt lat="43.58216" lon="3.3446">
        <ele>357.8</ele>
        <time>2016-07-31T07:48:34Z</time>
      </trkpt>
      <trkpt lat="43.58224" lon="3.34463">
        <ele>358.4</ele>
        <time>2016-07-31T07:48:39Z</time>
      </trkpt>
      <trkpt lat="43.58232" lon="3.34465">
        <ele>359</ele>
        <time>2016-07-31T07:48:43Z</time>
      </trkpt>
      <trkpt lat="43.5824" lon="3.34465">
        <ele>359.7</ele>
        <time>2016-07-31T07:48:47Z</time>
      </trkpt>
      <trkpt lat="43.58248" lon="3.34466">
        <ele>360.3</ele>
        <time>2016-07-31T07:48:51Z</time>
      </trkpt>
      <trkpt lat="43.58254" lon="3.34466">
        <ele>361.4</ele>
        <time>2016-07-31T07:48:58Z</time>
      </trkpt>
      <trkpt lat="43.58253" lon="3.34466">
        <ele>362.9</ele>
        <time>2016-07-31T07:49:31Z</time>
      </trkpt>
      <trkpt lat="43.58257" lon="3.34471">
        <ele>363.2</ele>
        <time>2016-07-31T07:49:56Z</time>
      </trkpt>
      <trkpt lat="43.58259" lon="3.34482">
        <ele>363.6</ele>
        <time>2016-07-31T07:49:59Z</time>
      </trkpt>
      <trkpt lat="43.58264" lon="3.34494">
        <ele>364</ele>
        <time>2016-07-31T07:50:03Z</time>
      </trkpt>
      <trkpt lat="43.5827" lon="3.34505">
        <ele>365</ele>
        <time>2016-07-31T07:50:05Z</time>
      </trkpt>
      <trkpt lat="43.58275" lon="3.34519">
        <ele>365.1</ele>
        <time>2016-07-31T07:50:07Z</time>
      </trkpt>
      <trkpt lat="43.58282" lon="3.3453">
        <ele>364.6</ele>
        <time>2016-07-31T07:50:09Z</time>
      </trkpt>
      <trkpt lat="43.58288" lon="3.34538">
        <ele>364.3</ele>
        <time>2016-07-31T07:50:11Z</time>
      </trkpt>
      <trkpt lat="43.58292" lon="3.34547">
        <ele>363.9</ele>
        <time>2016-07-31T07:50:14Z</time>
      </trkpt>
      <trkpt lat="43.58299" lon="3.34556">
        <ele>363.6</ele>
        <time>2016-07-31T07:50:16Z</time>
      </trkpt>
      <trkpt lat="43.58307" lon="3.34566">
        <ele>363.3</ele>
        <time>2016-07-31T07:50:18Z</time>
      </trkpt>
      <trkpt lat="43.58315" lon="3.34573">
        <ele>362.9</ele>
        <time>2016-07-31T07:50:20Z</time>
      </trkpt>
      <trkpt lat="43.58323" lon="3.34578">
        <ele>362.6</ele>
        <time>2016-07-31T07:50:22Z</time>
      </trkpt>
      <trkpt lat="43.58331" lon="3.34587">
        <ele>361</ele>
        <time>2016-07-31T07:50:24Z</time>
      </trkpt>
      <trkpt lat="43.58337" lon="3.34596">
        <ele>359.1</ele>
        <time>2016-07-31T07:50:26Z</time>
      </trkpt>
      <trkpt lat="43.58344" lon="3.34605">
        <ele>358.9</ele>
        <time>2016-07-31T07:50:28Z</time>
      </trkpt>
      <trkpt lat="43.58352" lon="3.34609">
        <ele>358.5</ele>
        <time>2016-07-31T07:50:30Z</time>
      </trkpt>
      <trkpt lat="43.58353" lon="3.3462">
        <ele>357.6</ele>
        <time>2016-07-31T07:50:35Z</time>
      </trkpt>
      <trkpt lat="43.58353" lon="3.34632">
        <ele>357.1</ele>
        <time>2016-07-31T07:50:38Z</time>
      </trkpt>
      <trkpt lat="43.58353" lon="3.34643">
        <ele>356.9</ele>
        <time>2016-07-31T07:50:40Z</time>
      </trkpt>
      <trkpt lat="43.58353" lon="3.34655">
        <ele>355</ele>
        <time>2016-07-31T07:50:42Z</time>
      </trkpt>
      <trkpt lat="43.58353" lon="3.34672">
        <ele>353.4</ele>
        <time>2016-07-31T07:50:44Z</time>
      </trkpt>
      <trkpt lat="43.58353" lon="3.34688">
        <ele>350.9</ele>
        <time>2016-07-31T07:50:46Z</time>
      </trkpt>
      <trkpt lat="43.58355" lon="3.34704">
        <ele>349.2</ele>
        <time>2016-07-31T07:50:48Z</time>
      </trkpt>
      <trkpt lat="43.58356" lon="3.34717">
        <ele>348.3</ele>
        <time>2016-07-31T07:50:50Z</time>
      </trkpt>
      <trkpt lat="43.58359" lon="3.34731">
        <ele>348</ele>
        <time>2016-07-31T07:50:52Z</time>
      </trkpt>
      <trkpt lat="43.58364" lon="3.34743">
        <ele>347.5</ele>
        <time>2016-07-31T07:50:54Z</time>
      </trkpt>
      <trkpt lat="43.58371" lon="3.3476">
        <ele>347.1</ele>
        <time>2016-07-31T07:50:56Z</time>
      </trkpt>
      <trkpt lat="43.58378" lon="3.34773">
        <ele>345.9</ele>
        <time>2016-07-31T07:50:58Z</time>
      </trkpt>
      <trkpt lat="43.58384" lon="3.34791">
        <ele>345.2</ele>
        <time>2016-07-31T07:51:00Z</time>
      </trkpt>
      <trkpt lat="43.58386" lon="3.34802">
        <ele>345</ele>
        <time>2016-07-31T07:51:01Z</time>
      </trkpt>
      <trkpt lat="43.58387" lon="3.34812">
        <ele>344.3</ele>
        <time>2016-07-31T07:51:02Z</time>
      </trkpt>
      <trkpt lat="43.58388" lon="3.34822">
        <ele>343.5</ele>
        <time>2016-07-31T07:51:03Z</time>
      </trkpt>
      <trkpt lat="43.58389" lon="3.34833">
        <ele>342.5</ele>
        <time>2016-07-31T07:51:04Z</time>
      </trkpt>
      <trkpt lat="43.5839" lon="3.34853">
        <ele>339.7</ele>
        <time>2016-07-31T07:51:06Z</time>
      </trkpt>
      <trkpt lat="43.58389" lon="3.34864">
        <ele>337.9</ele>
        <time>2016-07-31T07:51:07Z</time>
      </trkpt>
      <trkpt lat="43.58388" lon="3.34881">
        <ele>334.2</ele>
        <time>2016-07-31T07:51:09Z</time>
      </trkpt>
      <trkpt lat="43.58385" lon="3.34899">
        <ele>331.2</ele>
        <time>2016-07-31T07:51:11Z</time>
      </trkpt>
      <trkpt lat="43.58382" lon="3.34909">
        <ele>329.9</ele>
        <time>2016-07-31T07:51:12Z</time>
      </trkpt>
      <trkpt lat="43.58378" lon="3.34921">
        <ele>328.7</ele>
        <time>2016-07-31T07:51:13Z</time>
      </trkpt>
      <trkpt lat="43.58373" lon="3.34932">
        <ele>327.4</ele>
        <time>2016-07-31T07:51:14Z</time>
      </trkpt>
      <trkpt lat="43.58368" lon="3.34945">
        <ele>325.7</ele>
        <time>2016-07-31T07:51:15Z</time>
      </trkpt>
      <trkpt lat="43.58363" lon="3.34954">
        <ele>324.2</ele>
        <time>2016-07-31T07:51:16Z</time>
      </trkpt>
      <trkpt lat="43.58357" lon="3.34964">
        <ele>322.6</ele>
        <time>2016-07-31T07:51:17Z</time>
      </trkpt>
      <trkpt lat="43.5835" lon="3.34981">
        <ele>320.1</ele>
        <time>2016-07-31T07:51:19Z</time>
      </trkpt>
      <trkpt lat="43.58343" lon="3.34991">
        <ele>319</ele>
        <time>2016-07-31T07:51:21Z</time>
      </trkpt>
      <trkpt lat="43.58334" lon="3.35001">
        <ele>316.2</ele>
        <time>2016-07-31T07:51:23Z</time>
      </trkpt>
      <trkpt lat="43.58325" lon="3.3501">
        <ele>314.1</ele>
        <time>2016-07-31T07:51:25Z</time>
      </trkpt>
      <trkpt lat="43.58316" lon="3.3502">
        <ele>312.1</ele>
        <time>2016-07-31T07:51:27Z</time>
      </trkpt>
      <trkpt lat="43.5831" lon="3.35026">
        <ele>311.4</ele>
        <time>2016-07-31T07:51:29Z</time>
      </trkpt>
      <trkpt lat="43.58308" lon="3.3504">
        <ele>310.2</ele>
        <time>2016-07-31T07:51:32Z</time>
      </trkpt>
      <trkpt lat="43.58307" lon="3.35058">
        <ele>309.1</ele>
        <time>2016-07-31T07:51:34Z</time>
      </trkpt>
      <trkpt lat="43.58304" lon="3.35073">
        <ele>308.4</ele>
        <time>2016-07-31T07:51:36Z</time>
      </trkpt>
      <trkpt lat="43.58299" lon="3.35086">
        <ele>306.2</ele>
        <time>2016-07-31T07:51:38Z</time>
      </trkpt>
      <trkpt lat="43.58303" lon="3.35098">
        <ele>306</ele>
        <time>2016-07-31T07:51:41Z</time>
      </trkpt>
      <trkpt lat="43.58308" lon="3.35114">
        <ele>305</ele>
        <time>2016-07-31T07:51:44Z</time>
      </trkpt>
      <trkpt lat="43.58311" lon="3.35131">
        <ele>303.9</ele>
        <time>2016-07-31T07:51:46Z</time>
      </trkpt>
      <trkpt lat="43.58311" lon="3.35143">
        <ele>303.3</ele>
        <time>2016-07-31T07:51:47Z</time>
      </trkpt>
      <trkpt lat="43.58314" lon="3.35153">
        <ele>302.1</ele>
        <time>2016-07-31T07:51:48Z</time>
      </trkpt>
      <trkpt lat="43.58317" lon="3.35168">
        <ele>299.8</ele>
        <time>2016-07-31T07:51:50Z</time>
      </trkpt>
      <trkpt lat="43.58317" lon="3.35179">
        <ele>298.4</ele>
        <time>2016-07-31T07:51:51Z</time>
      </trkpt>
      <trkpt lat="43.58317" lon="3.35195">
        <ele>297.1</ele>
        <time>2016-07-31T07:51:53Z</time>
      </trkpt>
      <trkpt lat="43.58323" lon="3.35201">
        <ele>296.8</ele>
        <time>2016-07-31T07:51:55Z</time>
      </trkpt>
      <trkpt lat="43.5833" lon="3.35212">
        <ele>293</ele>
        <time>2016-07-31T07:51:57Z</time>
      </trkpt>
      <trkpt lat="43.58332" lon="3.35229">
        <ele>289.1</ele>
        <time>2016-07-31T07:51:59Z</time>
      </trkpt>
      <trkpt lat="43.58334" lon="3.35247">
        <ele>285.5</ele>
        <time>2016-07-31T07:52:01Z</time>
      </trkpt>
      <trkpt lat="43.58332" lon="3.35262">
        <ele>281.9</ele>
        <time>2016-07-31T07:52:03Z</time>
      </trkpt>
      <trkpt lat="43.5833" lon="3.35274">
        <ele>281.6</ele>
        <time>2016-07-31T07:52:05Z</time>
      </trkpt>
      <trkpt lat="43.58333" lon="3.35288">
        <ele>279.7</ele>
        <time>2016-07-31T07:52:07Z</time>
      </trkpt>
      <trkpt lat="43.58335" lon="3.35299">
        <ele>279.2</ele>
        <time>2016-07-31T07:52:10Z</time>
      </trkpt>
      <trkpt lat="43.58335" lon="3.35312">
        <ele>277.6</ele>
        <time>2016-07-31T07:53:35Z</time>
      </trkpt>
      <trkpt lat="43.58333" lon="3.35325">
        <ele>277.5</ele>
        <time>2016-07-31T07:53:38Z</time>
      </trkpt>
      <trkpt lat="43.5833" lon="3.35335">
        <ele>276.6</ele>
        <time>2016-07-31T07:53:40Z</time>
      </trkpt>
      <trkpt lat="43.58328" lon="3.35347">
        <ele>275.7</ele>
        <time>2016-07-31T07:53:42Z</time>
      </trkpt>
      <trkpt lat="43.58327" lon="3.35358">
        <ele>275.6</ele>
        <time>2016-07-31T07:53:44Z</time>
      </trkpt>
      <trkpt lat="43.58326" lon="3.35371">
        <ele>275.5</ele>
        <time>2016-07-31T07:53:46Z</time>
      </trkpt>
      <trkpt lat="43.58326" lon="3.35386">
        <ele>274.3</ele>
        <time>2016-07-31T07:53:48Z</time>
      </trkpt>
      <trkpt lat="43.58326" lon="3.35402">
        <ele>273.3</ele>
        <time>2016-07-31T07:53:50Z</time>
      </trkpt>
      <trkpt lat="43.58325" lon="3.3542">
        <ele>272</ele>
        <time>2016-07-31T07:53:52Z</time>
      </trkpt>
      <trkpt lat="43.58325" lon="3.3543">
        <ele>271.3</ele>
        <time>2016-07-31T07:53:53Z</time>
      </trkpt>
      <trkpt lat="43.58325" lon="3.35441">
        <ele>270.4</ele>
        <time>2016-07-31T07:53:54Z</time>
      </trkpt>
      <trkpt lat="43.58325" lon="3.35452">
        <ele>269.3</ele>
        <time>2016-07-31T07:53:55Z</time>
      </trkpt>
      <trkpt lat="43.58325" lon="3.35461">
        <ele>268.1</ele>
        <time>2016-07-31T07:53:56Z</time>
      </trkpt>
      <trkpt lat="43.58325" lon="3.35473">
        <ele>266.8</ele>
        <time>2016-07-31T07:53:57Z</time>
      </trkpt>
      <trkpt lat="43.58325" lon="3.35484">
        <ele>265.6</ele>
        <time>2016-07-31T07:53:59Z</time>
      </trkpt>
      <trkpt lat="43.58324" lon="3.35495">
        <ele>264.6</ele>
        <time>2016-07-31T07:53:59Z</time>
      </trkpt>
      <trkpt lat="43.58323" lon="3.35506">
        <ele>263.9</ele>
        <time>2016-07-31T07:54:00Z</time>
      </trkpt>
      <trkpt lat="43.58323" lon="3.35517">
        <ele>263</ele>
        <time>2016-07-31T07:54:01Z</time>
      </trkpt>
      <trkpt lat="43.58321" lon="3.35529">
        <ele>262.2</ele>
        <time>2016-07-31T07:54:02Z</time>
      </trkpt>
      <trkpt lat="43.58318" lon="3.35548">
        <ele>260.5</ele>
        <time>2016-07-31T07:54:04Z</time>
      </trkpt>
      <trkpt lat="43.58316" lon="3.3556">
        <ele>259.8</ele>
        <time>2016-07-31T07:54:05Z</time>
      </trkpt>
      <trkpt lat="43.58313" lon="3.35572">
        <ele>259.4</ele>
        <time>2016-07-31T07:54:06Z</time>
      </trkpt>
      <trkpt lat="43.58311" lon="3.35582">
        <ele>258.9</ele>
        <time>2016-07-31T07:54:07Z</time>
      </trkpt>
      <trkpt lat="43.58308" lon="3.35593">
        <ele>258.4</ele>
        <time>2016-07-31T07:54:08Z</time>
      </trkpt>
      <trkpt lat="43.58304" lon="3.35603">
        <ele>257.7</ele>
        <time>2016-07-31T07:54:09Z</time>
      </trkpt>
      <trkpt lat="43.58299" lon="3.35612">
        <ele>257</ele>
        <time>2016-07-31T07:54:10Z</time>
      </trkpt>
      <trkpt lat="43.58292" lon="3.35626">
        <ele>255.5</ele>
        <time>2016-07-31T07:54:12Z</time>
      </trkpt>
      <trkpt lat="43.58286" lon="3.35643">
        <ele>254.5</ele>
        <time>2016-07-31T07:54:14Z</time>
      </trkpt>
      <trkpt lat="43.58282" lon="3.35662">
        <ele>254</ele>
        <time>2016-07-31T07:54:16Z</time>
      </trkpt>
      <trkpt lat="43.58278" lon="3.35682">
        <ele>253</ele>
        <time>2016-07-31T07:54:18Z</time>
      </trkpt>
      <trkpt lat="43.58275" lon="3.35694">
        <ele>252.4</ele>
        <time>2016-07-31T07:54:19Z</time>
      </trkpt>
      <trkpt lat="43.58272" lon="3.35703">
        <ele>251.9</ele>
        <time>2016-07-31T07:54:20Z</time>
      </trkpt>
      <trkpt lat="43.58268" lon="3.35715">
        <ele>251.2</ele>
        <time>2016-07-31T07:54:21Z</time>
      </trkpt>
      <trkpt lat="43.58265" lon="3.35727">
        <ele>250</ele>
        <time>2016-07-31T07:54:22Z</time>
      </trkpt>
      <trkpt lat="43.58261" lon="3.35739">
        <ele>249.1</ele>
        <time>2016-07-31T07:54:23Z</time>
      </trkpt>
      <trkpt lat="43.58257" lon="3.35753">
        <ele>247.7</ele>
        <time>2016-07-31T07:54:24Z</time>
      </trkpt>
      <trkpt lat="43.58253" lon="3.35767">
        <ele>246</ele>
        <time>2016-07-31T07:54:25Z</time>
      </trkpt>
      <trkpt lat="43.58247" lon="3.35783">
        <ele>244.9</ele>
        <time>2016-07-31T07:54:26Z</time>
      </trkpt>
      <trkpt lat="43.58242" lon="3.35798">
        <ele>243.7</ele>
        <time>2016-07-31T07:54:27Z</time>
      </trkpt>
      <trkpt lat="43.58236" lon="3.35815">
        <ele>242.7</ele>
        <time>2016-07-31T07:54:28Z</time>
      </trkpt>
      <trkpt lat="43.5823" lon="3.3583">
        <ele>241.3</ele>
        <time>2016-07-31T07:54:29Z</time>
      </trkpt>
      <trkpt lat="43.58223" lon="3.35845">
        <ele>239.9</ele>
        <time>2016-07-31T07:54:30Z</time>
      </trkpt>
      <trkpt lat="43.58218" lon="3.35857">
        <ele>238.6</ele>
        <time>2016-07-31T07:54:31Z</time>
      </trkpt>
      <trkpt lat="43.58215" lon="3.35866">
        <ele>237</ele>
        <time>2016-07-31T07:54:32Z</time>
      </trkpt>
      <trkpt lat="43.58211" lon="3.35878">
        <ele>234</ele>
        <time>2016-07-31T07:54:34Z</time>
      </trkpt>
      <trkpt lat="43.58218" lon="3.35884">
        <ele>233.1</ele>
        <time>2016-07-31T07:54:40Z</time>
      </trkpt>
      <trkpt lat="43.58225" lon="3.35879">
        <ele>232.7</ele>
        <time>2016-07-31T07:54:43Z</time>
      </trkpt>
      <trkpt lat="43.58233" lon="3.35871">
        <ele>232.1</ele>
        <time>2016-07-31T07:54:46Z</time>
      </trkpt>
      <trkpt lat="43.5824" lon="3.35866">
        <ele>229.9</ele>
        <time>2016-07-31T07:54:48Z</time>
      </trkpt>
      <trkpt lat="43.58247" lon="3.35863">
        <ele>229.7</ele>
        <time>2016-07-31T07:54:50Z</time>
      </trkpt>
      <trkpt lat="43.58255" lon="3.35859">
        <ele>228.8</ele>
        <time>2016-07-31T07:54:52Z</time>
      </trkpt>
      <trkpt lat="43.58266" lon="3.35854">
        <ele>228.6</ele>
        <time>2016-07-31T07:54:55Z</time>
      </trkpt>
      <trkpt lat="43.58274" lon="3.35849">
        <ele>228.2</ele>
        <time>2016-07-31T07:54:58Z</time>
      </trkpt>
      <trkpt lat="43.58282" lon="3.35843">
        <ele>228</ele>
        <time>2016-07-31T07:55:01Z</time>
      </trkpt>
      <trkpt lat="43.58289" lon="3.35838">
        <ele>227.7</ele>
        <time>2016-07-31T07:55:04Z</time>
      </trkpt>
      <trkpt lat="43.58296" lon="3.35836">
        <ele>227.7</ele>
        <time>2016-07-31T07:55:07Z</time>
      </trkpt>
      <trkpt lat="43.58304" lon="3.35831">
        <ele>227.6</ele>
        <time>2016-07-31T07:55:10Z</time>
      </trkpt>
      <trkpt lat="43.58311" lon="3.35827">
        <ele>227.5</ele>
        <time>2016-07-31T07:55:13Z</time>
      </trkpt>
      <trkpt lat="43.58319" lon="3.35822">
        <ele>227.5</ele>
        <time>2016-07-31T07:55:16Z</time>
      </trkpt>
      <trkpt lat="43.58327" lon="3.35815">
        <ele>227.4</ele>
        <time>2016-07-31T07:55:19Z</time>
      </trkpt>
      <trkpt lat="43.58333" lon="3.35808">
        <ele>227.4</ele>
        <time>2016-07-31T07:55:22Z</time>
      </trkpt>
      <trkpt lat="43.58339" lon="3.35802">
        <ele>227.2</ele>
        <time>2016-07-31T07:55:25Z</time>
      </trkpt>
      <trkpt lat="43.58347" lon="3.35793">
        <ele>227.2</ele>
        <time>2016-07-31T07:55:28Z</time>
      </trkpt>
      <trkpt lat="43.58355" lon="3.35785">
        <ele>227.1</ele>
        <time>2016-07-31T07:55:31Z</time>
      </trkpt>
      <trkpt lat="43.58363" lon="3.35777">
        <ele>227.2</ele>
        <time>2016-07-31T07:55:34Z</time>
      </trkpt>
      <trkpt lat="43.58369" lon="3.35769">
        <ele>227.3</ele>
        <time>2016-07-31T07:55:37Z</time>
      </trkpt>
      <trkpt lat="43.58376" lon="3.35763">
        <ele>227.2</ele>
        <time>2016-07-31T07:55:40Z</time>
      </trkpt>
      <trkpt lat="43.58384" lon="3.35757">
        <ele>227.2</ele>
        <time>2016-07-31T07:55:43Z</time>
      </trkpt>
      <trkpt lat="43.5839" lon="3.35749">
        <ele>227.2</ele>
        <time>2016-07-31T07:55:46Z</time>
      </trkpt>
      <trkpt lat="43.58397" lon="3.35742">
        <ele>227.3</ele>
        <time>2016-07-31T07:55:49Z</time>
      </trkpt>
      <trkpt lat="43.58405" lon="3.35735">
        <ele>227.5</ele>
        <time>2016-07-31T07:55:52Z</time>
      </trkpt>
      <trkpt lat="43.58413" lon="3.35729">
        <ele>227.6</ele>
        <time>2016-07-31T07:55:55Z</time>
      </trkpt>
      <trkpt lat="43.58422" lon="3.35724">
        <ele>227.8</ele>
        <time>2016-07-31T07:55:58Z</time>
      </trkpt>
      <trkpt lat="43.58431" lon="3.35717">
        <ele>227.9</ele>
        <time>2016-07-31T07:56:00Z</time>
      </trkpt>
      <trkpt lat="43.58439" lon="3.3571">
        <ele>228.3</ele>
        <time>2016-07-31T07:56:02Z</time>
      </trkpt>
      <trkpt lat="43.58447" lon="3.35704">
        <ele>228.4</ele>
        <time>2016-07-31T07:56:04Z</time>
      </trkpt>
      <trkpt lat="43.58454" lon="3.35699">
        <ele>228.8</ele>
        <time>2016-07-31T07:56:06Z</time>
      </trkpt>
      <trkpt lat="43.58461" lon="3.35693">
        <ele>228.6</ele>
        <time>2016-07-31T07:56:08Z</time>
      </trkpt>
      <trkpt lat="43.58468" lon="3.35688">
        <ele>228.3</ele>
        <time>2016-07-31T07:56:10Z</time>
      </trkpt>
      <trkpt lat="43.58475" lon="3.35683">
        <ele>228.1</ele>
        <time>2016-07-31T07:56:12Z</time>
      </trkpt>
      <trkpt lat="43.58482" lon="3.35677">
        <ele>227.7</ele>
        <time>2016-07-31T07:56:14Z</time>
      </trkpt>
      <trkpt lat="43.58489" lon="3.35672">
        <ele>227.7</ele>
        <time>2016-07-31T07:56:16Z</time>
      </trkpt>
      <trkpt lat="43.58498" lon="3.35666">
        <ele>227.6</ele>
        <time>2016-07-31T07:56:19Z</time>
      </trkpt>
      <trkpt lat="43.58506" lon="3.35664">
        <ele>227.5</ele>
        <time>2016-07-31T07:56:22Z</time>
      </trkpt>
      <trkpt lat="43.58515" lon="3.3566">
        <ele>227.4</ele>
        <time>2016-07-31T07:56:24Z</time>
      </trkpt>
      <trkpt lat="43.58523" lon="3.35657">
        <ele>227.2</ele>
        <time>2016-07-31T07:56:26Z</time>
      </trkpt>
      <trkpt lat="43.58532" lon="3.35655">
        <ele>227</ele>
        <time>2016-07-31T07:56:29Z</time>
      </trkpt>
      <trkpt lat="43.5854" lon="3.35653">
        <ele>226.7</ele>
        <time>2016-07-31T07:56:31Z</time>
      </trkpt>
      <trkpt lat="43.58548" lon="3.35652">
        <ele>226.4</ele>
        <time>2016-07-31T07:56:34Z</time>
      </trkpt>
      <trkpt lat="43.58557" lon="3.35652">
        <ele>226</ele>
        <time>2016-07-31T07:56:38Z</time>
      </trkpt>
      <trkpt lat="43.58564" lon="3.35646">
        <ele>225.8</ele>
        <time>2016-07-31T07:56:41Z</time>
      </trkpt>
      <trkpt lat="43.58573" lon="3.35642">
        <ele>225.5</ele>
        <time>2016-07-31T07:56:44Z</time>
      </trkpt>
      <trkpt lat="43.58582" lon="3.35638">
        <ele>225.2</ele>
        <time>2016-07-31T07:56:47Z</time>
      </trkpt>
      <trkpt lat="43.5859" lon="3.35633">
        <ele>224.8</ele>
        <time>2016-07-31T07:56:50Z</time>
      </trkpt>
      <trkpt lat="43.58598" lon="3.35627">
        <ele>224.5</ele>
        <time>2016-07-31T07:56:53Z</time>
      </trkpt>
      <trkpt lat="43.58607" lon="3.35622">
        <ele>224.2</ele>
        <time>2016-07-31T07:56:56Z</time>
      </trkpt>
      <trkpt lat="43.58616" lon="3.35617">
        <ele>223.9</ele>
        <time>2016-07-31T07:56:59Z</time>
      </trkpt>
      <trkpt lat="43.58625" lon="3.35613">
        <ele>223.7</ele>
        <time>2016-07-31T07:57:02Z</time>
      </trkpt>
      <trkpt lat="43.58634" lon="3.35608">
        <ele>223.4</ele>
        <time>2016-07-31T07:57:05Z</time>
      </trkpt>
      <trkpt lat="43.58643" lon="3.35605">
        <ele>223.2</ele>
        <time>2016-07-31T07:57:08Z</time>
      </trkpt>
      <trkpt lat="43.58652" lon="3.35599">
        <ele>223</ele>
        <time>2016-07-31T07:57:11Z</time>
      </trkpt>
      <trkpt lat="43.58659" lon="3.35592">
        <ele>222.8</ele>
        <time>2016-07-31T07:57:14Z</time>
      </trkpt>
      <trkpt lat="43.58665" lon="3.35581">
        <ele>222.6</ele>
        <time>2016-07-31T07:57:17Z</time>
      </trkpt>
      <trkpt lat="43.58669" lon="3.35573">
        <ele>222.4</ele>
        <time>2016-07-31T07:57:19Z</time>
      </trkpt>
      <trkpt lat="43.58676" lon="3.35565">
        <ele>222.1</ele>
        <time>2016-07-31T07:57:22Z</time>
      </trkpt>
      <trkpt lat="43.58683" lon="3.35556">
        <ele>221.9</ele>
        <time>2016-07-31T07:57:25Z</time>
      </trkpt>
      <trkpt lat="43.58687" lon="3.35547">
        <ele>221.7</ele>
        <time>2016-07-31T07:57:27Z</time>
      </trkpt>
      <trkpt lat="43.58693" lon="3.35536">
        <ele>221.6</ele>
        <time>2016-07-31T07:57:30Z</time>
      </trkpt>
      <trkpt lat="43.58697" lon="3.35525">
        <ele>221.4</ele>
        <time>2016-07-31T07:57:33Z</time>
      </trkpt>
      <trkpt lat="43.587" lon="3.35515">
        <ele>221.3</ele>
        <time>2016-07-31T07:57:35Z</time>
      </trkpt>
      <trkpt lat="43.58703" lon="3.35505">
        <ele>221.1</ele>
        <time>2016-07-31T07:57:37Z</time>
      </trkpt>
      <trkpt lat="43.58708" lon="3.35494">
        <ele>221.1</ele>
        <time>2016-07-31T07:57:40Z</time>
      </trkpt>
      <trkpt lat="43.58715" lon="3.35484">
        <ele>221</ele>
        <time>2016-07-31T07:57:43Z</time>
      </trkpt>
      <trkpt lat="43.58724" lon="3.35475">
        <ele>221</ele>
        <time>2016-07-31T07:57:46Z</time>
      </trkpt>
      <trkpt lat="43.58732" lon="3.3547">
        <ele>220.8</ele>
        <time>2016-07-31T07:57:49Z</time>
      </trkpt>
      <trkpt lat="43.58742" lon="3.35464">
        <ele>220.8</ele>
        <time>2016-07-31T07:57:52Z</time>
      </trkpt>
      <trkpt lat="43.5875" lon="3.35455">
        <ele>220.6</ele>
        <time>2016-07-31T07:57:55Z</time>
      </trkpt>
      <trkpt lat="43.58755" lon="3.35449">
        <ele>220.5</ele>
        <time>2016-07-31T07:57:57Z</time>
      </trkpt>
      <trkpt lat="43.5876" lon="3.35436">
        <ele>220.3</ele>
        <time>2016-07-31T07:58:00Z</time>
      </trkpt>
      <trkpt lat="43.58762" lon="3.35422">
        <ele>220.3</ele>
        <time>2016-07-31T07:58:03Z</time>
      </trkpt>
      <trkpt lat="43.58765" lon="3.35411">
        <ele>220.4</ele>
        <time>2016-07-31T07:58:06Z</time>
      </trkpt>
      <trkpt lat="43.5877" lon="3.354">
        <ele>220.5</ele>
        <time>2016-07-31T07:58:09Z</time>
      </trkpt>
      <trkpt lat="43.58775" lon="3.35389">
        <ele>220.5</ele>
        <time>2016-07-31T07:58:12Z</time>
      </trkpt>
      <trkpt lat="43.58779" lon="3.35381">
        <ele>220.6</ele>
        <time>2016-07-31T07:58:16Z</time>
      </trkpt>
      <trkpt lat="43.58788" lon="3.35377">
        <ele>220.6</ele>
        <time>2016-07-31T07:58:20Z</time>
      </trkpt>
      <trkpt lat="43.58799" lon="3.35376">
        <ele>219.5</ele>
        <time>2016-07-31T07:58:23Z</time>
      </trkpt>
      <trkpt lat="43.58809" lon="3.35374">
        <ele>217.9</ele>
        <time>2016-07-31T07:58:25Z</time>
      </trkpt>
      <trkpt lat="43.58821" lon="3.35372">
        <ele>216.1</ele>
        <time>2016-07-31T07:58:27Z</time>
      </trkpt>
      <trkpt lat="43.58831" lon="3.35368">
        <ele>214.3</ele>
        <time>2016-07-31T07:58:29Z</time>
      </trkpt>
      <trkpt lat="43.58838" lon="3.35364">
        <ele>214.1</ele>
        <time>2016-07-31T07:58:32Z</time>
      </trkpt>
      <trkpt lat="43.5884" lon="3.3538">
        <ele>213.1</ele>
        <time>2016-07-31T07:58:36Z</time>
      </trkpt>
      <trkpt lat="43.5884" lon="3.35393">
        <ele>211</ele>
        <time>2016-07-31T07:58:38Z</time>
      </trkpt>
      <trkpt lat="43.58839" lon="3.35405">
        <ele>209</ele>
        <time>2016-07-31T07:58:40Z</time>
      </trkpt>
      <trkpt lat="43.58838" lon="3.35417">
        <ele>206</ele>
        <time>2016-07-31T07:58:42Z</time>
      </trkpt>
      <trkpt lat="43.58837" lon="3.35427">
        <ele>203</ele>
        <time>2016-07-31T07:58:44Z</time>
      </trkpt>
      <trkpt lat="43.58833" lon="3.35444">
        <ele>199.8</ele>
        <time>2016-07-31T07:58:46Z</time>
      </trkpt>
      <trkpt lat="43.58829" lon="3.3546">
        <ele>197.4</ele>
        <time>2016-07-31T07:58:48Z</time>
      </trkpt>
      <trkpt lat="43.58826" lon="3.35471">
        <ele>195.4</ele>
        <time>2016-07-31T07:58:50Z</time>
      </trkpt>
      <trkpt lat="43.58819" lon="3.35477">
        <ele>195.1</ele>
        <time>2016-07-31T07:58:53Z</time>
      </trkpt>
      <trkpt lat="43.58813" lon="3.35485">
        <ele>194.5</ele>
        <time>2016-07-31T07:58:59Z</time>
      </trkpt>
      <trkpt lat="43.58808" lon="3.35494">
        <ele>194</ele>
        <time>2016-07-31T07:59:05Z</time>
      </trkpt>
      <trkpt lat="43.58803" lon="3.35503">
        <ele>193.7</ele>
        <time>2016-07-31T07:59:09Z</time>
      </trkpt>
      <trkpt lat="43.58798" lon="3.35513">
        <ele>193.5</ele>
        <time>2016-07-31T07:59:14Z</time>
      </trkpt>
      <trkpt lat="43.58794" lon="3.35522">
        <ele>193.3</ele>
        <time>2016-07-31T07:59:17Z</time>
      </trkpt>
      <trkpt lat="43.5879" lon="3.3553">
        <ele>193.2</ele>
        <time>2016-07-31T07:59:21Z</time>
      </trkpt>
      <trkpt lat="43.58787" lon="3.3554">
        <ele>193.2</ele>
        <time>2016-07-31T07:59:24Z</time>
      </trkpt>
      <trkpt lat="43.58782" lon="3.35552">
        <ele>193.1</ele>
        <time>2016-07-31T07:59:27Z</time>
      </trkpt>
      <trkpt lat="43.58778" lon="3.35561">
        <ele>193.1</ele>
        <time>2016-07-31T07:59:30Z</time>
      </trkpt>
      <trkpt lat="43.58772" lon="3.35573">
        <ele>192.6</ele>
        <time>2016-07-31T07:59:33Z</time>
      </trkpt>
      <trkpt lat="43.58766" lon="3.3558">
        <ele>192.5</ele>
        <time>2016-07-31T07:59:35Z</time>
      </trkpt>
      <trkpt lat="43.5876" lon="3.35586">
        <ele>192.3</ele>
        <time>2016-07-31T07:59:38Z</time>
      </trkpt>
      <trkpt lat="43.58754" lon="3.35591">
        <ele>192</ele>
        <time>2016-07-31T07:59:41Z</time>
      </trkpt>
      <trkpt lat="43.58748" lon="3.356">
        <ele>191.9</ele>
        <time>2016-07-31T07:59:44Z</time>
      </trkpt>
      <trkpt lat="43.58742" lon="3.3561">
        <ele>191</ele>
        <time>2016-07-31T07:59:47Z</time>
      </trkpt>
      <trkpt lat="43.58738" lon="3.35622">
        <ele>191</ele>
        <time>2016-07-31T07:59:50Z</time>
      </trkpt>
      <trkpt lat="43.58733" lon="3.35632">
        <ele>191.4</ele>
        <time>2016-07-31T07:59:52Z</time>
      </trkpt>
      <trkpt lat="43.5873" lon="3.35643">
        <ele>192.2</ele>
        <time>2016-07-31T07:59:54Z</time>
      </trkpt>
      <trkpt lat="43.58729" lon="3.35655">
        <ele>192.6</ele>
        <time>2016-07-31T07:59:56Z</time>
      </trkpt>
      <trkpt lat="43.58724" lon="3.35667">
        <ele>192.2</ele>
        <time>2016-07-31T07:59:58Z</time>
      </trkpt>
      <trkpt lat="43.58718" lon="3.35683">
        <ele>191.3</ele>
        <time>2016-07-31T08:00:00Z</time>
      </trkpt>
      <trkpt lat="43.58712" lon="3.35699">
        <ele>190.4</ele>
        <time>2016-07-31T08:00:02Z</time>
      </trkpt>
      <trkpt lat="43.58711" lon="3.35709">
        <ele>190.2</ele>
        <time>2016-07-31T08:00:03Z</time>
      </trkpt>
      <trkpt lat="43.58712" lon="3.35725">
        <ele>189.3</ele>
        <time>2016-07-31T08:00:05Z</time>
      </trkpt>
      <trkpt lat="43.58716" lon="3.35736">
        <ele>188.1</ele>
        <time>2016-07-31T08:00:08Z</time>
      </trkpt>
      <trkpt lat="43.58721" lon="3.35745">
        <ele>187</ele>
        <time>2016-07-31T08:00:10Z</time>
      </trkpt>
      <trkpt lat="43.58727" lon="3.35755">
        <ele>184.9</ele>
        <time>2016-07-31T08:00:12Z</time>
      </trkpt>
      <trkpt lat="43.58734" lon="3.35766">
        <ele>182.9</ele>
        <time>2016-07-31T08:00:14Z</time>
      </trkpt>
      <trkpt lat="43.58741" lon="3.35778">
        <ele>181.2</ele>
        <time>2016-07-31T08:00:16Z</time>
      </trkpt>
      <trkpt lat="43.58748" lon="3.35789">
        <ele>180</ele>
        <time>2016-07-31T08:00:18Z</time>
      </trkpt>
      <trkpt lat="43.58755" lon="3.35801">
        <ele>179.3</ele>
        <time>2016-07-31T08:00:20Z</time>
      </trkpt>
      <trkpt lat="43.58762" lon="3.35813">
        <ele>178.6</ele>
        <time>2016-07-31T08:00:22Z</time>
      </trkpt>
      <trkpt lat="43.58765" lon="3.35823">
        <ele>178</ele>
        <time>2016-07-31T08:00:24Z</time>
      </trkpt>
      <trkpt lat="43.58761" lon="3.35831">
        <ele>178.1</ele>
        <time>2016-07-31T08:00:27Z</time>
      </trkpt>
      <trkpt lat="43.58755" lon="3.35839">
        <ele>178.1</ele>
        <time>2016-07-31T08:00:31Z</time>
      </trkpt>
      <trkpt lat="43.58749" lon="3.35848">
        <ele>178.3</ele>
        <time>2016-07-31T08:00:34Z</time>
      </trkpt>
      <trkpt lat="43.58741" lon="3.35858">
        <ele>178.3</ele>
        <time>2016-07-31T08:00:37Z</time>
      </trkpt>
      <trkpt lat="43.58735" lon="3.35865">
        <ele>178.4</ele>
        <time>2016-07-31T08:00:40Z</time>
      </trkpt>
      <trkpt lat="43.58727" lon="3.35873">
        <ele>178.5</ele>
        <time>2016-07-31T08:00:43Z</time>
      </trkpt>
      <trkpt lat="43.58718" lon="3.35881">
        <ele>178.5</ele>
        <time>2016-07-31T08:00:46Z</time>
      </trkpt>
      <trkpt lat="43.58711" lon="3.35885">
        <ele>178.5</ele>
        <time>2016-07-31T08:00:48Z</time>
      </trkpt>
      <trkpt lat="43.58704" lon="3.35891">
        <ele>178.6</ele>
        <time>2016-07-31T08:00:50Z</time>
      </trkpt>
      <trkpt lat="43.58696" lon="3.35897">
        <ele>178.1</ele>
        <time>2016-07-31T08:00:52Z</time>
      </trkpt>
      <trkpt lat="43.58688" lon="3.35903">
        <ele>177.5</ele>
        <time>2016-07-31T08:00:54Z</time>
      </trkpt>
      <trkpt lat="43.5868" lon="3.35909">
        <ele>177.7</ele>
        <time>2016-07-31T08:00:56Z</time>
      </trkpt>
      <trkpt lat="43.58673" lon="3.35914">
        <ele>178.3</ele>
        <time>2016-07-31T08:00:58Z</time>
      </trkpt>
      <trkpt lat="43.58667" lon="3.35919">
        <ele>179</ele>
        <time>2016-07-31T08:01:00Z</time>
      </trkpt>
      <trkpt lat="43.5866" lon="3.35925">
        <ele>179.7</ele>
        <time>2016-07-31T08:01:02Z</time>
      </trkpt>
      <trkpt lat="43.58651" lon="3.35932">
        <ele>179.9</ele>
        <time>2016-07-31T08:01:04Z</time>
      </trkpt>
      <trkpt lat="43.58643" lon="3.35937">
        <ele>179.5</ele>
        <time>2016-07-31T08:01:06Z</time>
      </trkpt>
      <trkpt lat="43.58636" lon="3.35942">
        <ele>178.6</ele>
        <time>2016-07-31T08:01:08Z</time>
      </trkpt>
      <trkpt lat="43.58628" lon="3.35947">
        <ele>177.5</ele>
        <time>2016-07-31T08:01:10Z</time>
      </trkpt>
      <trkpt lat="43.5862" lon="3.35951">
        <ele>176.5</ele>
        <time>2016-07-31T08:01:12Z</time>
      </trkpt>
      <trkpt lat="43.58611" lon="3.35955">
        <ele>176.4</ele>
        <time>2016-07-31T08:01:14Z</time>
      </trkpt>
      <trkpt lat="43.58602" lon="3.35955">
        <ele>175.6</ele>
        <time>2016-07-31T08:01:17Z</time>
      </trkpt>
      <trkpt lat="43.58594" lon="3.35957">
        <ele>175.6</ele>
        <time>2016-07-31T08:01:19Z</time>
      </trkpt>
      <trkpt lat="43.58586" lon="3.3596">
        <ele>175.5</ele>
        <time>2016-07-31T08:01:22Z</time>
      </trkpt>
      <trkpt lat="43.58576" lon="3.35967">
        <ele>175.2</ele>
        <time>2016-07-31T08:01:25Z</time>
      </trkpt>
      <trkpt lat="43.58567" lon="3.35972">
        <ele>174.2</ele>
        <time>2016-07-31T08:01:28Z</time>
      </trkpt>
      <trkpt lat="43.58557" lon="3.35981">
        <ele>173.5</ele>
        <time>2016-07-31T08:01:31Z</time>
      </trkpt>
      <trkpt lat="43.5855" lon="3.35986">
        <ele>173.5</ele>
        <time>2016-07-31T08:01:33Z</time>
      </trkpt>
      <trkpt lat="43.58541" lon="3.35992">
        <ele>173.4</ele>
        <time>2016-07-31T08:01:36Z</time>
      </trkpt>
      <trkpt lat="43.58533" lon="3.35998">
        <ele>173.5</ele>
        <time>2016-07-31T08:01:39Z</time>
      </trkpt>
      <trkpt lat="43.58524" lon="3.36005">
        <ele>172.5</ele>
        <time>2016-07-31T08:01:41Z</time>
      </trkpt>
      <trkpt lat="43.58516" lon="3.36012">
        <ele>171.3</ele>
        <time>2016-07-31T08:01:43Z</time>
      </trkpt>
      <trkpt lat="43.58508" lon="3.36019">
        <ele>170.9</ele>
        <time>2016-07-31T08:01:45Z</time>
      </trkpt>
      <trkpt lat="43.58501" lon="3.36026">
        <ele>170.2</ele>
        <time>2016-07-31T08:01:47Z</time>
      </trkpt>
      <trkpt lat="43.58492" lon="3.36033">
        <ele>170.7</ele>
        <time>2016-07-31T08:01:49Z</time>
      </trkpt>
      <trkpt lat="43.58484" lon="3.3604">
        <ele>171.1</ele>
        <time>2016-07-31T08:01:51Z</time>
      </trkpt>
      <trkpt lat="43.58476" lon="3.36047">
        <ele>171.2</ele>
        <time>2016-07-31T08:01:53Z</time>
      </trkpt>
      <trkpt lat="43.58468" lon="3.36054">
        <ele>170.9</ele>
        <time>2016-07-31T08:01:55Z</time>
      </trkpt>
      <trkpt lat="43.5846" lon="3.36061">
        <ele>170.4</ele>
        <time>2016-07-31T08:01:57Z</time>
      </trkpt>
      <trkpt lat="43.58453" lon="3.36068">
        <ele>170.4</ele>
        <time>2016-07-31T08:01:59Z</time>
      </trkpt>
      <trkpt lat="43.58447" lon="3.36074">
        <ele>170.2</ele>
        <time>2016-07-31T08:02:01Z</time>
      </trkpt>
      <trkpt lat="43.58441" lon="3.3608">
        <ele>169.6</ele>
        <time>2016-07-31T08:02:03Z</time>
      </trkpt>
      <trkpt lat="43.58435" lon="3.36088">
        <ele>169.9</ele>
        <time>2016-07-31T08:02:05Z</time>
      </trkpt>
      <trkpt lat="43.58427" lon="3.36098">
        <ele>171.1</ele>
        <time>2016-07-31T08:02:07Z</time>
      </trkpt>
      <trkpt lat="43.58421" lon="3.36107">
        <ele>172.8</ele>
        <time>2016-07-31T08:02:09Z</time>
      </trkpt>
      <trkpt lat="43.58413" lon="3.36117">
        <ele>173.4</ele>
        <time>2016-07-31T08:02:12Z</time>
      </trkpt>
      <trkpt lat="43.58406" lon="3.36126">
        <ele>173.4</ele>
        <time>2016-07-31T08:02:14Z</time>
      </trkpt>
      <trkpt lat="43.58401" lon="3.36134">
        <ele>173.5</ele>
        <time>2016-07-31T08:02:16Z</time>
      </trkpt>
      <trkpt lat="43.58396" lon="3.36141">
        <ele>173.5</ele>
        <time>2016-07-31T08:02:18Z</time>
      </trkpt>
      <trkpt lat="43.58391" lon="3.36148">
        <ele>173.6</ele>
        <time>2016-07-31T08:02:20Z</time>
      </trkpt>
      <trkpt lat="43.58384" lon="3.36159">
        <ele>173.6</ele>
        <time>2016-07-31T08:02:23Z</time>
      </trkpt>
      <trkpt lat="43.58375" lon="3.36168">
        <ele>173.7</ele>
        <time>2016-07-31T08:02:26Z</time>
      </trkpt>
      <trkpt lat="43.58367" lon="3.36176">
        <ele>173.6</ele>
        <time>2016-07-31T08:02:29Z</time>
      </trkpt>
      <trkpt lat="43.58359" lon="3.36183">
        <ele>173.4</ele>
        <time>2016-07-31T08:02:32Z</time>
      </trkpt>
      <trkpt lat="43.58351" lon="3.36186">
        <ele>173.4</ele>
        <time>2016-07-31T08:02:34Z</time>
      </trkpt>
      <trkpt lat="43.58344" lon="3.36188">
        <ele>173</ele>
        <time>2016-07-31T08:02:36Z</time>
      </trkpt>
      <trkpt lat="43.58334" lon="3.3619">
        <ele>172.8</ele>
        <time>2016-07-31T08:02:39Z</time>
      </trkpt>
      <trkpt lat="43.58326" lon="3.36192">
        <ele>172.6</ele>
        <time>2016-07-31T08:02:41Z</time>
      </trkpt>
      <trkpt lat="43.58316" lon="3.36194">
        <ele>172.5</ele>
        <time>2016-07-31T08:02:44Z</time>
      </trkpt>
      <trkpt lat="43.58305" lon="3.36197">
        <ele>172.6</ele>
        <time>2016-07-31T08:02:47Z</time>
      </trkpt>
      <trkpt lat="43.58296" lon="3.362">
        <ele>172.6</ele>
        <time>2016-07-31T08:02:50Z</time>
      </trkpt>
      <trkpt lat="43.58287" lon="3.36202">
        <ele>172.6</ele>
        <time>2016-07-31T08:02:53Z</time>
      </trkpt>
      <trkpt lat="43.58278" lon="3.36205">
        <ele>172.6</ele>
        <time>2016-07-31T08:02:56Z</time>
      </trkpt>
      <trkpt lat="43.58268" lon="3.3621">
        <ele>172.8</ele>
        <time>2016-07-31T08:02:59Z</time>
      </trkpt>
      <trkpt lat="43.58258" lon="3.36215">
        <ele>174</ele>
        <time>2016-07-31T08:03:02Z</time>
      </trkpt>
      <trkpt lat="43.58248" lon="3.36221">
        <ele>175.1</ele>
        <time>2016-07-31T08:03:05Z</time>
      </trkpt>
      <trkpt lat="43.58241" lon="3.36224">
        <ele>176.1</ele>
        <time>2016-07-31T08:03:07Z</time>
      </trkpt>
      <trkpt lat="43.58233" lon="3.36228">
        <ele>176.7</ele>
        <time>2016-07-31T08:03:09Z</time>
      </trkpt>
      <trkpt lat="43.58225" lon="3.36233">
        <ele>175.8</ele>
        <time>2016-07-31T08:03:11Z</time>
      </trkpt>
      <trkpt lat="43.58216" lon="3.36238">
        <ele>174.9</ele>
        <time>2016-07-31T08:03:13Z</time>
      </trkpt>
      <trkpt lat="43.58206" lon="3.36244">
        <ele>174.2</ele>
        <time>2016-07-31T08:03:15Z</time>
      </trkpt>
      <trkpt lat="43.58198" lon="3.36249">
        <ele>173.6</ele>
        <time>2016-07-31T08:03:17Z</time>
      </trkpt>
      <trkpt lat="43.5819" lon="3.36254">
        <ele>172.8</ele>
        <time>2016-07-31T08:03:19Z</time>
      </trkpt>
      <trkpt lat="43.58182" lon="3.36258">
        <ele>172.3</ele>
        <time>2016-07-31T08:03:21Z</time>
      </trkpt>
      <trkpt lat="43.58174" lon="3.36263">
        <ele>172.1</ele>
        <time>2016-07-31T08:03:23Z</time>
      </trkpt>
      <trkpt lat="43.58165" lon="3.36268">
        <ele>172.3</ele>
        <time>2016-07-31T08:03:25Z</time>
      </trkpt>
      <trkpt lat="43.58156" lon="3.36273">
        <ele>172.8</ele>
        <time>2016-07-31T08:03:27Z</time>
      </trkpt>
      <trkpt lat="43.58147" lon="3.36278">
        <ele>173.1</ele>
        <time>2016-07-31T08:03:29Z</time>
      </trkpt>
      <trkpt lat="43.58139" lon="3.36283">
        <ele>172.3</ele>
        <time>2016-07-31T08:03:31Z</time>
      </trkpt>
      <trkpt lat="43.5813" lon="3.36287">
        <ele>171.5</ele>
        <time>2016-07-31T08:03:33Z</time>
      </trkpt>
      <trkpt lat="43.58121" lon="3.36293">
        <ele>171</ele>
        <time>2016-07-31T08:03:35Z</time>
      </trkpt>
      <trkpt lat="43.58112" lon="3.36298">
        <ele>170.5</ele>
        <time>2016-07-31T08:03:37Z</time>
      </trkpt>
      <trkpt lat="43.58102" lon="3.36303">
        <ele>170.1</ele>
        <time>2016-07-31T08:03:39Z</time>
      </trkpt>
      <trkpt lat="43.58093" lon="3.36309">
        <ele>169.7</ele>
        <time>2016-07-31T08:03:41Z</time>
      </trkpt>
      <trkpt lat="43.58084" lon="3.36314">
        <ele>169.6</ele>
        <time>2016-07-31T08:03:43Z</time>
      </trkpt>
      <trkpt lat="43.58075" lon="3.36319">
        <ele>169.4</ele>
        <time>2016-07-31T08:03:45Z</time>
      </trkpt>
      <trkpt lat="43.58065" lon="3.36325">
        <ele>169.3</ele>
        <time>2016-07-31T08:03:47Z</time>
      </trkpt>
      <trkpt lat="43.58056" lon="3.36331">
        <ele>169</ele>
        <time>2016-07-31T08:03:49Z</time>
      </trkpt>
      <trkpt lat="43.58046" lon="3.36336">
        <ele>168.6</ele>
        <time>2016-07-31T08:03:51Z</time>
      </trkpt>
      <trkpt lat="43.58036" lon="3.36341">
        <ele>167.9</ele>
        <time>2016-07-31T08:03:53Z</time>
      </trkpt>
      <trkpt lat="43.58025" lon="3.36345">
        <ele>166.9</ele>
        <time>2016-07-31T08:03:55Z</time>
      </trkpt>
      <trkpt lat="43.58015" lon="3.36347">
        <ele>165.9</ele>
        <time>2016-07-31T08:03:57Z</time>
      </trkpt>
      <trkpt lat="43.58003" lon="3.36349">
        <ele>164.5</ele>
        <time>2016-07-31T08:03:59Z</time>
      </trkpt>
      <trkpt lat="43.57994" lon="3.36351">
        <ele>163.5</ele>
        <time>2016-07-31T08:04:01Z</time>
      </trkpt>
      <trkpt lat="43.57985" lon="3.36353">
        <ele>163.9</ele>
        <time>2016-07-31T08:04:03Z</time>
      </trkpt>
      <trkpt lat="43.57974" lon="3.36355">
        <ele>165.7</ele>
        <time>2016-07-31T08:04:06Z</time>
      </trkpt>
      <trkpt lat="43.57966" lon="3.36356">
        <ele>166.1</ele>
        <time>2016-07-31T08:04:08Z</time>
      </trkpt>
      <trkpt lat="43.57957" lon="3.36358">
        <ele>165.9</ele>
        <time>2016-07-31T08:04:10Z</time>
      </trkpt>
      <trkpt lat="43.57948" lon="3.3636">
        <ele>166.1</ele>
        <time>2016-07-31T08:04:12Z</time>
      </trkpt>
      <trkpt lat="43.57939" lon="3.36362">
        <ele>166.3</ele>
        <time>2016-07-31T08:04:14Z</time>
      </trkpt>
      <trkpt lat="43.57931" lon="3.36364">
        <ele>166.7</ele>
        <time>2016-07-31T08:04:16Z</time>
      </trkpt>
      <trkpt lat="43.57922" lon="3.36366">
        <ele>167.5</ele>
        <time>2016-07-31T08:04:18Z</time>
      </trkpt>
      <trkpt lat="43.57914" lon="3.36367">
        <ele>168.7</ele>
        <time>2016-07-31T08:04:20Z</time>
      </trkpt>
      <trkpt lat="43.57907" lon="3.3637">
        <ele>169</ele>
        <time>2016-07-31T08:04:22Z</time>
      </trkpt>
      <trkpt lat="43.57898" lon="3.36371">
        <ele>169.2</ele>
        <time>2016-07-31T08:04:24Z</time>
      </trkpt>
      <trkpt lat="43.5789" lon="3.36373">
        <ele>168.7</ele>
        <time>2016-07-31T08:04:26Z</time>
      </trkpt>
      <trkpt lat="43.57882" lon="3.36374">
        <ele>168.7</ele>
        <time>2016-07-31T08:04:28Z</time>
      </trkpt>
      <trkpt lat="43.57874" lon="3.36375">
        <ele>168.5</ele>
        <time>2016-07-31T08:04:30Z</time>
      </trkpt>
      <trkpt lat="43.57867" lon="3.36376">
        <ele>167.9</ele>
        <time>2016-07-31T08:04:32Z</time>
      </trkpt>
      <trkpt lat="43.5786" lon="3.36376">
        <ele>167.9</ele>
        <time>2016-07-31T08:04:34Z</time>
      </trkpt>
      <trkpt lat="43.57851" lon="3.36377">
        <ele>167.9</ele>
        <time>2016-07-31T08:04:36Z</time>
      </trkpt>
      <trkpt lat="43.57843" lon="3.36378">
        <ele>168.4</ele>
        <time>2016-07-31T08:04:38Z</time>
      </trkpt>
      <trkpt lat="43.57836" lon="3.3638">
        <ele>167.6</ele>
        <time>2016-07-31T08:04:40Z</time>
      </trkpt>
      <trkpt lat="43.57828" lon="3.36383">
        <ele>165.6</ele>
        <time>2016-07-31T08:04:42Z</time>
      </trkpt>
      <trkpt lat="43.57818" lon="3.36386">
        <ele>163.9</ele>
        <time>2016-07-31T08:04:44Z</time>
      </trkpt>
      <trkpt lat="43.57808" lon="3.36388">
        <ele>162.7</ele>
        <time>2016-07-31T08:04:46Z</time>
      </trkpt>
      <trkpt lat="43.57798" lon="3.36391">
        <ele>162.9</ele>
        <time>2016-07-31T08:04:49Z</time>
      </trkpt>
      <trkpt lat="43.5779" lon="3.36393">
        <ele>163.4</ele>
        <time>2016-07-31T08:04:51Z</time>
      </trkpt>
      <trkpt lat="43.5778" lon="3.36394">
        <ele>163.8</ele>
        <time>2016-07-31T08:04:53Z</time>
      </trkpt>
      <trkpt lat="43.57768" lon="3.36397">
        <ele>164.7</ele>
        <time>2016-07-31T08:04:55Z</time>
      </trkpt>
      <trkpt lat="43.5776" lon="3.364">
        <ele>166.5</ele>
        <time>2016-07-31T08:04:57Z</time>
      </trkpt>
      <trkpt lat="43.57751" lon="3.36401">
        <ele>169.2</ele>
        <time>2016-07-31T08:04:59Z</time>
      </trkpt>
      <trkpt lat="43.57743" lon="3.36402">
        <ele>170.2</ele>
        <time>2016-07-31T08:05:01Z</time>
      </trkpt>
      <trkpt lat="43.57732" lon="3.36402">
        <ele>169.1</ele>
        <time>2016-07-31T08:05:04Z</time>
      </trkpt>
      <trkpt lat="43.57725" lon="3.36402">
        <ele>169.3</ele>
        <time>2016-07-31T08:05:06Z</time>
      </trkpt>
      <trkpt lat="43.57717" lon="3.36402">
        <ele>169.3</ele>
        <time>2016-07-31T08:05:08Z</time>
      </trkpt>
      <trkpt lat="43.57708" lon="3.36401">
        <ele>170.5</ele>
        <time>2016-07-31T08:05:10Z</time>
      </trkpt>
      <trkpt lat="43.57699" lon="3.36397">
        <ele>170.1</ele>
        <time>2016-07-31T08:05:12Z</time>
      </trkpt>
      <trkpt lat="43.57691" lon="3.36395">
        <ele>169.6</ele>
        <time>2016-07-31T08:05:14Z</time>
      </trkpt>
      <trkpt lat="43.57683" lon="3.36394">
        <ele>170.2</ele>
        <time>2016-07-31T08:05:16Z</time>
      </trkpt>
      <trkpt lat="43.57673" lon="3.36393">
        <ele>172.6</ele>
        <time>2016-07-31T08:05:18Z</time>
      </trkpt>
      <trkpt lat="43.57663" lon="3.36392">
        <ele>175</ele>
        <time>2016-07-31T08:05:20Z</time>
      </trkpt>
      <trkpt lat="43.57652" lon="3.36389">
        <ele>177.6</ele>
        <time>2016-07-31T08:05:22Z</time>
      </trkpt>
      <trkpt lat="43.57641" lon="3.36386">
        <ele>180.3</ele>
        <time>2016-07-31T08:05:24Z</time>
      </trkpt>
      <trkpt lat="43.57631" lon="3.36384">
        <ele>181.8</ele>
        <time>2016-07-31T08:05:26Z</time>
      </trkpt>
      <trkpt lat="43.57621" lon="3.36382">
        <ele>182.5</ele>
        <time>2016-07-31T08:05:28Z</time>
      </trkpt>
      <trkpt lat="43.57609" lon="3.36383">
        <ele>182</ele>
        <time>2016-07-31T08:05:30Z</time>
      </trkpt>
      <trkpt lat="43.57599" lon="3.36382">
        <ele>180.4</ele>
        <time>2016-07-31T08:05:32Z</time>
      </trkpt>
      <trkpt lat="43.57589" lon="3.36381">
        <ele>178.8</ele>
        <time>2016-07-31T08:05:34Z</time>
      </trkpt>
      <trkpt lat="43.57579" lon="3.36379">
        <ele>176.1</ele>
        <time>2016-07-31T08:05:36Z</time>
      </trkpt>
      <trkpt lat="43.57568" lon="3.36376">
        <ele>173.4</ele>
        <time>2016-07-31T08:05:38Z</time>
      </trkpt>
      <trkpt lat="43.57559" lon="3.36374">
        <ele>171.1</ele>
        <time>2016-07-31T08:05:40Z</time>
      </trkpt>
      <trkpt lat="43.57548" lon="3.36371">
        <ele>169.3</ele>
        <time>2016-07-31T08:05:42Z</time>
      </trkpt>
      <trkpt lat="43.57537" lon="3.36368">
        <ele>167.6</ele>
        <time>2016-07-31T08:05:44Z</time>
      </trkpt>
      <trkpt lat="43.57528" lon="3.36367">
        <ele>166.1</ele>
        <time>2016-07-31T08:05:46Z</time>
      </trkpt>
      <trkpt lat="43.57518" lon="3.36364">
        <ele>165.4</ele>
        <time>2016-07-31T08:05:48Z</time>
      </trkpt>
      <trkpt lat="43.57509" lon="3.36362">
        <ele>164.5</ele>
        <time>2016-07-31T08:05:50Z</time>
      </trkpt>
      <trkpt lat="43.57499" lon="3.3636">
        <ele>163.4</ele>
        <time>2016-07-31T08:05:52Z</time>
      </trkpt>
      <trkpt lat="43.57488" lon="3.36359">
        <ele>163.7</ele>
        <time>2016-07-31T08:05:54Z</time>
      </trkpt>
      <trkpt lat="43.57477" lon="3.36356">
        <ele>162.5</ele>
        <time>2016-07-31T08:05:56Z</time>
      </trkpt>
      <trkpt lat="43.57466" lon="3.36354">
        <ele>161.4</ele>
        <time>2016-07-31T08:05:58Z</time>
      </trkpt>
      <trkpt lat="43.57455" lon="3.36352">
        <ele>160.8</ele>
        <time>2016-07-31T08:06:00Z</time>
      </trkpt>
      <trkpt lat="43.57445" lon="3.36351">
        <ele>160.5</ele>
        <time>2016-07-31T08:06:02Z</time>
      </trkpt>
      <trkpt lat="43.57435" lon="3.36351">
        <ele>160.2</ele>
        <time>2016-07-31T08:06:04Z</time>
      </trkpt>
      <trkpt lat="43.57423" lon="3.36352">
        <ele>159.5</ele>
        <time>2016-07-31T08:06:06Z</time>
      </trkpt>
      <trkpt lat="43.57411" lon="3.36355">
        <ele>159.7</ele>
        <time>2016-07-31T08:06:08Z</time>
      </trkpt>
      <trkpt lat="43.57399" lon="3.36358">
        <ele>160.3</ele>
        <time>2016-07-31T08:06:10Z</time>
      </trkpt>
      <trkpt lat="43.57387" lon="3.36363">
        <ele>160.8</ele>
        <time>2016-07-31T08:06:12Z</time>
      </trkpt>
      <trkpt lat="43.57375" lon="3.36367">
        <ele>161.7</ele>
        <time>2016-07-31T08:06:14Z</time>
      </trkpt>
      <trkpt lat="43.57364" lon="3.36367">
        <ele>162.7</ele>
        <time>2016-07-31T08:06:16Z</time>
      </trkpt>
      <trkpt lat="43.57354" lon="3.36366">
        <ele>162.3</ele>
        <time>2016-07-31T08:06:18Z</time>
      </trkpt>
      <trkpt lat="43.57342" lon="3.36363">
        <ele>161.2</ele>
        <time>2016-07-31T08:06:20Z</time>
      </trkpt>
      <trkpt lat="43.5733" lon="3.3636">
        <ele>160.4</ele>
        <time>2016-07-31T08:06:22Z</time>
      </trkpt>
      <trkpt lat="43.5732" lon="3.36358">
        <ele>160.1</ele>
        <time>2016-07-31T08:06:24Z</time>
      </trkpt>
      <trkpt lat="43.57312" lon="3.36356">
        <ele>160.4</ele>
        <time>2016-07-31T08:06:26Z</time>
      </trkpt>
      <trkpt lat="43.57304" lon="3.36354">
        <ele>160.8</ele>
        <time>2016-07-31T08:06:28Z</time>
      </trkpt>
      <trkpt lat="43.57294" lon="3.36351">
        <ele>161.2</ele>
        <time>2016-07-31T08:06:30Z</time>
      </trkpt>
      <trkpt lat="43.57284" lon="3.36348">
        <ele>161.6</ele>
        <time>2016-07-31T08:06:32Z</time>
      </trkpt>
      <trkpt lat="43.57274" lon="3.36347">
        <ele>161.8</ele>
        <time>2016-07-31T08:06:34Z</time>
      </trkpt>
      <trkpt lat="43.57267" lon="3.36347">
        <ele>161.8</ele>
        <time>2016-07-31T08:06:36Z</time>
      </trkpt>
      <trkpt lat="43.57257" lon="3.36349">
        <ele>161.7</ele>
        <time>2016-07-31T08:06:39Z</time>
      </trkpt>
      <trkpt lat="43.5725" lon="3.36352">
        <ele>161.5</ele>
        <time>2016-07-31T08:06:42Z</time>
      </trkpt>
      <trkpt lat="43.5725" lon="3.3635">
        <ele>161</ele>
        <time>2016-07-31T08:06:49Z</time>
      </trkpt>
      <trkpt lat="43.57249" lon="3.36352">
        <ele>160.9</ele>
        <time>2016-07-31T08:06:56Z</time>
      </trkpt>
      <trkpt lat="43.57249" lon="3.36348">
        <ele>160.9</ele>
        <time>2016-07-31T08:07:03Z</time>
      </trkpt>
      <trkpt lat="43.57245" lon="3.36344">
        <ele>160.7</ele>
        <time>2016-07-31T08:07:19Z</time>
      </trkpt>
      <trkpt lat="43.57253" lon="3.36341">
        <ele>161</ele>
        <time>2016-07-31T08:07:31Z</time>
      </trkpt>
      <trkpt lat="43.57254" lon="3.36346">
        <ele>161.4</ele>
        <time>2016-07-31T08:07:38Z</time>
      </trkpt>
      <trkpt lat="43.5725" lon="3.36346">
        <ele>161.5</ele>
        <time>2016-07-31T08:07:45Z</time>
      </trkpt>
      <trkpt lat="43.57248" lon="3.36347">
        <ele>161.5</ele>
        <time>2016-07-31T08:07:52Z</time>
      </trkpt>
      <trkpt lat="43.57248" lon="3.36348">
        <ele>161.5</ele>
        <time>2016-07-31T08:08:06Z</time>
      </trkpt>
      <trkpt lat="43.57247" lon="3.36349">
        <ele>160.8</ele>
        <time>2016-07-31T08:08:13Z</time>
      </trkpt>
      <trkpt lat="43.57252" lon="3.36356">
        <ele>159.8</ele>
        <time>2016-07-31T08:08:40Z</time>
      </trkpt>
      <trkpt lat="43.57255" lon="3.36355">
        <ele>159.6</ele>
        <time>2016-07-31T08:08:47Z</time>
      </trkpt>
    </trkseg>
  </trk>
</gpx>